<?xml version="1.0" encoding="UTF-8"?>
<gpx version="1.1" creator="Endomondo.com" xsi:schemaLocation="http://www.topografix.com/GPX/1/1 http://www.topografix.com/GPX/1/1/gpx.xsd http://www.garmin.com/xmlschemas/GpxExtensions/v3 http://www.garmin.com/xmlschemas/GpxExtensionsv3.xsd http://www.garmin.com/xmlschemas/TrackPointExtension/v1 http://www.garmin.com/xmlschemas/TrackPointExtensionv1.xsd" xmlns="http://www.topografix.com/GPX/1/1" xmlns:gpxtpx="http://www.garmin.com/xmlschemas/TrackPointExtension/v1" xmlns:gpxx="http://www.garmin.com/xmlschemas/GpxExtensions/v3" xmlns:xsi="http://www.w3.org/2001/XMLSchema-instance">
  <metadata>
    <author>
      <name>ARTSIOM SOBAL</name>
      <email id="archibond007" domain="gmail.com"/>
    </author>
    <link href="http://www.endomondo.com">
      <text>Endomondo</text>
    </link>
    <time>2014-05-07T07:04:40Z</time>
  </metadata>
  <trk>
    <name>7B_full</name>
    <src>http://www.endomondo.com/</src>
    <link href="http://www.endomondo.com/workouts/308675725/6262083">
      <text>7B_full</text>
    </link>
    <type>MOUNTAIN_BIKING</type>
    <trkseg>
      <trkpt lat="53.897223" lon="27.496029">
        <time>2014-03-15T04:26:03Z</time>
      </trkpt>
      <trkpt lat="53.897223" lon="27.496029">
        <ele>275.1</ele>
        <time>2014-03-15T04:26:31Z</time>
      </trkpt>
      <trkpt lat="53.897026" lon="27.49594">
        <ele>275.0</ele>
        <time>2014-03-15T04:26:37Z</time>
      </trkpt>
      <trkpt lat="53.896835" lon="27.496152">
        <ele>274.5</ele>
        <time>2014-03-15T04:26:46Z</time>
      </trkpt>
      <trkpt lat="53.896553" lon="27.496361">
        <ele>274.1</ele>
        <time>2014-03-15T04:26:53Z</time>
      </trkpt>
      <trkpt lat="53.896341" lon="27.496495">
        <ele>274.4</ele>
        <time>2014-03-15T04:26:58Z</time>
      </trkpt>
      <trkpt lat="53.8961" lon="27.496536">
        <ele>276.8</ele>
        <time>2014-03-15T04:27:03Z</time>
      </trkpt>
      <trkpt lat="53.896044" lon="27.496899">
        <ele>278.4</ele>
        <time>2014-03-15T04:27:11Z</time>
      </trkpt>
      <trkpt lat="53.89589" lon="27.497186">
        <ele>277.1</ele>
        <time>2014-03-15T04:27:21Z</time>
      </trkpt>
      <trkpt lat="53.895614" lon="27.497248">
        <ele>276.6</ele>
        <time>2014-03-15T04:27:26Z</time>
      </trkpt>
      <trkpt lat="53.8953" lon="27.497331">
        <ele>276.3</ele>
        <time>2014-03-15T04:27:31Z</time>
      </trkpt>
      <trkpt lat="53.894964" lon="27.497538">
        <ele>274.2</ele>
        <time>2014-03-15T04:27:36Z</time>
      </trkpt>
      <trkpt lat="53.8945" lon="27.497834">
        <ele>273.2</ele>
        <time>2014-03-15T04:27:42Z</time>
      </trkpt>
      <trkpt lat="53.894098" lon="27.498112">
        <ele>271.6</ele>
        <time>2014-03-15T04:27:47Z</time>
      </trkpt>
      <trkpt lat="53.893644" lon="27.498449">
        <ele>270.6</ele>
        <time>2014-03-15T04:27:53Z</time>
      </trkpt>
      <trkpt lat="53.893207" lon="27.498762">
        <ele>270.0</ele>
        <time>2014-03-15T04:27:59Z</time>
      </trkpt>
      <trkpt lat="53.892967" lon="27.498926">
        <ele>269.0</ele>
        <time>2014-03-15T04:28:02Z</time>
      </trkpt>
      <trkpt lat="53.892587" lon="27.499156">
        <ele>266.2</ele>
        <time>2014-03-15T04:28:07Z</time>
      </trkpt>
      <trkpt lat="53.892359" lon="27.499288">
        <ele>264.8</ele>
        <time>2014-03-15T04:28:10Z</time>
      </trkpt>
      <trkpt lat="53.892132" lon="27.49941">
        <ele>263.0</ele>
        <time>2014-03-15T04:28:13Z</time>
      </trkpt>
      <trkpt lat="53.891914" lon="27.499514">
        <ele>261.9</ele>
        <time>2014-03-15T04:28:16Z</time>
      </trkpt>
      <trkpt lat="53.891448" lon="27.499683">
        <ele>258.4</ele>
        <time>2014-03-15T04:28:22Z</time>
      </trkpt>
      <trkpt lat="53.891224" lon="27.499774">
        <ele>258.3</ele>
        <time>2014-03-15T04:28:25Z</time>
      </trkpt>
      <trkpt lat="53.890764" lon="27.499974">
        <ele>255.7</ele>
        <time>2014-03-15T04:28:31Z</time>
      </trkpt>
      <trkpt lat="53.890541" lon="27.500074">
        <ele>254.6</ele>
        <time>2014-03-15T04:28:34Z</time>
      </trkpt>
      <trkpt lat="53.890101" lon="27.500281">
        <ele>252.9</ele>
        <time>2014-03-15T04:28:40Z</time>
      </trkpt>
      <trkpt lat="53.889867" lon="27.500376">
        <ele>252.2</ele>
        <time>2014-03-15T04:28:43Z</time>
      </trkpt>
      <trkpt lat="53.889391" lon="27.500592">
        <ele>249.5</ele>
        <time>2014-03-15T04:28:49Z</time>
      </trkpt>
      <trkpt lat="53.889163" lon="27.500685">
        <ele>250.8</ele>
        <time>2014-03-15T04:28:52Z</time>
      </trkpt>
      <trkpt lat="53.888925" lon="27.500778">
        <ele>249.5</ele>
        <time>2014-03-15T04:28:55Z</time>
      </trkpt>
      <trkpt lat="53.888701" lon="27.500869">
        <ele>248.8</ele>
        <time>2014-03-15T04:28:58Z</time>
      </trkpt>
      <trkpt lat="53.888498" lon="27.500961">
        <ele>249.7</ele>
        <time>2014-03-15T04:29:01Z</time>
      </trkpt>
      <trkpt lat="53.888299" lon="27.501061">
        <ele>248.9</ele>
        <time>2014-03-15T04:29:04Z</time>
      </trkpt>
      <trkpt lat="53.888097" lon="27.501144">
        <ele>249.1</ele>
        <time>2014-03-15T04:29:07Z</time>
      </trkpt>
      <trkpt lat="53.887805" lon="27.501278">
        <ele>246.7</ele>
        <time>2014-03-15T04:29:12Z</time>
      </trkpt>
      <trkpt lat="53.887472" lon="27.501418">
        <ele>246.9</ele>
        <time>2014-03-15T04:29:18Z</time>
      </trkpt>
      <trkpt lat="53.887319" lon="27.501487">
        <ele>247.4</ele>
        <time>2014-03-15T04:29:21Z</time>
      </trkpt>
      <trkpt lat="53.886971" lon="27.501633">
        <ele>245.8</ele>
        <time>2014-03-15T04:29:27Z</time>
      </trkpt>
      <trkpt lat="53.88658" lon="27.501808">
        <ele>242.8</ele>
        <time>2014-03-15T04:29:33Z</time>
      </trkpt>
      <trkpt lat="53.886403" lon="27.50189">
        <ele>243.7</ele>
        <time>2014-03-15T04:29:36Z</time>
      </trkpt>
      <trkpt lat="53.886215" lon="27.501975">
        <ele>243.6</ele>
        <time>2014-03-15T04:29:39Z</time>
      </trkpt>
      <trkpt lat="53.885892" lon="27.502144">
        <ele>241.6</ele>
        <time>2014-03-15T04:29:44Z</time>
      </trkpt>
      <trkpt lat="53.885707" lon="27.502262">
        <ele>241.3</ele>
        <time>2014-03-15T04:29:47Z</time>
      </trkpt>
      <trkpt lat="53.885521" lon="27.502412">
        <ele>241.7</ele>
        <time>2014-03-15T04:29:50Z</time>
      </trkpt>
      <trkpt lat="53.885345" lon="27.502556">
        <ele>241.7</ele>
        <time>2014-03-15T04:29:53Z</time>
      </trkpt>
      <trkpt lat="53.885154" lon="27.50269">
        <ele>241.3</ele>
        <time>2014-03-15T04:29:56Z</time>
      </trkpt>
      <trkpt lat="53.88498" lon="27.502791">
        <ele>240.9</ele>
        <time>2014-03-15T04:29:59Z</time>
      </trkpt>
      <trkpt lat="53.884808" lon="27.502979">
        <ele>240.8</ele>
        <time>2014-03-15T04:30:02Z</time>
      </trkpt>
      <trkpt lat="53.88464" lon="27.503131">
        <ele>239.2</ele>
        <time>2014-03-15T04:30:05Z</time>
      </trkpt>
      <trkpt lat="53.884468" lon="27.503294">
        <ele>237.9</ele>
        <time>2014-03-15T04:30:08Z</time>
      </trkpt>
      <trkpt lat="53.884208" lon="27.503545">
        <ele>237.6</ele>
        <time>2014-03-15T04:30:13Z</time>
      </trkpt>
      <trkpt lat="53.883945" lon="27.503794">
        <ele>244.2</ele>
        <time>2014-03-15T04:30:19Z</time>
      </trkpt>
      <trkpt lat="53.883673" lon="27.504057">
        <ele>246.7</ele>
        <time>2014-03-15T04:30:25Z</time>
      </trkpt>
      <trkpt lat="53.883424" lon="27.504194">
        <ele>246.6</ele>
        <time>2014-03-15T04:30:30Z</time>
      </trkpt>
      <trkpt lat="53.88307" lon="27.50406">
        <ele>247.9</ele>
        <time>2014-03-15T04:30:36Z</time>
      </trkpt>
      <trkpt lat="53.882914" lon="27.503655">
        <ele>249.7</ele>
        <time>2014-03-15T04:30:41Z</time>
      </trkpt>
      <trkpt lat="53.882727" lon="27.503128">
        <ele>252.2</ele>
        <time>2014-03-15T04:30:47Z</time>
      </trkpt>
      <trkpt lat="53.882511" lon="27.502656">
        <ele>250.4</ele>
        <time>2014-03-15T04:30:53Z</time>
      </trkpt>
      <trkpt lat="53.882291" lon="27.502189">
        <ele>252.1</ele>
        <time>2014-03-15T04:30:59Z</time>
      </trkpt>
      <trkpt lat="53.882185" lon="27.501963">
        <ele>253.1</ele>
        <time>2014-03-15T04:31:02Z</time>
      </trkpt>
      <trkpt lat="53.881953" lon="27.501523">
        <ele>254.4</ele>
        <time>2014-03-15T04:31:08Z</time>
      </trkpt>
      <trkpt lat="53.881705" lon="27.501137">
        <ele>255.1</ele>
        <time>2014-03-15T04:31:14Z</time>
      </trkpt>
      <trkpt lat="53.881443" lon="27.500847">
        <ele>255.4</ele>
        <time>2014-03-15T04:31:20Z</time>
      </trkpt>
      <trkpt lat="53.881226" lon="27.500605">
        <ele>254.7</ele>
        <time>2014-03-15T04:31:25Z</time>
      </trkpt>
      <trkpt lat="53.880968" lon="27.500274">
        <ele>256.2</ele>
        <time>2014-03-15T04:31:31Z</time>
      </trkpt>
      <trkpt lat="53.880842" lon="27.500095">
        <ele>256.5</ele>
        <time>2014-03-15T04:31:34Z</time>
      </trkpt>
      <trkpt lat="53.880591" lon="27.499759">
        <ele>256.7</ele>
        <time>2014-03-15T04:31:40Z</time>
      </trkpt>
      <trkpt lat="53.88036" lon="27.499513">
        <ele>257.1</ele>
        <time>2014-03-15T04:31:45Z</time>
      </trkpt>
      <trkpt lat="53.880225" lon="27.499348">
        <ele>257.1</ele>
        <time>2014-03-15T04:31:48Z</time>
      </trkpt>
      <trkpt lat="53.879987" lon="27.499096">
        <ele>257.2</ele>
        <time>2014-03-15T04:31:53Z</time>
      </trkpt>
      <trkpt lat="53.879838" lon="27.498961">
        <ele>256.9</ele>
        <time>2014-03-15T04:31:56Z</time>
      </trkpt>
      <trkpt lat="53.879615" lon="27.49873">
        <ele>258.0</ele>
        <time>2014-03-15T04:32:01Z</time>
      </trkpt>
      <trkpt lat="53.879347" lon="27.498491">
        <ele>259.4</ele>
        <time>2014-03-15T04:32:07Z</time>
      </trkpt>
      <trkpt lat="53.879117" lon="27.498288">
        <ele>259.5</ele>
        <time>2014-03-15T04:32:12Z</time>
      </trkpt>
      <trkpt lat="53.878827" lon="27.498043">
        <ele>258.8</ele>
        <time>2014-03-15T04:32:18Z</time>
      </trkpt>
      <trkpt lat="53.878667" lon="27.497929">
        <ele>258.0</ele>
        <time>2014-03-15T04:32:21Z</time>
      </trkpt>
      <trkpt lat="53.878357" lon="27.497725">
        <ele>258.9</ele>
        <time>2014-03-15T04:32:27Z</time>
      </trkpt>
      <trkpt lat="53.878099" lon="27.497587">
        <ele>258.2</ele>
        <time>2014-03-15T04:32:32Z</time>
      </trkpt>
      <trkpt lat="53.877781" lon="27.4974">
        <ele>258.8</ele>
        <time>2014-03-15T04:32:38Z</time>
      </trkpt>
      <trkpt lat="53.877472" lon="27.497192">
        <ele>260.2</ele>
        <time>2014-03-15T04:32:44Z</time>
      </trkpt>
      <trkpt lat="53.8772" lon="27.49702">
        <ele>259.6</ele>
        <time>2014-03-15T04:32:49Z</time>
      </trkpt>
      <trkpt lat="53.877083" lon="27.496916">
        <ele>259.5</ele>
        <time>2014-03-15T04:32:52Z</time>
      </trkpt>
      <trkpt lat="53.877083" lon="27.496916">
        <time>2014-03-15T04:32:58Z</time>
      </trkpt>
    </trkseg>
    <trkseg>
      <trkpt lat="53.877083" lon="27.496916">
        <time>2014-03-15T04:34:12Z</time>
      </trkpt>
      <trkpt lat="53.876896" lon="27.496811">
        <ele>260.3</ele>
        <time>2014-03-15T04:34:12Z</time>
      </trkpt>
      <trkpt lat="53.876575" lon="27.496592">
        <ele>261.1</ele>
        <time>2014-03-15T04:34:18Z</time>
      </trkpt>
      <trkpt lat="53.876234" lon="27.496354">
        <ele>261.2</ele>
        <time>2014-03-15T04:34:24Z</time>
      </trkpt>
      <trkpt lat="53.876073" lon="27.496246">
        <ele>259.9</ele>
        <time>2014-03-15T04:34:27Z</time>
      </trkpt>
      <trkpt lat="53.87574" lon="27.496022">
        <ele>259.9</ele>
        <time>2014-03-15T04:34:33Z</time>
      </trkpt>
      <trkpt lat="53.875374" lon="27.495808">
        <ele>259.0</ele>
        <time>2014-03-15T04:34:39Z</time>
      </trkpt>
      <trkpt lat="53.875077" lon="27.495627">
        <ele>258.6</ele>
        <time>2014-03-15T04:34:44Z</time>
      </trkpt>
      <trkpt lat="53.874896" lon="27.495519">
        <ele>258.7</ele>
        <time>2014-03-15T04:34:47Z</time>
      </trkpt>
      <trkpt lat="53.874613" lon="27.495333">
        <ele>257.5</ele>
        <time>2014-03-15T04:34:52Z</time>
      </trkpt>
      <trkpt lat="53.874452" lon="27.495227">
        <ele>257.4</ele>
        <time>2014-03-15T04:34:55Z</time>
      </trkpt>
      <trkpt lat="53.874284" lon="27.495124">
        <ele>257.6</ele>
        <time>2014-03-15T04:34:58Z</time>
      </trkpt>
      <trkpt lat="53.873936" lon="27.494896">
        <ele>257.8</ele>
        <time>2014-03-15T04:35:04Z</time>
      </trkpt>
      <trkpt lat="53.873743" lon="27.494757">
        <ele>255.8</ele>
        <time>2014-03-15T04:35:07Z</time>
      </trkpt>
      <trkpt lat="53.873375" lon="27.494539">
        <ele>255.5</ele>
        <time>2014-03-15T04:35:13Z</time>
      </trkpt>
      <trkpt lat="53.873173" lon="27.494427">
        <ele>255.5</ele>
        <time>2014-03-15T04:35:16Z</time>
      </trkpt>
      <trkpt lat="53.872987" lon="27.494298">
        <ele>256.5</ele>
        <time>2014-03-15T04:35:19Z</time>
      </trkpt>
      <trkpt lat="53.872622" lon="27.494096">
        <ele>255.0</ele>
        <time>2014-03-15T04:35:25Z</time>
      </trkpt>
      <trkpt lat="53.872437" lon="27.493998">
        <ele>254.2</ele>
        <time>2014-03-15T04:35:28Z</time>
      </trkpt>
      <trkpt lat="53.872137" lon="27.493782">
        <ele>253.0</ele>
        <time>2014-03-15T04:35:33Z</time>
      </trkpt>
      <trkpt lat="53.871974" lon="27.493635">
        <ele>254.3</ele>
        <time>2014-03-15T04:35:36Z</time>
      </trkpt>
      <trkpt lat="53.871719" lon="27.493388">
        <ele>255.9</ele>
        <time>2014-03-15T04:35:41Z</time>
      </trkpt>
      <trkpt lat="53.87143" lon="27.493136">
        <ele>254.6</ele>
        <time>2014-03-15T04:35:47Z</time>
      </trkpt>
      <trkpt lat="53.871171" lon="27.492928">
        <ele>254.5</ele>
        <time>2014-03-15T04:35:53Z</time>
      </trkpt>
      <trkpt lat="53.871012" lon="27.492786">
        <ele>255.0</ele>
        <time>2014-03-15T04:35:57Z</time>
      </trkpt>
      <trkpt lat="53.870819" lon="27.492613">
        <ele>255.4</ele>
        <time>2014-03-15T04:36:01Z</time>
      </trkpt>
      <trkpt lat="53.870539" lon="27.492427">
        <ele>253.9</ele>
        <time>2014-03-15T04:36:07Z</time>
      </trkpt>
      <trkpt lat="53.870368" lon="27.492294">
        <ele>253.9</ele>
        <time>2014-03-15T04:36:10Z</time>
      </trkpt>
      <trkpt lat="53.870092" lon="27.492039">
        <ele>252.7</ele>
        <time>2014-03-15T04:36:16Z</time>
      </trkpt>
      <trkpt lat="53.86981" lon="27.491799">
        <ele>252.6</ele>
        <time>2014-03-15T04:36:22Z</time>
      </trkpt>
      <trkpt lat="53.869582" lon="27.491568">
        <ele>253.4</ele>
        <time>2014-03-15T04:36:27Z</time>
      </trkpt>
      <trkpt lat="53.869293" lon="27.4913">
        <ele>254.3</ele>
        <time>2014-03-15T04:36:33Z</time>
      </trkpt>
      <trkpt lat="53.869166" lon="27.491168">
        <ele>254.8</ele>
        <time>2014-03-15T04:36:36Z</time>
      </trkpt>
      <trkpt lat="53.868875" lon="27.490838">
        <ele>253.9</ele>
        <time>2014-03-15T04:36:43Z</time>
      </trkpt>
      <trkpt lat="53.868611" lon="27.490567">
        <ele>256.0</ele>
        <time>2014-03-15T04:36:49Z</time>
      </trkpt>
      <trkpt lat="53.868475" lon="27.490422">
        <ele>255.9</ele>
        <time>2014-03-15T04:36:52Z</time>
      </trkpt>
      <trkpt lat="53.86825" lon="27.490118">
        <ele>256.3</ele>
        <time>2014-03-15T04:36:58Z</time>
      </trkpt>
      <trkpt lat="53.868039" lon="27.489856">
        <ele>258.4</ele>
        <time>2014-03-15T04:37:03Z</time>
      </trkpt>
      <trkpt lat="53.86777" lon="27.489573">
        <ele>260.0</ele>
        <time>2014-03-15T04:37:09Z</time>
      </trkpt>
      <trkpt lat="53.867513" lon="27.489254">
        <ele>259.2</ele>
        <time>2014-03-15T04:37:15Z</time>
      </trkpt>
      <trkpt lat="53.86738" lon="27.489104">
        <ele>258.9</ele>
        <time>2014-03-15T04:37:18Z</time>
      </trkpt>
      <trkpt lat="53.867151" lon="27.488868">
        <ele>258.7</ele>
        <time>2014-03-15T04:37:23Z</time>
      </trkpt>
      <trkpt lat="53.866885" lon="27.488565">
        <ele>257.1</ele>
        <time>2014-03-15T04:37:29Z</time>
      </trkpt>
      <trkpt lat="53.866769" lon="27.488396">
        <ele>257.3</ele>
        <time>2014-03-15T04:37:32Z</time>
      </trkpt>
      <trkpt lat="53.8665" lon="27.48806">
        <ele>261.1</ele>
        <time>2014-03-15T04:37:38Z</time>
      </trkpt>
      <trkpt lat="53.866372" lon="27.487896">
        <ele>261.5</ele>
        <time>2014-03-15T04:37:41Z</time>
      </trkpt>
      <trkpt lat="53.866109" lon="27.487576">
        <ele>262.0</ele>
        <time>2014-03-15T04:37:47Z</time>
      </trkpt>
      <trkpt lat="53.865883" lon="27.487305">
        <ele>262.5</ele>
        <time>2014-03-15T04:37:52Z</time>
      </trkpt>
      <trkpt lat="53.865747" lon="27.487143">
        <ele>261.6</ele>
        <time>2014-03-15T04:37:55Z</time>
      </trkpt>
      <trkpt lat="53.865489" lon="27.486835">
        <ele>259.7</ele>
        <time>2014-03-15T04:38:01Z</time>
      </trkpt>
      <trkpt lat="53.865225" lon="27.486522">
        <ele>261.1</ele>
        <time>2014-03-15T04:38:08Z</time>
      </trkpt>
      <trkpt lat="53.864986" lon="27.486217">
        <ele>257.6</ele>
        <time>2014-03-15T04:38:14Z</time>
      </trkpt>
      <trkpt lat="53.864772" lon="27.485966">
        <ele>257.9</ele>
        <time>2014-03-15T04:38:19Z</time>
      </trkpt>
      <trkpt lat="53.864548" lon="27.485803">
        <ele>257.7</ele>
        <time>2014-03-15T04:38:26Z</time>
      </trkpt>
      <trkpt lat="53.864333" lon="27.485707">
        <ele>255.6</ele>
        <time>2014-03-15T04:38:32Z</time>
      </trkpt>
      <trkpt lat="53.86429" lon="27.485661">
        <ele>255.4</ele>
        <time>2014-03-15T04:38:35Z</time>
      </trkpt>
      <trkpt lat="53.86429" lon="27.485661">
        <time>2014-03-15T04:38:41Z</time>
      </trkpt>
    </trkseg>
    <trkseg>
      <trkpt lat="53.86429" lon="27.485661">
        <time>2014-03-15T04:39:40Z</time>
      </trkpt>
      <trkpt lat="53.864057" lon="27.485548">
        <ele>260.1</ele>
        <time>2014-03-15T04:39:40Z</time>
      </trkpt>
      <trkpt lat="53.863787" lon="27.485672">
        <ele>261.1</ele>
        <time>2014-03-15T04:39:46Z</time>
      </trkpt>
      <trkpt lat="53.863478" lon="27.485515">
        <ele>258.2</ele>
        <time>2014-03-15T04:39:53Z</time>
      </trkpt>
      <trkpt lat="53.863217" lon="27.485444">
        <ele>258.7</ele>
        <time>2014-03-15T04:39:59Z</time>
      </trkpt>
      <trkpt lat="53.863092" lon="27.485313">
        <ele>257.6</ele>
        <time>2014-03-15T04:40:02Z</time>
      </trkpt>
      <trkpt lat="53.862866" lon="27.485162">
        <ele>255.4</ele>
        <time>2014-03-15T04:40:08Z</time>
      </trkpt>
      <trkpt lat="53.862617" lon="27.484911">
        <ele>255.1</ele>
        <time>2014-03-15T04:40:14Z</time>
      </trkpt>
      <trkpt lat="53.862325" lon="27.484561">
        <ele>256.0</ele>
        <time>2014-03-15T04:40:20Z</time>
      </trkpt>
      <trkpt lat="53.862042" lon="27.484148">
        <ele>256.4</ele>
        <time>2014-03-15T04:40:26Z</time>
      </trkpt>
      <trkpt lat="53.861784" lon="27.483853">
        <ele>255.8</ele>
        <time>2014-03-15T04:40:31Z</time>
      </trkpt>
      <trkpt lat="53.861641" lon="27.483687">
        <ele>256.2</ele>
        <time>2014-03-15T04:40:34Z</time>
      </trkpt>
      <trkpt lat="53.861323" lon="27.483652">
        <ele>256.0</ele>
        <time>2014-03-15T04:40:40Z</time>
      </trkpt>
      <trkpt lat="53.861055" lon="27.483754">
        <ele>255.2</ele>
        <time>2014-03-15T04:40:45Z</time>
      </trkpt>
      <trkpt lat="53.860743" lon="27.483828">
        <ele>254.6</ele>
        <time>2014-03-15T04:40:50Z</time>
      </trkpt>
      <trkpt lat="53.86053" lon="27.483885">
        <ele>255.0</ele>
        <time>2014-03-15T04:40:53Z</time>
      </trkpt>
      <trkpt lat="53.860282" lon="27.48423">
        <ele>256.3</ele>
        <time>2014-03-15T04:40:59Z</time>
      </trkpt>
      <trkpt lat="53.86001" lon="27.484612">
        <ele>257.7</ele>
        <time>2014-03-15T04:41:06Z</time>
      </trkpt>
      <trkpt lat="53.859557" lon="27.484766">
        <ele>262.4</ele>
        <time>2014-03-15T04:41:14Z</time>
      </trkpt>
      <trkpt lat="53.859267" lon="27.484445">
        <ele>262.2</ele>
        <time>2014-03-15T04:41:20Z</time>
      </trkpt>
      <trkpt lat="53.859025" lon="27.484427">
        <ele>258.5</ele>
        <time>2014-03-15T04:41:26Z</time>
      </trkpt>
      <trkpt lat="53.858836" lon="27.484394">
        <ele>258.2</ele>
        <time>2014-03-15T04:41:32Z</time>
      </trkpt>
      <trkpt lat="53.858456" lon="27.484417">
        <ele>259.0</ele>
        <time>2014-03-15T04:41:40Z</time>
      </trkpt>
      <trkpt lat="53.858131" lon="27.484146">
        <ele>258.2</ele>
        <time>2014-03-15T04:41:46Z</time>
      </trkpt>
      <trkpt lat="53.857927" lon="27.483892">
        <ele>260.6</ele>
        <time>2014-03-15T04:41:51Z</time>
      </trkpt>
      <trkpt lat="53.857762" lon="27.483768">
        <ele>259.1</ele>
        <time>2014-03-15T04:41:54Z</time>
      </trkpt>
      <trkpt lat="53.857413" lon="27.483858">
        <ele>258.9</ele>
        <time>2014-03-15T04:42:00Z</time>
      </trkpt>
      <trkpt lat="53.857083" lon="27.483977">
        <ele>258.4</ele>
        <time>2014-03-15T04:42:05Z</time>
      </trkpt>
      <trkpt lat="53.856794" lon="27.484138">
        <ele>254.5</ele>
        <time>2014-03-15T04:42:11Z</time>
      </trkpt>
      <trkpt lat="53.856698" lon="27.484459">
        <ele>252.4</ele>
        <time>2014-03-15T04:42:16Z</time>
      </trkpt>
      <trkpt lat="53.856383" lon="27.485002">
        <ele>246.9</ele>
        <time>2014-03-15T04:42:26Z</time>
      </trkpt>
      <trkpt lat="53.856205" lon="27.485252">
        <ele>246.3</ele>
        <time>2014-03-15T04:42:32Z</time>
      </trkpt>
      <trkpt lat="53.856044" lon="27.485627">
        <ele>248.0</ele>
        <time>2014-03-15T04:42:37Z</time>
      </trkpt>
      <trkpt lat="53.855799" lon="27.486031">
        <ele>246.7</ele>
        <time>2014-03-15T04:42:42Z</time>
      </trkpt>
      <trkpt lat="53.855445" lon="27.486521">
        <ele>242.8</ele>
        <time>2014-03-15T04:42:48Z</time>
      </trkpt>
      <trkpt lat="53.855285" lon="27.486733">
        <ele>242.2</ele>
        <time>2014-03-15T04:42:51Z</time>
      </trkpt>
      <trkpt lat="53.855157" lon="27.486557">
        <ele>243.3</ele>
        <time>2014-03-15T04:42:58Z</time>
      </trkpt>
      <trkpt lat="53.855059" lon="27.486326">
        <ele>244.2</ele>
        <time>2014-03-15T04:43:03Z</time>
      </trkpt>
      <trkpt lat="53.854802" lon="27.486517">
        <ele>242.2</ele>
        <time>2014-03-15T04:43:11Z</time>
      </trkpt>
      <trkpt lat="53.854667" lon="27.486718">
        <ele>241.8</ele>
        <time>2014-03-15T04:43:14Z</time>
      </trkpt>
      <trkpt lat="53.854415" lon="27.487033">
        <ele>240.2</ele>
        <time>2014-03-15T04:43:19Z</time>
      </trkpt>
      <trkpt lat="53.854103" lon="27.487397">
        <ele>240.0</ele>
        <time>2014-03-15T04:43:25Z</time>
      </trkpt>
      <trkpt lat="53.853854" lon="27.487727">
        <ele>238.6</ele>
        <time>2014-03-15T04:43:31Z</time>
      </trkpt>
      <trkpt lat="53.853755" lon="27.487887">
        <ele>237.8</ele>
        <time>2014-03-15T04:43:34Z</time>
      </trkpt>
      <trkpt lat="53.853597" lon="27.487875">
        <ele>238.0</ele>
        <time>2014-03-15T04:43:41Z</time>
      </trkpt>
      <trkpt lat="53.853513" lon="27.48746">
        <ele>237.9</ele>
        <time>2014-03-15T04:43:47Z</time>
      </trkpt>
      <trkpt lat="53.853428" lon="27.487064">
        <ele>238.9</ele>
        <time>2014-03-15T04:43:52Z</time>
      </trkpt>
      <trkpt lat="53.853364" lon="27.486834">
        <ele>240.4</ele>
        <time>2014-03-15T04:43:55Z</time>
      </trkpt>
      <trkpt lat="53.853168" lon="27.48647">
        <ele>242.8</ele>
        <time>2014-03-15T04:44:01Z</time>
      </trkpt>
      <trkpt lat="53.852925" lon="27.486227">
        <ele>243.2</ele>
        <time>2014-03-15T04:44:07Z</time>
      </trkpt>
      <trkpt lat="53.85268" lon="27.486116">
        <ele>243.8</ele>
        <time>2014-03-15T04:44:12Z</time>
      </trkpt>
      <trkpt lat="53.85242" lon="27.486114">
        <ele>242.6</ele>
        <time>2014-03-15T04:44:17Z</time>
      </trkpt>
      <trkpt lat="53.852074" lon="27.486239">
        <ele>244.0</ele>
        <time>2014-03-15T04:44:23Z</time>
      </trkpt>
      <trkpt lat="53.851709" lon="27.486374">
        <ele>241.4</ele>
        <time>2014-03-15T04:44:29Z</time>
      </trkpt>
      <trkpt lat="53.851421" lon="27.486512">
        <ele>239.5</ele>
        <time>2014-03-15T04:44:34Z</time>
      </trkpt>
      <trkpt lat="53.851201" lon="27.486732">
        <ele>238.6</ele>
        <time>2014-03-15T04:44:39Z</time>
      </trkpt>
      <trkpt lat="53.850881" lon="27.486777">
        <ele>237.5</ele>
        <time>2014-03-15T04:44:45Z</time>
      </trkpt>
      <trkpt lat="53.85064" lon="27.48628">
        <ele>238.5</ele>
        <time>2014-03-15T04:44:51Z</time>
      </trkpt>
      <trkpt lat="53.850516" lon="27.486013">
        <ele>238.1</ele>
        <time>2014-03-15T04:44:54Z</time>
      </trkpt>
      <trkpt lat="53.85029" lon="27.485465">
        <ele>240.1</ele>
        <time>2014-03-15T04:45:00Z</time>
      </trkpt>
      <trkpt lat="53.850041" lon="27.484945">
        <ele>241.6</ele>
        <time>2014-03-15T04:45:06Z</time>
      </trkpt>
      <trkpt lat="53.849914" lon="27.484686">
        <ele>241.4</ele>
        <time>2014-03-15T04:45:09Z</time>
      </trkpt>
      <trkpt lat="53.849783" lon="27.484467">
        <ele>242.3</ele>
        <time>2014-03-15T04:45:12Z</time>
      </trkpt>
      <trkpt lat="53.84966" lon="27.484252">
        <ele>242.1</ele>
        <time>2014-03-15T04:45:15Z</time>
      </trkpt>
      <trkpt lat="53.849432" lon="27.48385">
        <ele>244.1</ele>
        <time>2014-03-15T04:45:21Z</time>
      </trkpt>
      <trkpt lat="53.849258" lon="27.4835">
        <ele>246.0</ele>
        <time>2014-03-15T04:45:26Z</time>
      </trkpt>
      <trkpt lat="53.849043" lon="27.483127">
        <ele>249.0</ele>
        <time>2014-03-15T04:45:32Z</time>
      </trkpt>
      <trkpt lat="53.848853" lon="27.482794">
        <ele>248.2</ele>
        <time>2014-03-15T04:45:38Z</time>
      </trkpt>
      <trkpt lat="53.848735" lon="27.482549">
        <ele>250.1</ele>
        <time>2014-03-15T04:45:45Z</time>
      </trkpt>
      <trkpt lat="53.848713" lon="27.482477">
        <ele>250.0</ele>
        <time>2014-03-15T04:45:47Z</time>
      </trkpt>
      <trkpt lat="53.848713" lon="27.482477">
        <time>2014-03-15T04:45:53Z</time>
      </trkpt>
    </trkseg>
    <trkseg>
      <trkpt lat="53.848713" lon="27.482477">
        <time>2014-03-15T04:46:53Z</time>
      </trkpt>
      <trkpt lat="53.848535" lon="27.482248">
        <ele>251.3</ele>
        <time>2014-03-15T04:46:53Z</time>
      </trkpt>
      <trkpt lat="53.848411" lon="27.482514">
        <ele>249.4</ele>
        <time>2014-03-15T04:46:59Z</time>
      </trkpt>
      <trkpt lat="53.848292" lon="27.482879">
        <ele>248.6</ele>
        <time>2014-03-15T04:47:05Z</time>
      </trkpt>
      <trkpt lat="53.848134" lon="27.483327">
        <ele>249.6</ele>
        <time>2014-03-15T04:47:11Z</time>
      </trkpt>
      <trkpt lat="53.847994" lon="27.483685">
        <ele>253.2</ele>
        <time>2014-03-15T04:47:16Z</time>
      </trkpt>
      <trkpt lat="53.847815" lon="27.484101">
        <ele>253.8</ele>
        <time>2014-03-15T04:47:22Z</time>
      </trkpt>
      <trkpt lat="53.847714" lon="27.484309">
        <ele>253.8</ele>
        <time>2014-03-15T04:47:25Z</time>
      </trkpt>
      <trkpt lat="53.84759" lon="27.48459">
        <ele>253.6</ele>
        <time>2014-03-15T04:47:29Z</time>
      </trkpt>
      <trkpt lat="53.847366" lon="27.4848">
        <ele>254.2</ele>
        <time>2014-03-15T04:47:35Z</time>
      </trkpt>
      <trkpt lat="53.847145" lon="27.484622">
        <ele>257.3</ele>
        <time>2014-03-15T04:47:41Z</time>
      </trkpt>
      <trkpt lat="53.846978" lon="27.484354">
        <ele>257.3</ele>
        <time>2014-03-15T04:47:46Z</time>
      </trkpt>
      <trkpt lat="53.846738" lon="27.484113">
        <ele>257.4</ele>
        <time>2014-03-15T04:47:52Z</time>
      </trkpt>
      <trkpt lat="53.846509" lon="27.483728">
        <ele>256.1</ele>
        <time>2014-03-15T04:47:58Z</time>
      </trkpt>
      <trkpt lat="53.846294" lon="27.483335">
        <ele>256.3</ele>
        <time>2014-03-15T04:48:04Z</time>
      </trkpt>
      <trkpt lat="53.846072" lon="27.482964">
        <ele>256.3</ele>
        <time>2014-03-15T04:48:10Z</time>
      </trkpt>
      <trkpt lat="53.845812" lon="27.482558">
        <ele>258.7</ele>
        <time>2014-03-15T04:48:17Z</time>
      </trkpt>
      <trkpt lat="53.845587" lon="27.482198">
        <ele>257.9</ele>
        <time>2014-03-15T04:48:23Z</time>
      </trkpt>
      <trkpt lat="53.84547" lon="27.482002">
        <ele>258.1</ele>
        <time>2014-03-15T04:48:26Z</time>
      </trkpt>
      <trkpt lat="53.845282" lon="27.481693">
        <ele>257.5</ele>
        <time>2014-03-15T04:48:31Z</time>
      </trkpt>
      <trkpt lat="53.845068" lon="27.481123">
        <ele>260.3</ele>
        <time>2014-03-15T04:48:39Z</time>
      </trkpt>
      <trkpt lat="53.845047" lon="27.480652">
        <ele>264.0</ele>
        <time>2014-03-15T04:48:45Z</time>
      </trkpt>
      <trkpt lat="53.844997" lon="27.480232">
        <ele>261.0</ele>
        <time>2014-03-15T04:48:51Z</time>
      </trkpt>
      <trkpt lat="53.84489" lon="27.48004">
        <ele>259.5</ele>
        <time>2014-03-15T04:48:57Z</time>
      </trkpt>
      <trkpt lat="53.844643" lon="27.479936">
        <ele>260.8</ele>
        <time>2014-03-15T04:49:04Z</time>
      </trkpt>
      <trkpt lat="53.844359" lon="27.479803">
        <ele>264.3</ele>
        <time>2014-03-15T04:49:11Z</time>
      </trkpt>
      <trkpt lat="53.844067" lon="27.479695">
        <ele>265.7</ele>
        <time>2014-03-15T04:49:18Z</time>
      </trkpt>
      <trkpt lat="53.843795" lon="27.479601">
        <ele>264.6</ele>
        <time>2014-03-15T04:49:24Z</time>
      </trkpt>
      <trkpt lat="53.843554" lon="27.479519">
        <ele>262.9</ele>
        <time>2014-03-15T04:49:29Z</time>
      </trkpt>
      <trkpt lat="53.843283" lon="27.479375">
        <ele>261.2</ele>
        <time>2014-03-15T04:49:35Z</time>
      </trkpt>
      <trkpt lat="53.843047" lon="27.479274">
        <ele>262.3</ele>
        <time>2014-03-15T04:49:41Z</time>
      </trkpt>
      <trkpt lat="53.842961" lon="27.479015">
        <ele>263.8</ele>
        <time>2014-03-15T04:49:49Z</time>
      </trkpt>
      <trkpt lat="53.842635" lon="27.478883">
        <ele>263.8</ele>
        <time>2014-03-15T04:49:58Z</time>
      </trkpt>
      <trkpt lat="53.842465" lon="27.478809">
        <ele>262.7</ele>
        <time>2014-03-15T04:50:02Z</time>
      </trkpt>
      <trkpt lat="53.842248" lon="27.478716">
        <ele>264.3</ele>
        <time>2014-03-15T04:50:07Z</time>
      </trkpt>
      <trkpt lat="53.841972" lon="27.478615">
        <ele>266.8</ele>
        <time>2014-03-15T04:50:13Z</time>
      </trkpt>
      <trkpt lat="53.841764" lon="27.478507">
        <ele>267.0</ele>
        <time>2014-03-15T04:50:19Z</time>
      </trkpt>
      <trkpt lat="53.841714" lon="27.478527">
        <ele>266.7</ele>
        <time>2014-03-15T04:50:21Z</time>
      </trkpt>
      <trkpt lat="53.841714" lon="27.478527">
        <time>2014-03-15T04:50:27Z</time>
      </trkpt>
    </trkseg>
    <trkseg>
      <trkpt lat="53.841714" lon="27.478527">
        <time>2014-03-15T04:50:47Z</time>
      </trkpt>
      <trkpt lat="53.841631" lon="27.47865">
        <ele>265.4</ele>
        <time>2014-03-15T04:50:47Z</time>
      </trkpt>
      <trkpt lat="53.841481" lon="27.478736">
        <ele>265.4</ele>
        <time>2014-03-15T04:50:53Z</time>
      </trkpt>
      <trkpt lat="53.841218" lon="27.47881">
        <ele>263.8</ele>
        <time>2014-03-15T04:51:01Z</time>
      </trkpt>
      <trkpt lat="53.84096" lon="27.47841">
        <ele>264.3</ele>
        <time>2014-03-15T04:51:07Z</time>
      </trkpt>
      <trkpt lat="53.840732" lon="27.478154">
        <ele>266.3</ele>
        <time>2014-03-15T04:51:14Z</time>
      </trkpt>
      <trkpt lat="53.840657" lon="27.477746">
        <ele>275.9</ele>
        <time>2014-03-15T04:51:20Z</time>
      </trkpt>
      <trkpt lat="53.84053" lon="27.477243">
        <ele>274.8</ele>
        <time>2014-03-15T04:51:27Z</time>
      </trkpt>
      <trkpt lat="53.840344" lon="27.476782">
        <ele>280.6</ele>
        <time>2014-03-15T04:51:34Z</time>
      </trkpt>
      <trkpt lat="53.840124" lon="27.476478">
        <ele>279.7</ele>
        <time>2014-03-15T04:51:40Z</time>
      </trkpt>
      <trkpt lat="53.839867" lon="27.476043">
        <ele>274.9</ele>
        <time>2014-03-15T04:51:46Z</time>
      </trkpt>
      <trkpt lat="53.839746" lon="27.47584">
        <ele>272.7</ele>
        <time>2014-03-15T04:51:49Z</time>
      </trkpt>
      <trkpt lat="53.839606" lon="27.475664">
        <ele>271.3</ele>
        <time>2014-03-15T04:51:52Z</time>
      </trkpt>
      <trkpt lat="53.839391" lon="27.475295">
        <ele>270.4</ele>
        <time>2014-03-15T04:51:57Z</time>
      </trkpt>
      <trkpt lat="53.839205" lon="27.47499">
        <ele>270.2</ele>
        <time>2014-03-15T04:52:01Z</time>
      </trkpt>
      <trkpt lat="53.838975" lon="27.474662">
        <ele>269.1</ele>
        <time>2014-03-15T04:52:06Z</time>
      </trkpt>
      <trkpt lat="53.838738" lon="27.474323">
        <ele>266.4</ele>
        <time>2014-03-15T04:52:11Z</time>
      </trkpt>
      <trkpt lat="53.838495" lon="27.47395">
        <ele>270.6</ele>
        <time>2014-03-15T04:52:17Z</time>
      </trkpt>
      <trkpt lat="53.838261" lon="27.473624">
        <ele>269.7</ele>
        <time>2014-03-15T04:52:23Z</time>
      </trkpt>
      <trkpt lat="53.83805" lon="27.473335">
        <ele>272.7</ele>
        <time>2014-03-15T04:52:29Z</time>
      </trkpt>
      <trkpt lat="53.837825" lon="27.473133">
        <ele>272.6</ele>
        <time>2014-03-15T04:52:35Z</time>
      </trkpt>
      <trkpt lat="53.837662" lon="27.473289">
        <ele>272.8</ele>
        <time>2014-03-15T04:52:41Z</time>
      </trkpt>
      <trkpt lat="53.837488" lon="27.473603">
        <ele>271.3</ele>
        <time>2014-03-15T04:52:48Z</time>
      </trkpt>
      <trkpt lat="53.83726" lon="27.473645">
        <ele>270.1</ele>
        <time>2014-03-15T04:52:53Z</time>
      </trkpt>
      <trkpt lat="53.837053" lon="27.473668">
        <ele>266.7</ele>
        <time>2014-03-15T04:52:57Z</time>
      </trkpt>
      <trkpt lat="53.836897" lon="27.473765">
        <ele>267.7</ele>
        <time>2014-03-15T04:53:00Z</time>
      </trkpt>
      <trkpt lat="53.836618" lon="27.473859">
        <ele>265.1</ele>
        <time>2014-03-15T04:53:06Z</time>
      </trkpt>
      <trkpt lat="53.836353" lon="27.473737">
        <ele>263.1</ele>
        <time>2014-03-15T04:53:12Z</time>
      </trkpt>
      <trkpt lat="53.836077" lon="27.473581">
        <ele>263.4</ele>
        <time>2014-03-15T04:53:18Z</time>
      </trkpt>
      <trkpt lat="53.835843" lon="27.473414">
        <ele>264.6</ele>
        <time>2014-03-15T04:53:24Z</time>
      </trkpt>
      <trkpt lat="53.83576" lon="27.47373">
        <ele>265.2</ele>
        <time>2014-03-15T04:53:32Z</time>
      </trkpt>
      <trkpt lat="53.835705" lon="27.47409">
        <ele>272.4</ele>
        <time>2014-03-15T04:53:38Z</time>
      </trkpt>
      <trkpt lat="53.835684" lon="27.474407">
        <ele>273.3</ele>
        <time>2014-03-15T04:53:43Z</time>
      </trkpt>
      <trkpt lat="53.835612" lon="27.474865">
        <ele>273.5</ele>
        <time>2014-03-15T04:53:51Z</time>
      </trkpt>
      <trkpt lat="53.835547" lon="27.475044">
        <ele>271.2</ele>
        <time>2014-03-15T04:53:56Z</time>
      </trkpt>
      <trkpt lat="53.835563" lon="27.475138">
        <ele>270.2</ele>
        <time>2014-03-15T04:53:59Z</time>
      </trkpt>
      <trkpt lat="53.835563" lon="27.475138">
        <time>2014-03-15T04:54:04Z</time>
      </trkpt>
    </trkseg>
    <trkseg>
      <trkpt lat="53.835563" lon="27.475138">
        <time>2014-03-15T04:55:16Z</time>
      </trkpt>
      <trkpt lat="53.835634" lon="27.475444">
        <ele>266.5</ele>
        <time>2014-03-15T04:55:16Z</time>
      </trkpt>
      <trkpt lat="53.835483" lon="27.475624">
        <ele>274.0</ele>
        <time>2014-03-15T04:55:24Z</time>
      </trkpt>
      <trkpt lat="53.835461" lon="27.475843">
        <ele>263.2</ele>
        <time>2014-03-15T04:55:30Z</time>
      </trkpt>
      <trkpt lat="53.835558" lon="27.476382">
        <ele>261.4</ele>
        <time>2014-03-15T04:55:37Z</time>
      </trkpt>
      <trkpt lat="53.835626" lon="27.476801">
        <ele>259.0</ele>
        <time>2014-03-15T04:55:43Z</time>
      </trkpt>
      <trkpt lat="53.835642" lon="27.47719">
        <ele>262.7</ele>
        <time>2014-03-15T04:55:48Z</time>
      </trkpt>
      <trkpt lat="53.835502" lon="27.477209">
        <ele>260.1</ele>
        <time>2014-03-15T04:55:54Z</time>
      </trkpt>
      <trkpt lat="53.835334" lon="27.47704">
        <ele>255.8</ele>
        <time>2014-03-15T04:56:01Z</time>
      </trkpt>
      <trkpt lat="53.835003" lon="27.476897">
        <ele>261.9</ele>
        <time>2014-03-15T04:56:09Z</time>
      </trkpt>
      <trkpt lat="53.834857" lon="27.476748">
        <ele>260.9</ele>
        <time>2014-03-15T04:56:15Z</time>
      </trkpt>
      <trkpt lat="53.834652" lon="27.476508">
        <ele>258.4</ele>
        <time>2014-03-15T04:56:22Z</time>
      </trkpt>
      <trkpt lat="53.834475" lon="27.476353">
        <ele>260.2</ele>
        <time>2014-03-15T04:56:29Z</time>
      </trkpt>
      <trkpt lat="53.834194" lon="27.476038">
        <ele>262.5</ele>
        <time>2014-03-15T04:56:37Z</time>
      </trkpt>
      <trkpt lat="53.833964" lon="27.475903">
        <ele>263.5</ele>
        <time>2014-03-15T04:56:43Z</time>
      </trkpt>
      <trkpt lat="53.83373" lon="27.475723">
        <ele>268.0</ele>
        <time>2014-03-15T04:56:51Z</time>
      </trkpt>
      <trkpt lat="53.833478" lon="27.47547">
        <ele>267.4</ele>
        <time>2014-03-15T04:57:01Z</time>
      </trkpt>
      <trkpt lat="53.833202" lon="27.475176">
        <ele>281.4</ele>
        <time>2014-03-15T04:57:10Z</time>
      </trkpt>
      <trkpt lat="53.832973" lon="27.474923">
        <ele>293.2</ele>
        <time>2014-03-15T04:57:17Z</time>
      </trkpt>
      <trkpt lat="53.832739" lon="27.474521">
        <ele>294.2</ele>
        <time>2014-03-15T04:57:25Z</time>
      </trkpt>
      <trkpt lat="53.832491" lon="27.474242">
        <ele>292.9</ele>
        <time>2014-03-15T04:57:31Z</time>
      </trkpt>
      <trkpt lat="53.832194" lon="27.473938">
        <ele>295.2</ele>
        <time>2014-03-15T04:57:40Z</time>
      </trkpt>
      <trkpt lat="53.831917" lon="27.473635">
        <ele>291.5</ele>
        <time>2014-03-15T04:57:47Z</time>
      </trkpt>
      <trkpt lat="53.831804" lon="27.473575">
        <ele>292.4</ele>
        <time>2014-03-15T04:57:50Z</time>
      </trkpt>
      <trkpt lat="53.831804" lon="27.473575">
        <time>2014-03-15T04:57:55Z</time>
      </trkpt>
    </trkseg>
    <trkseg>
      <trkpt lat="53.831804" lon="27.473575">
        <time>2014-03-15T04:58:36Z</time>
      </trkpt>
      <trkpt lat="53.831663" lon="27.473044">
        <ele>289.9</ele>
        <time>2014-03-15T04:58:36Z</time>
      </trkpt>
      <trkpt lat="53.831522" lon="27.47294">
        <ele>290.2</ele>
        <time>2014-03-15T04:58:44Z</time>
      </trkpt>
      <trkpt lat="53.831339" lon="27.472884">
        <ele>285.7</ele>
        <time>2014-03-15T04:58:54Z</time>
      </trkpt>
      <trkpt lat="53.83121" lon="27.472678">
        <ele>287.4</ele>
        <time>2014-03-15T04:59:00Z</time>
      </trkpt>
      <trkpt lat="53.83121" lon="27.472678">
        <ele>287.4</ele>
        <time>2014-03-15T04:59:05Z</time>
      </trkpt>
      <trkpt lat="53.83121" lon="27.472678">
        <time>2014-03-15T04:59:05Z</time>
      </trkpt>
    </trkseg>
    <trkseg>
      <trkpt lat="53.83121" lon="27.472678">
        <time>2014-03-15T04:59:21Z</time>
      </trkpt>
      <trkpt lat="53.83109" lon="27.472469">
        <ele>277.5</ele>
        <time>2014-03-15T04:59:21Z</time>
      </trkpt>
      <trkpt lat="53.830826" lon="27.472082">
        <ele>276.7</ele>
        <time>2014-03-15T04:59:31Z</time>
      </trkpt>
      <trkpt lat="53.830593" lon="27.471842">
        <ele>276.1</ele>
        <time>2014-03-15T04:59:37Z</time>
      </trkpt>
      <trkpt lat="53.830378" lon="27.471528">
        <ele>271.0</ele>
        <time>2014-03-15T04:59:44Z</time>
      </trkpt>
      <trkpt lat="53.830092" lon="27.471186">
        <ele>271.6</ele>
        <time>2014-03-15T04:59:52Z</time>
      </trkpt>
      <trkpt lat="53.829945" lon="27.470795">
        <ele>268.5</ele>
        <time>2014-03-15T04:59:59Z</time>
      </trkpt>
      <trkpt lat="53.82966" lon="27.470439">
        <ele>271.1</ele>
        <time>2014-03-15T05:00:06Z</time>
      </trkpt>
      <trkpt lat="53.829368" lon="27.470077">
        <ele>273.7</ele>
        <time>2014-03-15T05:00:13Z</time>
      </trkpt>
      <trkpt lat="53.829194" lon="27.469834">
        <ele>277.3</ele>
        <time>2014-03-15T05:00:18Z</time>
      </trkpt>
      <trkpt lat="53.828918" lon="27.469639">
        <ele>275.6</ele>
        <time>2014-03-15T05:00:24Z</time>
      </trkpt>
      <trkpt lat="53.828671" lon="27.469307">
        <ele>274.0</ele>
        <time>2014-03-15T05:00:31Z</time>
      </trkpt>
      <trkpt lat="53.828539" lon="27.469028">
        <ele>272.1</ele>
        <time>2014-03-15T05:00:36Z</time>
      </trkpt>
      <trkpt lat="53.828384" lon="27.468869">
        <ele>273.6</ele>
        <time>2014-03-15T05:00:43Z</time>
      </trkpt>
      <trkpt lat="53.828183" lon="27.468743">
        <ele>272.8</ele>
        <time>2014-03-15T05:00:50Z</time>
      </trkpt>
      <trkpt lat="53.827947" lon="27.468507">
        <ele>272.7</ele>
        <time>2014-03-15T05:00:56Z</time>
      </trkpt>
      <trkpt lat="53.827646" lon="27.468037">
        <ele>273.8</ele>
        <time>2014-03-15T05:01:06Z</time>
      </trkpt>
      <trkpt lat="53.827298" lon="27.467699">
        <ele>287.3</ele>
        <time>2014-03-15T05:01:14Z</time>
      </trkpt>
      <trkpt lat="53.827129" lon="27.467442">
        <ele>291.5</ele>
        <time>2014-03-15T05:01:19Z</time>
      </trkpt>
      <trkpt lat="53.826882" lon="27.467136">
        <ele>284.2</ele>
        <time>2014-03-15T05:01:26Z</time>
      </trkpt>
      <trkpt lat="53.82676" lon="27.466864">
        <ele>281.3</ele>
        <time>2014-03-15T05:01:31Z</time>
      </trkpt>
      <trkpt lat="53.826546" lon="27.466579">
        <ele>281.6</ele>
        <time>2014-03-15T05:01:36Z</time>
      </trkpt>
      <trkpt lat="53.826325" lon="27.466301">
        <ele>280.2</ele>
        <time>2014-03-15T05:01:41Z</time>
      </trkpt>
      <trkpt lat="53.826078" lon="27.466023">
        <ele>284.1</ele>
        <time>2014-03-15T05:01:47Z</time>
      </trkpt>
      <trkpt lat="53.825828" lon="27.465723">
        <ele>280.6</ele>
        <time>2014-03-15T05:01:53Z</time>
      </trkpt>
      <trkpt lat="53.82564" lon="27.465483">
        <ele>274.1</ele>
        <time>2014-03-15T05:01:59Z</time>
      </trkpt>
      <trkpt lat="53.825486" lon="27.46526">
        <ele>278.3</ele>
        <time>2014-03-15T05:02:04Z</time>
      </trkpt>
      <trkpt lat="53.825253" lon="27.464818">
        <ele>275.2</ele>
        <time>2014-03-15T05:02:10Z</time>
      </trkpt>
      <trkpt lat="53.825051" lon="27.464534">
        <ele>274.5</ele>
        <time>2014-03-15T05:02:16Z</time>
      </trkpt>
      <trkpt lat="53.824839" lon="27.464322">
        <ele>273.7</ele>
        <time>2014-03-15T05:02:23Z</time>
      </trkpt>
      <trkpt lat="53.824654" lon="27.464081">
        <ele>273.4</ele>
        <time>2014-03-15T05:02:31Z</time>
      </trkpt>
      <trkpt lat="53.824404" lon="27.463985">
        <ele>284.8</ele>
        <time>2014-03-15T05:02:37Z</time>
      </trkpt>
      <trkpt lat="53.824179" lon="27.463592">
        <ele>282.0</ele>
        <time>2014-03-15T05:02:44Z</time>
      </trkpt>
      <trkpt lat="53.824016" lon="27.463295">
        <ele>285.9</ele>
        <time>2014-03-15T05:02:50Z</time>
      </trkpt>
      <trkpt lat="53.82383" lon="27.463022">
        <ele>281.4</ele>
        <time>2014-03-15T05:02:55Z</time>
      </trkpt>
      <trkpt lat="53.823647" lon="27.462807">
        <ele>288.6</ele>
        <time>2014-03-15T05:03:00Z</time>
      </trkpt>
      <trkpt lat="53.823441" lon="27.462552">
        <ele>283.9</ele>
        <time>2014-03-15T05:03:05Z</time>
      </trkpt>
      <trkpt lat="53.823238" lon="27.462287">
        <ele>281.8</ele>
        <time>2014-03-15T05:03:10Z</time>
      </trkpt>
      <trkpt lat="53.823009" lon="27.461914">
        <ele>287.6</ele>
        <time>2014-03-15T05:03:17Z</time>
      </trkpt>
      <trkpt lat="53.822766" lon="27.461561">
        <ele>286.8</ele>
        <time>2014-03-15T05:03:24Z</time>
      </trkpt>
      <trkpt lat="53.822602" lon="27.461306">
        <ele>284.0</ele>
        <time>2014-03-15T05:03:29Z</time>
      </trkpt>
      <trkpt lat="53.822351" lon="27.461095">
        <ele>284.5</ele>
        <time>2014-03-15T05:03:34Z</time>
      </trkpt>
      <trkpt lat="53.822163" lon="27.460929">
        <ele>278.6</ele>
        <time>2014-03-15T05:03:40Z</time>
      </trkpt>
      <trkpt lat="53.822038" lon="27.460798">
        <ele>271.3</ele>
        <time>2014-03-15T05:03:47Z</time>
      </trkpt>
      <trkpt lat="53.821895" lon="27.460787">
        <ele>263.4</ele>
        <time>2014-03-15T05:03:57Z</time>
      </trkpt>
      <trkpt lat="53.821771" lon="27.460708">
        <ele>266.4</ele>
        <time>2014-03-15T05:04:05Z</time>
      </trkpt>
      <trkpt lat="53.821563" lon="27.46069">
        <ele>263.7</ele>
        <time>2014-03-15T05:04:14Z</time>
      </trkpt>
      <trkpt lat="53.821418" lon="27.460504">
        <ele>268.2</ele>
        <time>2014-03-15T05:04:20Z</time>
      </trkpt>
      <trkpt lat="53.821288" lon="27.46037">
        <ele>267.4</ele>
        <time>2014-03-15T05:04:25Z</time>
      </trkpt>
      <trkpt lat="53.821133" lon="27.460221">
        <ele>266.2</ele>
        <time>2014-03-15T05:04:31Z</time>
      </trkpt>
      <trkpt lat="53.820983" lon="27.460032">
        <ele>267.6</ele>
        <time>2014-03-15T05:04:37Z</time>
      </trkpt>
      <trkpt lat="53.82076" lon="27.459827">
        <ele>270.2</ele>
        <time>2014-03-15T05:04:47Z</time>
      </trkpt>
      <trkpt lat="53.820562" lon="27.460276">
        <ele>267.3</ele>
        <time>2014-03-15T05:04:57Z</time>
      </trkpt>
      <trkpt lat="53.820404" lon="27.460576">
        <ele>269.0</ele>
        <time>2014-03-15T05:05:03Z</time>
      </trkpt>
      <trkpt lat="53.820377" lon="27.461043">
        <ele>268.7</ele>
        <time>2014-03-15T05:05:09Z</time>
      </trkpt>
      <trkpt lat="53.82049" lon="27.461567">
        <ele>268.1</ele>
        <time>2014-03-15T05:05:15Z</time>
      </trkpt>
      <trkpt lat="53.820221" lon="27.461996">
        <ele>265.5</ele>
        <time>2014-03-15T05:05:21Z</time>
      </trkpt>
      <trkpt lat="53.819953" lon="27.462339">
        <ele>264.3</ele>
        <time>2014-03-15T05:05:26Z</time>
      </trkpt>
      <trkpt lat="53.819627" lon="27.462729">
        <ele>264.8</ele>
        <time>2014-03-15T05:05:32Z</time>
      </trkpt>
      <trkpt lat="53.819283" lon="27.463113">
        <ele>263.3</ele>
        <time>2014-03-15T05:05:38Z</time>
      </trkpt>
      <trkpt lat="53.818953" lon="27.463491">
        <ele>264.4</ele>
        <time>2014-03-15T05:05:44Z</time>
      </trkpt>
      <trkpt lat="53.818664" lon="27.463866">
        <ele>261.3</ele>
        <time>2014-03-15T05:05:49Z</time>
      </trkpt>
      <trkpt lat="53.818495" lon="27.46409">
        <ele>260.3</ele>
        <time>2014-03-15T05:05:52Z</time>
      </trkpt>
      <trkpt lat="53.818154" lon="27.464487">
        <ele>262.2</ele>
        <time>2014-03-15T05:05:58Z</time>
      </trkpt>
      <trkpt lat="53.817981" lon="27.464674">
        <ele>262.6</ele>
        <time>2014-03-15T05:06:01Z</time>
      </trkpt>
      <trkpt lat="53.817825" lon="27.46485">
        <ele>263.1</ele>
        <time>2014-03-15T05:06:04Z</time>
      </trkpt>
      <trkpt lat="53.817586" lon="27.465141">
        <ele>263.2</ele>
        <time>2014-03-15T05:06:09Z</time>
      </trkpt>
      <trkpt lat="53.817435" lon="27.465305">
        <ele>263.2</ele>
        <time>2014-03-15T05:06:12Z</time>
      </trkpt>
      <trkpt lat="53.81714" lon="27.465647">
        <ele>264.7</ele>
        <time>2014-03-15T05:06:18Z</time>
      </trkpt>
      <trkpt lat="53.816996" lon="27.465801">
        <ele>264.6</ele>
        <time>2014-03-15T05:06:21Z</time>
      </trkpt>
      <trkpt lat="53.816762" lon="27.46607">
        <ele>263.2</ele>
        <time>2014-03-15T05:06:26Z</time>
      </trkpt>
      <trkpt lat="53.816505" lon="27.466401">
        <ele>265.3</ele>
        <time>2014-03-15T05:06:32Z</time>
      </trkpt>
      <trkpt lat="53.816234" lon="27.466728">
        <ele>265.7</ele>
        <time>2014-03-15T05:06:38Z</time>
      </trkpt>
      <trkpt lat="53.815976" lon="27.467077">
        <ele>266.5</ele>
        <time>2014-03-15T05:06:44Z</time>
      </trkpt>
      <trkpt lat="53.815707" lon="27.46742">
        <ele>267.2</ele>
        <time>2014-03-15T05:06:50Z</time>
      </trkpt>
      <trkpt lat="53.81542" lon="27.46776">
        <ele>267.2</ele>
        <time>2014-03-15T05:06:56Z</time>
      </trkpt>
      <trkpt lat="53.815189" lon="27.468029">
        <ele>267.3</ele>
        <time>2014-03-15T05:07:01Z</time>
      </trkpt>
      <trkpt lat="53.814928" lon="27.468357">
        <ele>268.1</ele>
        <time>2014-03-15T05:07:07Z</time>
      </trkpt>
      <trkpt lat="53.814654" lon="27.468677">
        <ele>268.2</ele>
        <time>2014-03-15T05:07:13Z</time>
      </trkpt>
      <trkpt lat="53.814368" lon="27.468998">
        <ele>268.7</ele>
        <time>2014-03-15T05:07:19Z</time>
      </trkpt>
      <trkpt lat="53.814097" lon="27.46934">
        <ele>268.3</ele>
        <time>2014-03-15T05:07:25Z</time>
      </trkpt>
      <trkpt lat="53.81387" lon="27.469615">
        <ele>267.2</ele>
        <time>2014-03-15T05:07:30Z</time>
      </trkpt>
      <trkpt lat="53.813611" lon="27.470037">
        <ele>266.3</ele>
        <time>2014-03-15T05:07:36Z</time>
      </trkpt>
      <trkpt lat="53.813723" lon="27.470632">
        <ele>264.2</ele>
        <time>2014-03-15T05:07:42Z</time>
      </trkpt>
      <trkpt lat="53.813925" lon="27.471148">
        <ele>263.3</ele>
        <time>2014-03-15T05:07:48Z</time>
      </trkpt>
      <trkpt lat="53.814111" lon="27.471702">
        <ele>266.2</ele>
        <time>2014-03-15T05:07:54Z</time>
      </trkpt>
      <trkpt lat="53.814294" lon="27.472262">
        <ele>266.9</ele>
        <time>2014-03-15T05:08:00Z</time>
      </trkpt>
      <trkpt lat="53.814389" lon="27.472708">
        <ele>267.2</ele>
        <time>2014-03-15T05:08:05Z</time>
      </trkpt>
      <trkpt lat="53.814418" lon="27.473364">
        <ele>266.4</ele>
        <time>2014-03-15T05:08:11Z</time>
      </trkpt>
      <trkpt lat="53.814323" lon="27.473995">
        <ele>267.2</ele>
        <time>2014-03-15T05:08:17Z</time>
      </trkpt>
      <trkpt lat="53.814262" lon="27.474334">
        <ele>266.4</ele>
        <time>2014-03-15T05:08:21Z</time>
      </trkpt>
      <trkpt lat="53.81417" lon="27.474898">
        <ele>266.0</ele>
        <time>2014-03-15T05:08:27Z</time>
      </trkpt>
      <trkpt lat="53.814105" lon="27.47518">
        <ele>264.5</ele>
        <time>2014-03-15T05:08:30Z</time>
      </trkpt>
      <trkpt lat="53.813991" lon="27.475878">
        <ele>265.4</ele>
        <time>2014-03-15T05:08:37Z</time>
      </trkpt>
      <trkpt lat="53.813899" lon="27.476476">
        <ele>265.5</ele>
        <time>2014-03-15T05:08:43Z</time>
      </trkpt>
      <trkpt lat="53.813793" lon="27.477111">
        <ele>265.2</ele>
        <time>2014-03-15T05:08:49Z</time>
      </trkpt>
      <trkpt lat="53.813749" lon="27.477608">
        <ele>263.4</ele>
        <time>2014-03-15T05:08:54Z</time>
      </trkpt>
      <trkpt lat="53.81364" lon="27.478193">
        <ele>262.9</ele>
        <time>2014-03-15T05:09:00Z</time>
      </trkpt>
      <trkpt lat="53.813559" lon="27.478673">
        <ele>260.4</ele>
        <time>2014-03-15T05:09:05Z</time>
      </trkpt>
      <trkpt lat="53.813462" lon="27.479267">
        <ele>259.6</ele>
        <time>2014-03-15T05:09:11Z</time>
      </trkpt>
      <trkpt lat="53.813405" lon="27.47956">
        <ele>258.6</ele>
        <time>2014-03-15T05:09:14Z</time>
      </trkpt>
      <trkpt lat="53.813331" lon="27.480057">
        <ele>258.2</ele>
        <time>2014-03-15T05:09:19Z</time>
      </trkpt>
      <trkpt lat="53.813219" lon="27.480633">
        <ele>257.6</ele>
        <time>2014-03-15T05:09:25Z</time>
      </trkpt>
      <trkpt lat="53.813164" lon="27.480932">
        <ele>258.1</ele>
        <time>2014-03-15T05:09:28Z</time>
      </trkpt>
      <trkpt lat="53.813061" lon="27.481551">
        <ele>257.6</ele>
        <time>2014-03-15T05:09:34Z</time>
      </trkpt>
      <trkpt lat="53.812946" lon="27.482213">
        <ele>257.8</ele>
        <time>2014-03-15T05:09:40Z</time>
      </trkpt>
      <trkpt lat="53.812823" lon="27.482914">
        <ele>255.7</ele>
        <time>2014-03-15T05:09:46Z</time>
      </trkpt>
      <trkpt lat="53.812713" lon="27.483495">
        <ele>254.6</ele>
        <time>2014-03-15T05:09:51Z</time>
      </trkpt>
      <trkpt lat="53.812668" lon="27.483959">
        <ele>255.3</ele>
        <time>2014-03-15T05:09:55Z</time>
      </trkpt>
      <trkpt lat="53.812599" lon="27.4843">
        <ele>254.4</ele>
        <time>2014-03-15T05:09:58Z</time>
      </trkpt>
      <trkpt lat="53.812538" lon="27.484646">
        <ele>254.0</ele>
        <time>2014-03-15T05:10:01Z</time>
      </trkpt>
      <trkpt lat="53.812476" lon="27.484991">
        <ele>252.9</ele>
        <time>2014-03-15T05:10:04Z</time>
      </trkpt>
      <trkpt lat="53.812351" lon="27.485706">
        <ele>249.8</ele>
        <time>2014-03-15T05:10:10Z</time>
      </trkpt>
      <trkpt lat="53.812219" lon="27.486494">
        <ele>246.7</ele>
        <time>2014-03-15T05:10:16Z</time>
      </trkpt>
      <trkpt lat="53.812114" lon="27.487155">
        <ele>247.3</ele>
        <time>2014-03-15T05:10:21Z</time>
      </trkpt>
      <trkpt lat="53.811961" lon="27.487935">
        <ele>248.0</ele>
        <time>2014-03-15T05:10:27Z</time>
      </trkpt>
      <trkpt lat="53.81181" lon="27.488656">
        <ele>249.0</ele>
        <time>2014-03-15T05:10:33Z</time>
      </trkpt>
      <trkpt lat="53.81178" lon="27.489051">
        <ele>245.6</ele>
        <time>2014-03-15T05:10:36Z</time>
      </trkpt>
      <trkpt lat="53.811647" lon="27.489834">
        <ele>243.1</ele>
        <time>2014-03-15T05:10:42Z</time>
      </trkpt>
      <trkpt lat="53.811561" lon="27.490542">
        <ele>241.9</ele>
        <time>2014-03-15T05:10:47Z</time>
      </trkpt>
      <trkpt lat="53.811464" lon="27.490954">
        <ele>242.2</ele>
        <time>2014-03-15T05:10:50Z</time>
      </trkpt>
      <trkpt lat="53.811328" lon="27.491803">
        <ele>242.4</ele>
        <time>2014-03-15T05:10:56Z</time>
      </trkpt>
      <trkpt lat="53.811203" lon="27.49253">
        <ele>242.8</ele>
        <time>2014-03-15T05:11:01Z</time>
      </trkpt>
      <trkpt lat="53.811145" lon="27.492892">
        <ele>243.5</ele>
        <time>2014-03-15T05:11:04Z</time>
      </trkpt>
      <trkpt lat="53.811064" lon="27.493257">
        <ele>245.6</ele>
        <time>2014-03-15T05:11:07Z</time>
      </trkpt>
      <trkpt lat="53.810947" lon="27.494104">
        <ele>245.9</ele>
        <time>2014-03-15T05:11:13Z</time>
      </trkpt>
      <trkpt lat="53.810876" lon="27.494455">
        <ele>244.9</ele>
        <time>2014-03-15T05:11:16Z</time>
      </trkpt>
      <trkpt lat="53.810753" lon="27.495176">
        <ele>242.7</ele>
        <time>2014-03-15T05:11:22Z</time>
      </trkpt>
      <trkpt lat="53.81045" lon="27.495491">
        <ele>239.6</ele>
        <time>2014-03-15T05:11:29Z</time>
      </trkpt>
      <trkpt lat="53.81019" lon="27.495117">
        <ele>238.6</ele>
        <time>2014-03-15T05:11:35Z</time>
      </trkpt>
      <trkpt lat="53.810051" lon="27.494923">
        <ele>238.6</ele>
        <time>2014-03-15T05:11:38Z</time>
      </trkpt>
      <trkpt lat="53.809923" lon="27.49474">
        <ele>239.8</ele>
        <time>2014-03-15T05:11:41Z</time>
      </trkpt>
      <trkpt lat="53.809642" lon="27.494405">
        <ele>241.0</ele>
        <time>2014-03-15T05:11:47Z</time>
      </trkpt>
      <trkpt lat="53.809506" lon="27.494212">
        <ele>241.3</ele>
        <time>2014-03-15T05:11:50Z</time>
      </trkpt>
      <trkpt lat="53.809266" lon="27.493816">
        <ele>240.0</ele>
        <time>2014-03-15T05:11:56Z</time>
      </trkpt>
      <trkpt lat="53.809034" lon="27.493387">
        <ele>241.7</ele>
        <time>2014-03-15T05:12:02Z</time>
      </trkpt>
      <trkpt lat="53.808855" lon="27.492935">
        <ele>241.6</ele>
        <time>2014-03-15T05:12:07Z</time>
      </trkpt>
      <trkpt lat="53.808595" lon="27.492301">
        <ele>241.8</ele>
        <time>2014-03-15T05:12:14Z</time>
      </trkpt>
      <trkpt lat="53.808372" lon="27.491941">
        <ele>240.6</ele>
        <time>2014-03-15T05:12:19Z</time>
      </trkpt>
      <trkpt lat="53.808143" lon="27.491477">
        <ele>242.4</ele>
        <time>2014-03-15T05:12:25Z</time>
      </trkpt>
      <trkpt lat="53.807908" lon="27.491055">
        <ele>242.5</ele>
        <time>2014-03-15T05:12:31Z</time>
      </trkpt>
      <trkpt lat="53.807648" lon="27.490642">
        <ele>243.2</ele>
        <time>2014-03-15T05:12:37Z</time>
      </trkpt>
      <trkpt lat="53.807411" lon="27.490148">
        <ele>242.6</ele>
        <time>2014-03-15T05:12:43Z</time>
      </trkpt>
      <trkpt lat="53.807171" lon="27.489727">
        <ele>240.4</ele>
        <time>2014-03-15T05:12:49Z</time>
      </trkpt>
      <trkpt lat="53.806984" lon="27.489379">
        <ele>238.9</ele>
        <time>2014-03-15T05:12:54Z</time>
      </trkpt>
      <trkpt lat="53.806869" lon="27.489125">
        <ele>239.8</ele>
        <time>2014-03-15T05:12:57Z</time>
      </trkpt>
      <trkpt lat="53.806648" lon="27.488634">
        <ele>240.7</ele>
        <time>2014-03-15T05:13:03Z</time>
      </trkpt>
      <trkpt lat="53.806454" lon="27.488233">
        <ele>239.1</ele>
        <time>2014-03-15T05:13:08Z</time>
      </trkpt>
      <trkpt lat="53.806346" lon="27.487989">
        <ele>239.3</ele>
        <time>2014-03-15T05:13:11Z</time>
      </trkpt>
      <trkpt lat="53.806085" lon="27.487539">
        <ele>240.1</ele>
        <time>2014-03-15T05:13:17Z</time>
      </trkpt>
      <trkpt lat="53.805816" lon="27.487063">
        <ele>238.0</ele>
        <time>2014-03-15T05:13:23Z</time>
      </trkpt>
      <trkpt lat="53.805639" lon="27.486757">
        <ele>237.9</ele>
        <time>2014-03-15T05:13:28Z</time>
      </trkpt>
      <trkpt lat="53.805393" lon="27.486529">
        <ele>239.2</ele>
        <time>2014-03-15T05:13:34Z</time>
      </trkpt>
      <trkpt lat="53.805204" lon="27.486805">
        <ele>240.1</ele>
        <time>2014-03-15T05:13:40Z</time>
      </trkpt>
      <trkpt lat="53.805082" lon="27.487199">
        <ele>238.7</ele>
        <time>2014-03-15T05:13:45Z</time>
      </trkpt>
      <trkpt lat="53.805" lon="27.487453">
        <ele>239.2</ele>
        <time>2014-03-15T05:13:48Z</time>
      </trkpt>
      <trkpt lat="53.804926" lon="27.487732">
        <ele>239.9</ele>
        <time>2014-03-15T05:13:51Z</time>
      </trkpt>
      <trkpt lat="53.804748" lon="27.488353">
        <ele>238.4</ele>
        <time>2014-03-15T05:13:57Z</time>
      </trkpt>
      <trkpt lat="53.804648" lon="27.488693">
        <ele>237.4</ele>
        <time>2014-03-15T05:14:00Z</time>
      </trkpt>
      <trkpt lat="53.804541" lon="27.489036">
        <ele>235.6</ele>
        <time>2014-03-15T05:14:03Z</time>
      </trkpt>
      <trkpt lat="53.804431" lon="27.489393">
        <ele>234.3</ele>
        <time>2014-03-15T05:14:06Z</time>
      </trkpt>
      <trkpt lat="53.804198" lon="27.49008">
        <ele>234.3</ele>
        <time>2014-03-15T05:14:12Z</time>
      </trkpt>
      <trkpt lat="53.804112" lon="27.490416">
        <ele>232.2</ele>
        <time>2014-03-15T05:14:15Z</time>
      </trkpt>
      <trkpt lat="53.803933" lon="27.490917">
        <ele>230.5</ele>
        <time>2014-03-15T05:14:20Z</time>
      </trkpt>
      <trkpt lat="53.803809" lon="27.491162">
        <ele>229.0</ele>
        <time>2014-03-15T05:14:23Z</time>
      </trkpt>
      <trkpt lat="53.803409" lon="27.491085">
        <ele>227.3</ele>
        <time>2014-03-15T05:14:29Z</time>
      </trkpt>
      <trkpt lat="53.803227" lon="27.490998">
        <ele>227.1</ele>
        <time>2014-03-15T05:14:32Z</time>
      </trkpt>
      <trkpt lat="53.802989" lon="27.490847">
        <ele>227.7</ele>
        <time>2014-03-15T05:14:37Z</time>
      </trkpt>
      <trkpt lat="53.802704" lon="27.490641">
        <ele>227.5</ele>
        <time>2014-03-15T05:14:44Z</time>
      </trkpt>
      <trkpt lat="53.802548" lon="27.490572">
        <ele>229.8</ele>
        <time>2014-03-15T05:14:49Z</time>
      </trkpt>
      <trkpt lat="53.802323" lon="27.490489">
        <ele>232.1</ele>
        <time>2014-03-15T05:14:56Z</time>
      </trkpt>
      <trkpt lat="53.802056" lon="27.490442">
        <ele>233.4</ele>
        <time>2014-03-15T05:15:04Z</time>
      </trkpt>
      <trkpt lat="53.801852" lon="27.490431">
        <ele>237.1</ele>
        <time>2014-03-15T05:15:11Z</time>
      </trkpt>
      <trkpt lat="53.801637" lon="27.490432">
        <ele>240.4</ele>
        <time>2014-03-15T05:15:18Z</time>
      </trkpt>
      <trkpt lat="53.801451" lon="27.490318">
        <ele>243.7</ele>
        <time>2014-03-15T05:15:25Z</time>
      </trkpt>
      <trkpt lat="53.801373" lon="27.490266">
        <ele>244.6</ele>
        <time>2014-03-15T05:15:28Z</time>
      </trkpt>
      <trkpt lat="53.801175" lon="27.490084">
        <ele>247.6</ele>
        <time>2014-03-15T05:15:37Z</time>
      </trkpt>
      <trkpt lat="53.80101" lon="27.489932">
        <ele>249.3</ele>
        <time>2014-03-15T05:15:44Z</time>
      </trkpt>
      <trkpt lat="53.80077" lon="27.489806">
        <ele>247.6</ele>
        <time>2014-03-15T05:15:52Z</time>
      </trkpt>
      <trkpt lat="53.800552" lon="27.489693">
        <ele>246.8</ele>
        <time>2014-03-15T05:15:58Z</time>
      </trkpt>
      <trkpt lat="53.800368" lon="27.489585">
        <ele>246.9</ele>
        <time>2014-03-15T05:16:03Z</time>
      </trkpt>
      <trkpt lat="53.800138" lon="27.489376">
        <ele>249.6</ele>
        <time>2014-03-15T05:16:10Z</time>
      </trkpt>
      <trkpt lat="53.799939" lon="27.489152">
        <ele>248.4</ele>
        <time>2014-03-15T05:16:17Z</time>
      </trkpt>
      <trkpt lat="53.799722" lon="27.488906">
        <ele>249.3</ele>
        <time>2014-03-15T05:16:25Z</time>
      </trkpt>
      <trkpt lat="53.799575" lon="27.488752">
        <ele>248.4</ele>
        <time>2014-03-15T05:16:30Z</time>
      </trkpt>
      <trkpt lat="53.799372" lon="27.488588">
        <ele>249.1</ele>
        <time>2014-03-15T05:16:36Z</time>
      </trkpt>
      <trkpt lat="53.799087" lon="27.488357">
        <ele>251.6</ele>
        <time>2014-03-15T05:16:43Z</time>
      </trkpt>
      <trkpt lat="53.798847" lon="27.48824">
        <ele>251.5</ele>
        <time>2014-03-15T05:16:49Z</time>
      </trkpt>
      <trkpt lat="53.798637" lon="27.48816">
        <ele>248.5</ele>
        <time>2014-03-15T05:16:55Z</time>
      </trkpt>
      <trkpt lat="53.798402" lon="27.48801">
        <ele>245.3</ele>
        <time>2014-03-15T05:17:01Z</time>
      </trkpt>
      <trkpt lat="53.797987" lon="27.487774">
        <ele>243.6</ele>
        <time>2014-03-15T05:17:09Z</time>
      </trkpt>
      <trkpt lat="53.797785" lon="27.487527">
        <ele>247.7</ele>
        <time>2014-03-15T05:17:16Z</time>
      </trkpt>
      <trkpt lat="53.79757" lon="27.487351">
        <ele>249.1</ele>
        <time>2014-03-15T05:17:25Z</time>
      </trkpt>
      <trkpt lat="53.797341" lon="27.487566">
        <ele>249.5</ele>
        <time>2014-03-15T05:17:34Z</time>
      </trkpt>
      <trkpt lat="53.797053" lon="27.487758">
        <ele>249.0</ele>
        <time>2014-03-15T05:17:43Z</time>
      </trkpt>
      <trkpt lat="53.796821" lon="27.487844">
        <ele>249.5</ele>
        <time>2014-03-15T05:17:51Z</time>
      </trkpt>
      <trkpt lat="53.796569" lon="27.487825">
        <ele>254.4</ele>
        <time>2014-03-15T05:18:00Z</time>
      </trkpt>
      <trkpt lat="53.796363" lon="27.487827">
        <ele>257.4</ele>
        <time>2014-03-15T05:18:06Z</time>
      </trkpt>
      <trkpt lat="53.796217" lon="27.487765">
        <ele>254.7</ele>
        <time>2014-03-15T05:18:11Z</time>
      </trkpt>
      <trkpt lat="53.795975" lon="27.487719">
        <ele>254.2</ele>
        <time>2014-03-15T05:18:19Z</time>
      </trkpt>
      <trkpt lat="53.795708" lon="27.487656">
        <ele>254.8</ele>
        <time>2014-03-15T05:18:26Z</time>
      </trkpt>
      <trkpt lat="53.795415" lon="27.487568">
        <ele>253.1</ele>
        <time>2014-03-15T05:18:33Z</time>
      </trkpt>
      <trkpt lat="53.795074" lon="27.487539">
        <ele>250.6</ele>
        <time>2014-03-15T05:18:40Z</time>
      </trkpt>
      <trkpt lat="53.79481" lon="27.487551">
        <ele>247.6</ele>
        <time>2014-03-15T05:18:46Z</time>
      </trkpt>
      <trkpt lat="53.79448" lon="27.487524">
        <ele>243.2</ele>
        <time>2014-03-15T05:18:52Z</time>
      </trkpt>
      <trkpt lat="53.794217" lon="27.487585">
        <ele>241.8</ele>
        <time>2014-03-15T05:18:58Z</time>
      </trkpt>
      <trkpt lat="53.793933" lon="27.487572">
        <ele>240.5</ele>
        <time>2014-03-15T05:19:04Z</time>
      </trkpt>
      <trkpt lat="53.793707" lon="27.487481">
        <ele>239.1</ele>
        <time>2014-03-15T05:19:09Z</time>
      </trkpt>
      <trkpt lat="53.793423" lon="27.487299">
        <ele>240.1</ele>
        <time>2014-03-15T05:19:15Z</time>
      </trkpt>
      <trkpt lat="53.793196" lon="27.48718">
        <ele>239.9</ele>
        <time>2014-03-15T05:19:20Z</time>
      </trkpt>
      <trkpt lat="53.792922" lon="27.487005">
        <ele>239.6</ele>
        <time>2014-03-15T05:19:27Z</time>
      </trkpt>
      <trkpt lat="53.792658" lon="27.486678">
        <ele>237.3</ele>
        <time>2014-03-15T05:19:33Z</time>
      </trkpt>
      <trkpt lat="53.792533" lon="27.486503">
        <ele>235.6</ele>
        <time>2014-03-15T05:19:36Z</time>
      </trkpt>
      <trkpt lat="53.792193" lon="27.485932">
        <ele>227.9</ele>
        <time>2014-03-15T05:19:42Z</time>
      </trkpt>
      <trkpt lat="53.791895" lon="27.485579">
        <ele>228.4</ele>
        <time>2014-03-15T05:19:47Z</time>
      </trkpt>
      <trkpt lat="53.791784" lon="27.485391">
        <ele>230.0</ele>
        <time>2014-03-15T05:19:51Z</time>
      </trkpt>
      <trkpt lat="53.791622" lon="27.485124">
        <ele>230.8</ele>
        <time>2014-03-15T05:19:58Z</time>
      </trkpt>
      <trkpt lat="53.791407" lon="27.484808">
        <ele>232.5</ele>
        <time>2014-03-15T05:20:07Z</time>
      </trkpt>
      <trkpt lat="53.791248" lon="27.484531">
        <ele>232.0</ele>
        <time>2014-03-15T05:20:13Z</time>
      </trkpt>
      <trkpt lat="53.791108" lon="27.484253">
        <ele>233.2</ele>
        <time>2014-03-15T05:20:18Z</time>
      </trkpt>
      <trkpt lat="53.790945" lon="27.483883">
        <ele>235.2</ele>
        <time>2014-03-15T05:20:25Z</time>
      </trkpt>
      <trkpt lat="53.790808" lon="27.483583">
        <ele>234.8</ele>
        <time>2014-03-15T05:20:31Z</time>
      </trkpt>
      <trkpt lat="53.790692" lon="27.483368">
        <ele>235.5</ele>
        <time>2014-03-15T05:20:36Z</time>
      </trkpt>
      <trkpt lat="53.790612" lon="27.483232">
        <ele>234.9</ele>
        <time>2014-03-15T05:20:39Z</time>
      </trkpt>
      <trkpt lat="53.790521" lon="27.483095">
        <ele>234.6</ele>
        <time>2014-03-15T05:20:42Z</time>
      </trkpt>
      <trkpt lat="53.790365" lon="27.482836">
        <ele>234.6</ele>
        <time>2014-03-15T05:20:48Z</time>
      </trkpt>
      <trkpt lat="53.790274" lon="27.482623">
        <ele>236.1</ele>
        <time>2014-03-15T05:20:55Z</time>
      </trkpt>
      <trkpt lat="53.790161" lon="27.482373">
        <ele>240.2</ele>
        <time>2014-03-15T05:21:03Z</time>
      </trkpt>
      <trkpt lat="53.790025" lon="27.482077">
        <ele>245.3</ele>
        <time>2014-03-15T05:21:13Z</time>
      </trkpt>
      <trkpt lat="53.789912" lon="27.481827">
        <ele>249.9</ele>
        <time>2014-03-15T05:21:22Z</time>
      </trkpt>
      <trkpt lat="53.789784" lon="27.481441">
        <ele>251.9</ele>
        <time>2014-03-15T05:21:33Z</time>
      </trkpt>
      <trkpt lat="53.789674" lon="27.481169">
        <ele>254.4</ele>
        <time>2014-03-15T05:21:41Z</time>
      </trkpt>
      <trkpt lat="53.789532" lon="27.48082">
        <ele>253.2</ele>
        <time>2014-03-15T05:21:49Z</time>
      </trkpt>
      <trkpt lat="53.789393" lon="27.480569">
        <ele>254.2</ele>
        <time>2014-03-15T05:21:56Z</time>
      </trkpt>
      <trkpt lat="53.789259" lon="27.480332">
        <ele>250.9</ele>
        <time>2014-03-15T05:22:01Z</time>
      </trkpt>
      <trkpt lat="53.789143" lon="27.480142">
        <ele>249.3</ele>
        <time>2014-03-15T05:22:04Z</time>
      </trkpt>
      <trkpt lat="53.789023" lon="27.479938">
        <ele>247.2</ele>
        <time>2014-03-15T05:22:07Z</time>
      </trkpt>
      <trkpt lat="53.788878" lon="27.479674">
        <ele>245.2</ele>
        <time>2014-03-15T05:22:10Z</time>
      </trkpt>
      <trkpt lat="53.788581" lon="27.479162">
        <ele>240.9</ele>
        <time>2014-03-15T05:22:16Z</time>
      </trkpt>
      <trkpt lat="53.788372" lon="27.478808">
        <ele>240.6</ele>
        <time>2014-03-15T05:22:21Z</time>
      </trkpt>
      <trkpt lat="53.788256" lon="27.478635">
        <ele>239.6</ele>
        <time>2014-03-15T05:22:24Z</time>
      </trkpt>
      <trkpt lat="53.788044" lon="27.478331">
        <ele>240.3</ele>
        <time>2014-03-15T05:22:30Z</time>
      </trkpt>
      <trkpt lat="53.787918" lon="27.478125">
        <ele>240.3</ele>
        <time>2014-03-15T05:22:34Z</time>
      </trkpt>
      <trkpt lat="53.787768" lon="27.477753">
        <ele>239.2</ele>
        <time>2014-03-15T05:22:40Z</time>
      </trkpt>
      <trkpt lat="53.787668" lon="27.477473">
        <ele>239.2</ele>
        <time>2014-03-15T05:22:45Z</time>
      </trkpt>
      <trkpt lat="53.787529" lon="27.47717">
        <ele>240.2</ele>
        <time>2014-03-15T05:22:52Z</time>
      </trkpt>
      <trkpt lat="53.787344" lon="27.476847">
        <ele>241.8</ele>
        <time>2014-03-15T05:23:01Z</time>
      </trkpt>
      <trkpt lat="53.787234" lon="27.476531">
        <ele>244.1</ele>
        <time>2014-03-15T05:23:11Z</time>
      </trkpt>
      <trkpt lat="53.787156" lon="27.476202">
        <ele>245.7</ele>
        <time>2014-03-15T05:23:24Z</time>
      </trkpt>
      <trkpt lat="53.787523" lon="27.475927">
        <ele>252.9</ele>
        <time>2014-03-15T05:23:40Z</time>
      </trkpt>
      <trkpt lat="53.787746" lon="27.475911">
        <ele>254.8</ele>
        <time>2014-03-15T05:23:47Z</time>
      </trkpt>
      <trkpt lat="53.787884" lon="27.475729">
        <ele>252.4</ele>
        <time>2014-03-15T05:23:53Z</time>
      </trkpt>
      <trkpt lat="53.788094" lon="27.47558">
        <ele>250.0</ele>
        <time>2014-03-15T05:24:01Z</time>
      </trkpt>
      <trkpt lat="53.788243" lon="27.475326">
        <ele>250.2</ele>
        <time>2014-03-15T05:24:09Z</time>
      </trkpt>
      <trkpt lat="53.78838" lon="27.475155">
        <ele>250.4</ele>
        <time>2014-03-15T05:24:16Z</time>
      </trkpt>
      <trkpt lat="53.788596" lon="27.47493">
        <ele>252.0</ele>
        <time>2014-03-15T05:24:25Z</time>
      </trkpt>
      <trkpt lat="53.788769" lon="27.474774">
        <ele>253.2</ele>
        <time>2014-03-15T05:24:33Z</time>
      </trkpt>
      <trkpt lat="53.788878" lon="27.474659">
        <ele>253.6</ele>
        <time>2014-03-15T05:24:38Z</time>
      </trkpt>
      <trkpt lat="53.788955" lon="27.474495">
        <ele>254.4</ele>
        <time>2014-03-15T05:24:45Z</time>
      </trkpt>
      <trkpt lat="53.789071" lon="27.473973">
        <ele>254.2</ele>
        <time>2014-03-15T05:24:58Z</time>
      </trkpt>
      <trkpt lat="53.789133" lon="27.473722">
        <ele>252.5</ele>
        <time>2014-03-15T05:25:05Z</time>
      </trkpt>
      <trkpt lat="53.789237" lon="27.473443">
        <ele>251.9</ele>
        <time>2014-03-15T05:25:15Z</time>
      </trkpt>
      <trkpt lat="53.789353" lon="27.473128">
        <ele>249.5</ele>
        <time>2014-03-15T05:25:26Z</time>
      </trkpt>
      <trkpt lat="53.78948" lon="27.472867">
        <ele>248.2</ele>
        <time>2014-03-15T05:25:36Z</time>
      </trkpt>
      <trkpt lat="53.789367" lon="27.472513">
        <ele>247.2</ele>
        <time>2014-03-15T05:25:47Z</time>
      </trkpt>
      <trkpt lat="53.789287" lon="27.472043">
        <ele>245.5</ele>
        <time>2014-03-15T05:25:55Z</time>
      </trkpt>
      <trkpt lat="53.789141" lon="27.471572">
        <ele>244.8</ele>
        <time>2014-03-15T05:26:02Z</time>
      </trkpt>
      <trkpt lat="53.788938" lon="27.471063">
        <ele>246.2</ele>
        <time>2014-03-15T05:26:08Z</time>
      </trkpt>
      <trkpt lat="53.788869" lon="27.47054">
        <ele>243.5</ele>
        <time>2014-03-15T05:26:14Z</time>
      </trkpt>
      <trkpt lat="53.788879" lon="27.470129">
        <ele>241.2</ele>
        <time>2014-03-15T05:26:19Z</time>
      </trkpt>
      <trkpt lat="53.788885" lon="27.469713">
        <ele>240.4</ele>
        <time>2014-03-15T05:26:25Z</time>
      </trkpt>
      <trkpt lat="53.788858" lon="27.469439">
        <ele>239.4</ele>
        <time>2014-03-15T05:26:34Z</time>
      </trkpt>
      <trkpt lat="53.788806" lon="27.468807">
        <ele>239.9</ele>
        <time>2014-03-15T05:26:50Z</time>
      </trkpt>
      <trkpt lat="53.788609" lon="27.468281">
        <ele>235.3</ele>
        <time>2014-03-15T05:26:57Z</time>
      </trkpt>
      <trkpt lat="53.788524" lon="27.467639">
        <ele>234.8</ele>
        <time>2014-03-15T05:27:04Z</time>
      </trkpt>
      <trkpt lat="53.788308" lon="27.467254">
        <ele>235.2</ele>
        <time>2014-03-15T05:27:10Z</time>
      </trkpt>
      <trkpt lat="53.788182" lon="27.466822">
        <ele>235.3</ele>
        <time>2014-03-15T05:27:16Z</time>
      </trkpt>
      <trkpt lat="53.788215" lon="27.466547">
        <ele>228.5</ele>
        <time>2014-03-15T05:27:21Z</time>
      </trkpt>
      <trkpt lat="53.788197" lon="27.46627">
        <ele>226.1</ele>
        <time>2014-03-15T05:27:25Z</time>
      </trkpt>
      <trkpt lat="53.78803" lon="27.466148">
        <ele>229.4</ele>
        <time>2014-03-15T05:27:31Z</time>
      </trkpt>
      <trkpt lat="53.787786" lon="27.466353">
        <ele>226.6</ele>
        <time>2014-03-15T05:27:38Z</time>
      </trkpt>
      <trkpt lat="53.787595" lon="27.466649">
        <ele>226.8</ele>
        <time>2014-03-15T05:27:43Z</time>
      </trkpt>
      <trkpt lat="53.787522" lon="27.466813">
        <ele>227.1</ele>
        <time>2014-03-15T05:27:50Z</time>
      </trkpt>
      <trkpt lat="53.787359" lon="27.466751">
        <ele>223.5</ele>
        <time>2014-03-15T05:27:57Z</time>
      </trkpt>
      <trkpt lat="53.787187" lon="27.46647">
        <ele>229.1</ele>
        <time>2014-03-15T05:28:05Z</time>
      </trkpt>
      <trkpt lat="53.786937" lon="27.46632">
        <ele>228.0</ele>
        <time>2014-03-15T05:28:11Z</time>
      </trkpt>
      <trkpt lat="53.786712" lon="27.46608">
        <ele>226.4</ele>
        <time>2014-03-15T05:28:17Z</time>
      </trkpt>
      <trkpt lat="53.786434" lon="27.465794">
        <ele>223.1</ele>
        <time>2014-03-15T05:28:24Z</time>
      </trkpt>
      <trkpt lat="53.78622" lon="27.465634">
        <ele>223.3</ele>
        <time>2014-03-15T05:28:29Z</time>
      </trkpt>
      <trkpt lat="53.786087" lon="27.465468">
        <ele>222.5</ele>
        <time>2014-03-15T05:28:32Z</time>
      </trkpt>
      <trkpt lat="53.785846" lon="27.465228">
        <ele>221.5</ele>
        <time>2014-03-15T05:28:39Z</time>
      </trkpt>
      <trkpt lat="53.785665" lon="27.465043">
        <ele>221.4</ele>
        <time>2014-03-15T05:28:44Z</time>
      </trkpt>
      <trkpt lat="53.785336" lon="27.464863">
        <ele>216.8</ele>
        <time>2014-03-15T05:28:51Z</time>
      </trkpt>
      <trkpt lat="53.785195" lon="27.464907">
        <ele>214.5</ele>
        <time>2014-03-15T05:28:56Z</time>
      </trkpt>
      <trkpt lat="53.78501" lon="27.465166">
        <ele>219.2</ele>
        <time>2014-03-15T05:29:03Z</time>
      </trkpt>
      <trkpt lat="53.784914" lon="27.465381">
        <ele>232.2</ele>
        <time>2014-03-15T05:29:10Z</time>
      </trkpt>
      <trkpt lat="53.784727" lon="27.465595">
        <ele>229.6</ele>
        <time>2014-03-15T05:29:17Z</time>
      </trkpt>
      <trkpt lat="53.784481" lon="27.465913">
        <ele>228.7</ele>
        <time>2014-03-15T05:29:25Z</time>
      </trkpt>
      <trkpt lat="53.784296" lon="27.466317">
        <ele>220.5</ele>
        <time>2014-03-15T05:29:32Z</time>
      </trkpt>
      <trkpt lat="53.784168" lon="27.466401">
        <ele>222.6</ele>
        <time>2014-03-15T05:29:36Z</time>
      </trkpt>
      <trkpt lat="53.78397" lon="27.46641">
        <ele>216.7</ele>
        <time>2014-03-15T05:29:42Z</time>
      </trkpt>
      <trkpt lat="53.783714" lon="27.46644">
        <ele>216.8</ele>
        <time>2014-03-15T05:29:49Z</time>
      </trkpt>
      <trkpt lat="53.783691" lon="27.466689">
        <ele>217.4</ele>
        <time>2014-03-15T05:29:55Z</time>
      </trkpt>
      <trkpt lat="53.783664" lon="27.466999">
        <ele>216.1</ele>
        <time>2014-03-15T05:30:01Z</time>
      </trkpt>
      <trkpt lat="53.78363" lon="27.467225">
        <ele>214.5</ele>
        <time>2014-03-15T05:30:08Z</time>
      </trkpt>
      <trkpt lat="53.78363" lon="27.467225">
        <ele>214.5</ele>
        <time>2014-03-15T05:30:15Z</time>
      </trkpt>
      <trkpt lat="53.78363" lon="27.467225">
        <time>2014-03-15T05:30:15Z</time>
      </trkpt>
    </trkseg>
    <trkseg>
      <trkpt lat="53.78363" lon="27.467225">
        <time>2014-03-15T05:30:28Z</time>
      </trkpt>
      <trkpt lat="53.783454" lon="27.467263">
        <ele>211.0</ele>
        <time>2014-03-15T05:30:28Z</time>
      </trkpt>
      <trkpt lat="53.783239" lon="27.467378">
        <ele>212.7</ele>
        <time>2014-03-15T05:30:34Z</time>
      </trkpt>
      <trkpt lat="53.783105" lon="27.467554">
        <ele>212.9</ele>
        <time>2014-03-15T05:30:40Z</time>
      </trkpt>
      <trkpt lat="53.782871" lon="27.46782">
        <ele>211.5</ele>
        <time>2014-03-15T05:30:48Z</time>
      </trkpt>
      <trkpt lat="53.782726" lon="27.467952">
        <ele>210.1</ele>
        <time>2014-03-15T05:30:54Z</time>
      </trkpt>
      <trkpt lat="53.782524" lon="27.468166">
        <ele>210.3</ele>
        <time>2014-03-15T05:31:01Z</time>
      </trkpt>
      <trkpt lat="53.782476" lon="27.46843">
        <ele>211.1</ele>
        <time>2014-03-15T05:31:08Z</time>
      </trkpt>
      <trkpt lat="53.782626" lon="27.468671">
        <ele>217.4</ele>
        <time>2014-03-15T05:31:20Z</time>
      </trkpt>
      <trkpt lat="53.782794" lon="27.468877">
        <ele>225.1</ele>
        <time>2014-03-15T05:31:30Z</time>
      </trkpt>
      <trkpt lat="53.782941" lon="27.469077">
        <ele>231.6</ele>
        <time>2014-03-15T05:31:38Z</time>
      </trkpt>
      <trkpt lat="53.783106" lon="27.469218">
        <ele>233.0</ele>
        <time>2014-03-15T05:31:48Z</time>
      </trkpt>
      <trkpt lat="53.783322" lon="27.469585">
        <ele>235.8</ele>
        <time>2014-03-15T05:32:01Z</time>
      </trkpt>
      <trkpt lat="53.783362" lon="27.469736">
        <ele>240.8</ele>
        <time>2014-03-15T05:32:08Z</time>
      </trkpt>
      <trkpt lat="53.783362" lon="27.469736">
        <ele>240.8</ele>
        <time>2014-03-15T05:32:15Z</time>
      </trkpt>
      <trkpt lat="53.783362" lon="27.469736">
        <time>2014-03-15T05:32:15Z</time>
      </trkpt>
    </trkseg>
    <trkseg>
      <trkpt lat="53.783362" lon="27.469736">
        <time>2014-03-15T05:32:24Z</time>
      </trkpt>
      <trkpt lat="53.78353" lon="27.469992">
        <ele>241.4</ele>
        <time>2014-03-15T05:32:24Z</time>
      </trkpt>
      <trkpt lat="53.783701" lon="27.470443">
        <ele>237.1</ele>
        <time>2014-03-15T05:32:30Z</time>
      </trkpt>
      <trkpt lat="53.783809" lon="27.470885">
        <ele>235.1</ele>
        <time>2014-03-15T05:32:36Z</time>
      </trkpt>
      <trkpt lat="53.783803" lon="27.471438">
        <ele>236.2</ele>
        <time>2014-03-15T05:32:44Z</time>
      </trkpt>
      <trkpt lat="53.783787" lon="27.471853">
        <ele>235.3</ele>
        <time>2014-03-15T05:32:50Z</time>
      </trkpt>
      <trkpt lat="53.783802" lon="27.472114">
        <ele>235.7</ele>
        <time>2014-03-15T05:32:55Z</time>
      </trkpt>
      <trkpt lat="53.78386" lon="27.472352">
        <ele>237.8</ele>
        <time>2014-03-15T05:33:00Z</time>
      </trkpt>
      <trkpt lat="53.783931" lon="27.472803">
        <ele>241.1</ele>
        <time>2014-03-15T05:33:09Z</time>
      </trkpt>
      <trkpt lat="53.783946" lon="27.47312">
        <ele>242.0</ele>
        <time>2014-03-15T05:33:16Z</time>
      </trkpt>
      <trkpt lat="53.783949" lon="27.473534">
        <ele>240.8</ele>
        <time>2014-03-15T05:33:26Z</time>
      </trkpt>
      <trkpt lat="53.784047" lon="27.473852">
        <ele>242.2</ele>
        <time>2014-03-15T05:33:35Z</time>
      </trkpt>
      <trkpt lat="53.784134" lon="27.474088">
        <ele>244.1</ele>
        <time>2014-03-15T05:33:41Z</time>
      </trkpt>
      <trkpt lat="53.784164" lon="27.474504">
        <ele>243.8</ele>
        <time>2014-03-15T05:33:50Z</time>
      </trkpt>
      <trkpt lat="53.784081" lon="27.47494">
        <ele>242.5</ele>
        <time>2014-03-15T05:33:58Z</time>
      </trkpt>
      <trkpt lat="53.784025" lon="27.475197">
        <ele>242.1</ele>
        <time>2014-03-15T05:34:02Z</time>
      </trkpt>
      <trkpt lat="53.783933" lon="27.475547">
        <ele>241.6</ele>
        <time>2014-03-15T05:34:07Z</time>
      </trkpt>
      <trkpt lat="53.783879" lon="27.47576">
        <ele>241.7</ele>
        <time>2014-03-15T05:34:10Z</time>
      </trkpt>
      <trkpt lat="53.783681" lon="27.476169">
        <ele>240.3</ele>
        <time>2014-03-15T05:34:17Z</time>
      </trkpt>
      <trkpt lat="53.783479" lon="27.476616">
        <ele>241.3</ele>
        <time>2014-03-15T05:34:24Z</time>
      </trkpt>
      <trkpt lat="53.783369" lon="27.477066">
        <ele>238.7</ele>
        <time>2014-03-15T05:34:30Z</time>
      </trkpt>
      <trkpt lat="53.783261" lon="27.477561">
        <ele>237.6</ele>
        <time>2014-03-15T05:34:35Z</time>
      </trkpt>
      <trkpt lat="53.78317" lon="27.478149">
        <ele>236.7</ele>
        <time>2014-03-15T05:34:40Z</time>
      </trkpt>
      <trkpt lat="53.783048" lon="27.478629">
        <ele>234.2</ele>
        <time>2014-03-15T05:34:44Z</time>
      </trkpt>
      <trkpt lat="53.782926" lon="27.479095">
        <ele>234.3</ele>
        <time>2014-03-15T05:34:48Z</time>
      </trkpt>
      <trkpt lat="53.782745" lon="27.479717">
        <ele>231.6</ele>
        <time>2014-03-15T05:34:54Z</time>
      </trkpt>
      <trkpt lat="53.78264" lon="27.480027">
        <ele>230.1</ele>
        <time>2014-03-15T05:34:57Z</time>
      </trkpt>
      <trkpt lat="53.782515" lon="27.480323">
        <ele>228.8</ele>
        <time>2014-03-15T05:35:00Z</time>
      </trkpt>
      <trkpt lat="53.78234" lon="27.480728">
        <ele>228.6</ele>
        <time>2014-03-15T05:35:05Z</time>
      </trkpt>
      <trkpt lat="53.782396" lon="27.480946">
        <ele>229.8</ele>
        <time>2014-03-15T05:35:13Z</time>
      </trkpt>
      <trkpt lat="53.782601" lon="27.481256">
        <ele>235.9</ele>
        <time>2014-03-15T05:35:23Z</time>
      </trkpt>
      <trkpt lat="53.782637" lon="27.48168">
        <ele>237.1</ele>
        <time>2014-03-15T05:35:31Z</time>
      </trkpt>
      <trkpt lat="53.782644" lon="27.482111">
        <ele>236.1</ele>
        <time>2014-03-15T05:35:38Z</time>
      </trkpt>
      <trkpt lat="53.78265" lon="27.482587">
        <ele>234.0</ele>
        <time>2014-03-15T05:35:45Z</time>
      </trkpt>
      <trkpt lat="53.782638" lon="27.483121">
        <ele>232.1</ele>
        <time>2014-03-15T05:35:51Z</time>
      </trkpt>
      <trkpt lat="53.782511" lon="27.483701">
        <ele>229.4</ele>
        <time>2014-03-15T05:35:57Z</time>
      </trkpt>
      <trkpt lat="53.782385" lon="27.4842">
        <ele>226.6</ele>
        <time>2014-03-15T05:36:02Z</time>
      </trkpt>
      <trkpt lat="53.782301" lon="27.484488">
        <ele>223.8</ele>
        <time>2014-03-15T05:36:05Z</time>
      </trkpt>
      <trkpt lat="53.782251" lon="27.484763">
        <ele>223.1</ele>
        <time>2014-03-15T05:36:08Z</time>
      </trkpt>
      <trkpt lat="53.782057" lon="27.48531">
        <ele>219.3</ele>
        <time>2014-03-15T05:36:14Z</time>
      </trkpt>
      <trkpt lat="53.781929" lon="27.485538">
        <ele>220.7</ele>
        <time>2014-03-15T05:36:17Z</time>
      </trkpt>
      <trkpt lat="53.781799" lon="27.485779">
        <ele>220.6</ele>
        <time>2014-03-15T05:36:20Z</time>
      </trkpt>
      <trkpt lat="53.781682" lon="27.485967">
        <ele>219.3</ele>
        <time>2014-03-15T05:36:23Z</time>
      </trkpt>
      <trkpt lat="53.781476" lon="27.486216">
        <ele>220.7</ele>
        <time>2014-03-15T05:36:29Z</time>
      </trkpt>
      <trkpt lat="53.781223" lon="27.486349">
        <ele>221.2</ele>
        <time>2014-03-15T05:36:36Z</time>
      </trkpt>
      <trkpt lat="53.78099" lon="27.486596">
        <ele>221.1</ele>
        <time>2014-03-15T05:36:41Z</time>
      </trkpt>
      <trkpt lat="53.780917" lon="27.486832">
        <ele>221.2</ele>
        <time>2014-03-15T05:36:44Z</time>
      </trkpt>
      <trkpt lat="53.780865" lon="27.487239">
        <ele>219.7</ele>
        <time>2014-03-15T05:36:49Z</time>
      </trkpt>
      <trkpt lat="53.780834" lon="27.48757">
        <ele>219.0</ele>
        <time>2014-03-15T05:36:52Z</time>
      </trkpt>
      <trkpt lat="53.780746" lon="27.488174">
        <ele>216.8</ele>
        <time>2014-03-15T05:36:58Z</time>
      </trkpt>
      <trkpt lat="53.780722" lon="27.488453">
        <ele>217.5</ele>
        <time>2014-03-15T05:37:01Z</time>
      </trkpt>
      <trkpt lat="53.78079" lon="27.488706">
        <ele>217.0</ele>
        <time>2014-03-15T05:37:04Z</time>
      </trkpt>
      <trkpt lat="53.780986" lon="27.489286">
        <ele>216.1</ele>
        <time>2014-03-15T05:37:10Z</time>
      </trkpt>
      <trkpt lat="53.781121" lon="27.48986">
        <ele>214.0</ele>
        <time>2014-03-15T05:37:15Z</time>
      </trkpt>
      <trkpt lat="53.781213" lon="27.49046">
        <ele>213.8</ele>
        <time>2014-03-15T05:37:21Z</time>
      </trkpt>
      <trkpt lat="53.781246" lon="27.490742">
        <ele>214.5</ele>
        <time>2014-03-15T05:37:24Z</time>
      </trkpt>
      <trkpt lat="53.78129" lon="27.491011">
        <ele>214.9</ele>
        <time>2014-03-15T05:37:27Z</time>
      </trkpt>
      <trkpt lat="53.781372" lon="27.491194">
        <ele>218.3</ele>
        <time>2014-03-15T05:37:30Z</time>
      </trkpt>
      <trkpt lat="53.781657" lon="27.491072">
        <ele>219.7</ele>
        <time>2014-03-15T05:37:36Z</time>
      </trkpt>
      <trkpt lat="53.781915" lon="27.490872">
        <ele>220.0</ele>
        <time>2014-03-15T05:37:41Z</time>
      </trkpt>
      <trkpt lat="53.782158" lon="27.490722">
        <ele>220.1</ele>
        <time>2014-03-15T05:37:46Z</time>
      </trkpt>
      <trkpt lat="53.782496" lon="27.490545">
        <ele>220.0</ele>
        <time>2014-03-15T05:37:52Z</time>
      </trkpt>
      <trkpt lat="53.782677" lon="27.490485">
        <ele>219.0</ele>
        <time>2014-03-15T05:37:55Z</time>
      </trkpt>
      <trkpt lat="53.783052" lon="27.490371">
        <ele>218.1</ele>
        <time>2014-03-15T05:38:01Z</time>
      </trkpt>
      <trkpt lat="53.783366" lon="27.490299">
        <ele>219.1</ele>
        <time>2014-03-15T05:38:06Z</time>
      </trkpt>
      <trkpt lat="53.783663" lon="27.490261">
        <ele>220.4</ele>
        <time>2014-03-15T05:38:11Z</time>
      </trkpt>
      <trkpt lat="53.78399" lon="27.490376">
        <ele>221.5</ele>
        <time>2014-03-15T05:38:18Z</time>
      </trkpt>
      <trkpt lat="53.78427" lon="27.490477">
        <ele>221.6</ele>
        <time>2014-03-15T05:38:25Z</time>
      </trkpt>
      <trkpt lat="53.784496" lon="27.490512">
        <ele>221.6</ele>
        <time>2014-03-15T05:38:31Z</time>
      </trkpt>
      <trkpt lat="53.784611" lon="27.490611">
        <ele>224.0</ele>
        <time>2014-03-15T05:38:35Z</time>
      </trkpt>
      <trkpt lat="53.784793" lon="27.490939">
        <ele>225.0</ele>
        <time>2014-03-15T05:38:42Z</time>
      </trkpt>
      <trkpt lat="53.784882" lon="27.491177">
        <ele>224.3</ele>
        <time>2014-03-15T05:38:47Z</time>
      </trkpt>
      <trkpt lat="53.784991" lon="27.491583">
        <ele>226.4</ele>
        <time>2014-03-15T05:38:55Z</time>
      </trkpt>
      <trkpt lat="53.785008" lon="27.491966">
        <ele>226.2</ele>
        <time>2014-03-15T05:39:02Z</time>
      </trkpt>
      <trkpt lat="53.785027" lon="27.492219">
        <ele>226.8</ele>
        <time>2014-03-15T05:39:07Z</time>
      </trkpt>
      <trkpt lat="53.785066" lon="27.492426">
        <ele>229.3</ele>
        <time>2014-03-15T05:39:12Z</time>
      </trkpt>
      <trkpt lat="53.785131" lon="27.492684">
        <ele>232.7</ele>
        <time>2014-03-15T05:39:18Z</time>
      </trkpt>
      <trkpt lat="53.785178" lon="27.492889">
        <ele>233.4</ele>
        <time>2014-03-15T05:39:23Z</time>
      </trkpt>
      <trkpt lat="53.785339" lon="27.493113">
        <ele>235.9</ele>
        <time>2014-03-15T05:39:31Z</time>
      </trkpt>
      <trkpt lat="53.785443" lon="27.493229">
        <ele>235.4</ele>
        <time>2014-03-15T05:39:36Z</time>
      </trkpt>
      <trkpt lat="53.785845" lon="27.493384">
        <ele>231.7</ele>
        <time>2014-03-15T05:39:43Z</time>
      </trkpt>
      <trkpt lat="53.786245" lon="27.493468">
        <ele>233.2</ele>
        <time>2014-03-15T05:39:49Z</time>
      </trkpt>
      <trkpt lat="53.786356" lon="27.493478">
        <ele>238.4</ele>
        <time>2014-03-15T05:39:54Z</time>
      </trkpt>
      <trkpt lat="53.786631" lon="27.493488">
        <ele>242.0</ele>
        <time>2014-03-15T05:40:06Z</time>
      </trkpt>
      <trkpt lat="53.786813" lon="27.493718">
        <ele>242.3</ele>
        <time>2014-03-15T05:40:14Z</time>
      </trkpt>
      <trkpt lat="53.786966" lon="27.494034">
        <ele>238.7</ele>
        <time>2014-03-15T05:40:20Z</time>
      </trkpt>
      <trkpt lat="53.787131" lon="27.494091">
        <ele>237.3</ele>
        <time>2014-03-15T05:40:23Z</time>
      </trkpt>
      <trkpt lat="53.787531" lon="27.493892">
        <ele>236.9</ele>
        <time>2014-03-15T05:40:29Z</time>
      </trkpt>
      <trkpt lat="53.787689" lon="27.493811">
        <ele>238.8</ele>
        <time>2014-03-15T05:40:35Z</time>
      </trkpt>
      <trkpt lat="53.787828" lon="27.493736">
        <ele>240.0</ele>
        <time>2014-03-15T05:40:40Z</time>
      </trkpt>
      <trkpt lat="53.787971" lon="27.493692">
        <ele>240.6</ele>
        <time>2014-03-15T05:40:45Z</time>
      </trkpt>
      <trkpt lat="53.788235" lon="27.493457">
        <ele>238.8</ele>
        <time>2014-03-15T05:40:52Z</time>
      </trkpt>
      <trkpt lat="53.788496" lon="27.493143">
        <ele>238.6</ele>
        <time>2014-03-15T05:40:58Z</time>
      </trkpt>
      <trkpt lat="53.788642" lon="27.492839">
        <ele>240.6</ele>
        <time>2014-03-15T05:41:04Z</time>
      </trkpt>
      <trkpt lat="53.788596" lon="27.492341">
        <ele>238.0</ele>
        <time>2014-03-15T05:41:13Z</time>
      </trkpt>
      <trkpt lat="53.788514" lon="27.492169">
        <ele>236.3</ele>
        <time>2014-03-15T05:41:19Z</time>
      </trkpt>
      <trkpt lat="53.788345" lon="27.491638">
        <ele>227.7</ele>
        <time>2014-03-15T05:41:32Z</time>
      </trkpt>
      <trkpt lat="53.788265" lon="27.491446">
        <ele>225.1</ele>
        <time>2014-03-15T05:41:39Z</time>
      </trkpt>
      <trkpt lat="53.787837" lon="27.491221">
        <ele>222.1</ele>
        <time>2014-03-15T05:41:48Z</time>
      </trkpt>
      <trkpt lat="53.787661" lon="27.491129">
        <ele>221.2</ele>
        <time>2014-03-15T05:41:52Z</time>
      </trkpt>
      <trkpt lat="53.787426" lon="27.491003">
        <ele>220.5</ele>
        <time>2014-03-15T05:41:57Z</time>
      </trkpt>
      <trkpt lat="53.787379" lon="27.490973">
        <ele>219.9</ele>
        <time>2014-03-15T05:41:59Z</time>
      </trkpt>
      <trkpt lat="53.787379" lon="27.490973">
        <time>2014-03-15T05:42:04Z</time>
      </trkpt>
    </trkseg>
    <trkseg>
      <trkpt lat="53.787379" lon="27.490973">
        <time>2014-03-15T05:42:34Z</time>
      </trkpt>
      <trkpt lat="53.787184" lon="27.490891">
        <ele>218.8</ele>
        <time>2014-03-15T05:42:34Z</time>
      </trkpt>
      <trkpt lat="53.78697" lon="27.490801">
        <ele>219.9</ele>
        <time>2014-03-15T05:42:39Z</time>
      </trkpt>
      <trkpt lat="53.78673" lon="27.4907">
        <ele>220.9</ele>
        <time>2014-03-15T05:42:44Z</time>
      </trkpt>
      <trkpt lat="53.786585" lon="27.490635">
        <ele>220.4</ele>
        <time>2014-03-15T05:42:47Z</time>
      </trkpt>
      <trkpt lat="53.786435" lon="27.490566">
        <ele>219.1</ele>
        <time>2014-03-15T05:42:50Z</time>
      </trkpt>
      <trkpt lat="53.786193" lon="27.49045">
        <ele>219.7</ele>
        <time>2014-03-15T05:42:56Z</time>
      </trkpt>
      <trkpt lat="53.785951" lon="27.490356">
        <ele>218.5</ele>
        <time>2014-03-15T05:43:02Z</time>
      </trkpt>
      <trkpt lat="53.785677" lon="27.490265">
        <ele>218.9</ele>
        <time>2014-03-15T05:43:08Z</time>
      </trkpt>
      <trkpt lat="53.785386" lon="27.49019">
        <ele>219.8</ele>
        <time>2014-03-15T05:43:14Z</time>
      </trkpt>
      <trkpt lat="53.785257" lon="27.490137">
        <ele>220.5</ele>
        <time>2014-03-15T05:43:17Z</time>
      </trkpt>
      <trkpt lat="53.785108" lon="27.490104">
        <ele>220.5</ele>
        <time>2014-03-15T05:43:20Z</time>
      </trkpt>
      <trkpt lat="53.784956" lon="27.490082">
        <ele>220.9</ele>
        <time>2014-03-15T05:43:23Z</time>
      </trkpt>
      <trkpt lat="53.784664" lon="27.490101">
        <ele>220.9</ele>
        <time>2014-03-15T05:43:29Z</time>
      </trkpt>
      <trkpt lat="53.784359" lon="27.490164">
        <ele>222.2</ele>
        <time>2014-03-15T05:43:35Z</time>
      </trkpt>
      <trkpt lat="53.784065" lon="27.490101">
        <ele>218.7</ele>
        <time>2014-03-15T05:43:41Z</time>
      </trkpt>
      <trkpt lat="53.783743" lon="27.490166">
        <ele>218.4</ele>
        <time>2014-03-15T05:43:47Z</time>
      </trkpt>
      <trkpt lat="53.783557" lon="27.490187">
        <ele>217.1</ele>
        <time>2014-03-15T05:43:52Z</time>
      </trkpt>
      <trkpt lat="53.783165" lon="27.490273">
        <ele>218.9</ele>
        <time>2014-03-15T05:44:00Z</time>
      </trkpt>
      <trkpt lat="53.783001" lon="27.490324">
        <ele>217.1</ele>
        <time>2014-03-15T05:44:03Z</time>
      </trkpt>
      <trkpt lat="53.782684" lon="27.49041">
        <ele>214.5</ele>
        <time>2014-03-15T05:44:09Z</time>
      </trkpt>
      <trkpt lat="53.782377" lon="27.490517">
        <ele>213.3</ele>
        <time>2014-03-15T05:44:15Z</time>
      </trkpt>
      <trkpt lat="53.782069" lon="27.490682">
        <ele>214.3</ele>
        <time>2014-03-15T05:44:21Z</time>
      </trkpt>
      <trkpt lat="53.781772" lon="27.490881">
        <ele>214.2</ele>
        <time>2014-03-15T05:44:27Z</time>
      </trkpt>
      <trkpt lat="53.781634" lon="27.491009">
        <ele>215.6</ele>
        <time>2014-03-15T05:44:30Z</time>
      </trkpt>
      <trkpt lat="53.781327" lon="27.491074">
        <ele>215.2</ele>
        <time>2014-03-15T05:44:36Z</time>
      </trkpt>
      <trkpt lat="53.781224" lon="27.490622">
        <ele>215.8</ele>
        <time>2014-03-15T05:44:42Z</time>
      </trkpt>
      <trkpt lat="53.781145" lon="27.490219">
        <ele>217.7</ele>
        <time>2014-03-15T05:44:47Z</time>
      </trkpt>
      <trkpt lat="53.781047" lon="27.489869">
        <ele>218.7</ele>
        <time>2014-03-15T05:44:52Z</time>
      </trkpt>
      <trkpt lat="53.780988" lon="27.48963">
        <ele>219.7</ele>
        <time>2014-03-15T05:44:55Z</time>
      </trkpt>
      <trkpt lat="53.780858" lon="27.48917">
        <ele>220.5</ele>
        <time>2014-03-15T05:45:01Z</time>
      </trkpt>
      <trkpt lat="53.780765" lon="27.488885">
        <ele>220.8</ele>
        <time>2014-03-15T05:45:05Z</time>
      </trkpt>
      <trkpt lat="53.780669" lon="27.488439">
        <ele>220.5</ele>
        <time>2014-03-15T05:45:11Z</time>
      </trkpt>
      <trkpt lat="53.780698" lon="27.488071">
        <ele>222.0</ele>
        <time>2014-03-15T05:45:16Z</time>
      </trkpt>
      <trkpt lat="53.780762" lon="27.487593">
        <ele>222.3</ele>
        <time>2014-03-15T05:45:22Z</time>
      </trkpt>
      <trkpt lat="53.78081" lon="27.487081">
        <ele>222.7</ele>
        <time>2014-03-15T05:45:28Z</time>
      </trkpt>
      <trkpt lat="53.780842" lon="27.48683">
        <ele>223.2</ele>
        <time>2014-03-15T05:45:31Z</time>
      </trkpt>
      <trkpt lat="53.780869" lon="27.486587">
        <ele>224.9</ele>
        <time>2014-03-15T05:45:34Z</time>
      </trkpt>
      <trkpt lat="53.780901" lon="27.486056">
        <ele>225.6</ele>
        <time>2014-03-15T05:45:40Z</time>
      </trkpt>
      <trkpt lat="53.780882" lon="27.485429">
        <ele>226.0</ele>
        <time>2014-03-15T05:45:46Z</time>
      </trkpt>
      <trkpt lat="53.780928" lon="27.48486">
        <ele>225.5</ele>
        <time>2014-03-15T05:45:52Z</time>
      </trkpt>
      <trkpt lat="53.780962" lon="27.484608">
        <ele>226.0</ele>
        <time>2014-03-15T05:45:55Z</time>
      </trkpt>
      <trkpt lat="53.780895" lon="27.484142">
        <ele>225.8</ele>
        <time>2014-03-15T05:46:01Z</time>
      </trkpt>
      <trkpt lat="53.780704" lon="27.483908">
        <ele>224.4</ele>
        <time>2014-03-15T05:46:06Z</time>
      </trkpt>
      <trkpt lat="53.780495" lon="27.483344">
        <ele>220.6</ele>
        <time>2014-03-15T05:46:12Z</time>
      </trkpt>
      <trkpt lat="53.780516" lon="27.482746">
        <ele>222.1</ele>
        <time>2014-03-15T05:46:17Z</time>
      </trkpt>
      <trkpt lat="53.780551" lon="27.48245">
        <ele>222.4</ele>
        <time>2014-03-15T05:46:20Z</time>
      </trkpt>
      <trkpt lat="53.78061" lon="27.482043">
        <ele>224.8</ele>
        <time>2014-03-15T05:46:25Z</time>
      </trkpt>
      <trkpt lat="53.780718" lon="27.481696">
        <ele>226.5</ele>
        <time>2014-03-15T05:46:32Z</time>
      </trkpt>
      <trkpt lat="53.780785" lon="27.481301">
        <ele>228.7</ele>
        <time>2014-03-15T05:46:39Z</time>
      </trkpt>
      <trkpt lat="53.780792" lon="27.480788">
        <ele>230.5</ele>
        <time>2014-03-15T05:46:47Z</time>
      </trkpt>
      <trkpt lat="53.780792" lon="27.480449">
        <ele>233.0</ele>
        <time>2014-03-15T05:46:53Z</time>
      </trkpt>
      <trkpt lat="53.780827" lon="27.479999">
        <ele>234.1</ele>
        <time>2014-03-15T05:47:01Z</time>
      </trkpt>
      <trkpt lat="53.780862" lon="27.479555">
        <ele>230.7</ele>
        <time>2014-03-15T05:47:07Z</time>
      </trkpt>
      <trkpt lat="53.780821" lon="27.479035">
        <ele>228.6</ele>
        <time>2014-03-15T05:47:12Z</time>
      </trkpt>
      <trkpt lat="53.780889" lon="27.478293">
        <ele>228.2</ele>
        <time>2014-03-15T05:47:18Z</time>
      </trkpt>
      <trkpt lat="53.780924" lon="27.47791">
        <ele>227.2</ele>
        <time>2014-03-15T05:47:21Z</time>
      </trkpt>
      <trkpt lat="53.780958" lon="27.477588">
        <ele>227.6</ele>
        <time>2014-03-15T05:47:24Z</time>
      </trkpt>
      <trkpt lat="53.780973" lon="27.477333">
        <ele>228.7</ele>
        <time>2014-03-15T05:47:27Z</time>
      </trkpt>
      <trkpt lat="53.781035" lon="27.476874">
        <ele>229.6</ele>
        <time>2014-03-15T05:47:33Z</time>
      </trkpt>
      <trkpt lat="53.781081" lon="27.476598">
        <ele>229.2</ele>
        <time>2014-03-15T05:47:36Z</time>
      </trkpt>
      <trkpt lat="53.781248" lon="27.47611">
        <ele>229.6</ele>
        <time>2014-03-15T05:47:42Z</time>
      </trkpt>
      <trkpt lat="53.781381" lon="27.475942">
        <ele>230.1</ele>
        <time>2014-03-15T05:47:46Z</time>
      </trkpt>
      <trkpt lat="53.781603" lon="27.475671">
        <ele>234.7</ele>
        <time>2014-03-15T05:47:53Z</time>
      </trkpt>
      <trkpt lat="53.781768" lon="27.475453">
        <ele>238.6</ele>
        <time>2014-03-15T05:48:00Z</time>
      </trkpt>
      <trkpt lat="53.781951" lon="27.475073">
        <ele>241.1</ele>
        <time>2014-03-15T05:48:10Z</time>
      </trkpt>
      <trkpt lat="53.782079" lon="27.474817">
        <ele>239.6</ele>
        <time>2014-03-15T05:48:17Z</time>
      </trkpt>
      <trkpt lat="53.782315" lon="27.47458">
        <ele>239.6</ele>
        <time>2014-03-15T05:48:27Z</time>
      </trkpt>
      <trkpt lat="53.782574" lon="27.474429">
        <ele>239.7</ele>
        <time>2014-03-15T05:48:35Z</time>
      </trkpt>
      <trkpt lat="53.782743" lon="27.474301">
        <ele>239.6</ele>
        <time>2014-03-15T05:48:40Z</time>
      </trkpt>
      <trkpt lat="53.782973" lon="27.474131">
        <ele>236.5</ele>
        <time>2014-03-15T05:48:45Z</time>
      </trkpt>
      <trkpt lat="53.783278" lon="27.473978">
        <ele>236.1</ele>
        <time>2014-03-15T05:48:51Z</time>
      </trkpt>
      <trkpt lat="53.783472" lon="27.473873">
        <ele>235.9</ele>
        <time>2014-03-15T05:48:55Z</time>
      </trkpt>
      <trkpt lat="53.783629" lon="27.473753">
        <ele>235.3</ele>
        <time>2014-03-15T05:48:58Z</time>
      </trkpt>
      <trkpt lat="53.78378" lon="27.473656">
        <ele>235.6</ele>
        <time>2014-03-15T05:49:01Z</time>
      </trkpt>
      <trkpt lat="53.78404" lon="27.47343">
        <ele>236.0</ele>
        <time>2014-03-15T05:49:06Z</time>
      </trkpt>
      <trkpt lat="53.784203" lon="27.473304">
        <ele>239.0</ele>
        <time>2014-03-15T05:49:09Z</time>
      </trkpt>
      <trkpt lat="53.784378" lon="27.473189">
        <ele>240.6</ele>
        <time>2014-03-15T05:49:12Z</time>
      </trkpt>
      <trkpt lat="53.784537" lon="27.473038">
        <ele>241.2</ele>
        <time>2014-03-15T05:49:15Z</time>
      </trkpt>
      <trkpt lat="53.784849" lon="27.472781">
        <ele>244.6</ele>
        <time>2014-03-15T05:49:21Z</time>
      </trkpt>
      <trkpt lat="53.785009" lon="27.47263">
        <ele>245.5</ele>
        <time>2014-03-15T05:49:24Z</time>
      </trkpt>
      <trkpt lat="53.785303" lon="27.472341">
        <ele>246.1</ele>
        <time>2014-03-15T05:49:30Z</time>
      </trkpt>
      <trkpt lat="53.785615" lon="27.472084">
        <ele>245.9</ele>
        <time>2014-03-15T05:49:36Z</time>
      </trkpt>
      <trkpt lat="53.785996" lon="27.471659">
        <ele>242.6</ele>
        <time>2014-03-15T05:49:42Z</time>
      </trkpt>
      <trkpt lat="53.786434" lon="27.470955">
        <ele>237.5</ele>
        <time>2014-03-15T05:49:48Z</time>
      </trkpt>
      <trkpt lat="53.786666" lon="27.47056">
        <ele>234.0</ele>
        <time>2014-03-15T05:49:51Z</time>
      </trkpt>
      <trkpt lat="53.786883" lon="27.470139">
        <ele>232.1</ele>
        <time>2014-03-15T05:49:54Z</time>
      </trkpt>
      <trkpt lat="53.787096" lon="27.469262">
        <ele>229.7</ele>
        <time>2014-03-15T05:50:00Z</time>
      </trkpt>
      <trkpt lat="53.787196" lon="27.468701">
        <ele>230.8</ele>
        <time>2014-03-15T05:50:05Z</time>
      </trkpt>
      <trkpt lat="53.787306" lon="27.468181">
        <ele>230.5</ele>
        <time>2014-03-15T05:50:11Z</time>
      </trkpt>
      <trkpt lat="53.78745" lon="27.467501">
        <ele>225.7</ele>
        <time>2014-03-15T05:50:17Z</time>
      </trkpt>
      <trkpt lat="53.787537" lon="27.466939">
        <ele>228.3</ele>
        <time>2014-03-15T05:50:22Z</time>
      </trkpt>
      <trkpt lat="53.787663" lon="27.466409">
        <ele>223.3</ele>
        <time>2014-03-15T05:50:29Z</time>
      </trkpt>
      <trkpt lat="53.78788" lon="27.466172">
        <ele>219.2</ele>
        <time>2014-03-15T05:50:35Z</time>
      </trkpt>
      <trkpt lat="53.788205" lon="27.465884">
        <ele>218.1</ele>
        <time>2014-03-15T05:50:44Z</time>
      </trkpt>
      <trkpt lat="53.788338" lon="27.465757">
        <ele>217.7</ele>
        <time>2014-03-15T05:50:50Z</time>
      </trkpt>
      <trkpt lat="53.788505" lon="27.465518">
        <ele>223.3</ele>
        <time>2014-03-15T05:50:59Z</time>
      </trkpt>
      <trkpt lat="53.788678" lon="27.465358">
        <ele>223.7</ele>
        <time>2014-03-15T05:51:06Z</time>
      </trkpt>
      <trkpt lat="53.788836" lon="27.46514">
        <ele>230.2</ele>
        <time>2014-03-15T05:51:16Z</time>
      </trkpt>
      <trkpt lat="53.789037" lon="27.464848">
        <ele>241.2</ele>
        <time>2014-03-15T05:51:27Z</time>
      </trkpt>
      <trkpt lat="53.789204" lon="27.464569">
        <ele>243.2</ele>
        <time>2014-03-15T05:51:37Z</time>
      </trkpt>
      <trkpt lat="53.789355" lon="27.464258">
        <ele>242.1</ele>
        <time>2014-03-15T05:51:47Z</time>
      </trkpt>
      <trkpt lat="53.789615" lon="27.463896">
        <ele>238.8</ele>
        <time>2014-03-15T05:51:57Z</time>
      </trkpt>
      <trkpt lat="53.789725" lon="27.463596">
        <ele>246.6</ele>
        <time>2014-03-15T05:52:04Z</time>
      </trkpt>
      <trkpt lat="53.789914" lon="27.463239">
        <ele>243.0</ele>
        <time>2014-03-15T05:52:13Z</time>
      </trkpt>
      <trkpt lat="53.790071" lon="27.462441">
        <ele>245.7</ele>
        <time>2014-03-15T05:52:20Z</time>
      </trkpt>
      <trkpt lat="53.790176" lon="27.461875">
        <ele>242.8</ele>
        <time>2014-03-15T05:52:25Z</time>
      </trkpt>
      <trkpt lat="53.790229" lon="27.461586">
        <ele>236.9</ele>
        <time>2014-03-15T05:52:28Z</time>
      </trkpt>
      <trkpt lat="53.790291" lon="27.461277">
        <ele>237.0</ele>
        <time>2014-03-15T05:52:31Z</time>
      </trkpt>
      <trkpt lat="53.790385" lon="27.460992">
        <ele>235.2</ele>
        <time>2014-03-15T05:52:34Z</time>
      </trkpt>
      <trkpt lat="53.790575" lon="27.460385">
        <ele>229.8</ele>
        <time>2014-03-15T05:52:40Z</time>
      </trkpt>
      <trkpt lat="53.790657" lon="27.460084">
        <ele>229.3</ele>
        <time>2014-03-15T05:52:43Z</time>
      </trkpt>
      <trkpt lat="53.790728" lon="27.45979">
        <ele>229.4</ele>
        <time>2014-03-15T05:52:46Z</time>
      </trkpt>
      <trkpt lat="53.790875" lon="27.459228">
        <ele>229.6</ele>
        <time>2014-03-15T05:52:52Z</time>
      </trkpt>
      <trkpt lat="53.791002" lon="27.45881">
        <ele>229.8</ele>
        <time>2014-03-15T05:52:57Z</time>
      </trkpt>
      <trkpt lat="53.791031" lon="27.458442">
        <ele>229.7</ele>
        <time>2014-03-15T05:53:03Z</time>
      </trkpt>
      <trkpt lat="53.790823" lon="27.458339">
        <ele>225.8</ele>
        <time>2014-03-15T05:53:09Z</time>
      </trkpt>
      <trkpt lat="53.790518" lon="27.458127">
        <ele>222.9</ele>
        <time>2014-03-15T05:53:15Z</time>
      </trkpt>
      <trkpt lat="53.790332" lon="27.457813">
        <ele>222.1</ele>
        <time>2014-03-15T05:53:20Z</time>
      </trkpt>
      <trkpt lat="53.79024" lon="27.457144">
        <ele>223.9</ele>
        <time>2014-03-15T05:53:26Z</time>
      </trkpt>
      <trkpt lat="53.790017" lon="27.456471">
        <ele>223.1</ele>
        <time>2014-03-15T05:53:32Z</time>
      </trkpt>
      <trkpt lat="53.789816" lon="27.456022">
        <ele>225.4</ele>
        <time>2014-03-15T05:53:37Z</time>
      </trkpt>
      <trkpt lat="53.789595" lon="27.455505">
        <ele>224.1</ele>
        <time>2014-03-15T05:53:43Z</time>
      </trkpt>
      <trkpt lat="53.78932" lon="27.455083">
        <ele>222.9</ele>
        <time>2014-03-15T05:53:49Z</time>
      </trkpt>
      <trkpt lat="53.789123" lon="27.454692">
        <ele>223.3</ele>
        <time>2014-03-15T05:53:54Z</time>
      </trkpt>
      <trkpt lat="53.789047" lon="27.454418">
        <ele>223.9</ele>
        <time>2014-03-15T05:53:57Z</time>
      </trkpt>
      <trkpt lat="53.789042" lon="27.453816">
        <ele>223.1</ele>
        <time>2014-03-15T05:54:03Z</time>
      </trkpt>
      <trkpt lat="53.789111" lon="27.453557">
        <ele>222.7</ele>
        <time>2014-03-15T05:54:06Z</time>
      </trkpt>
      <trkpt lat="53.789308" lon="27.453102">
        <ele>222.1</ele>
        <time>2014-03-15T05:54:12Z</time>
      </trkpt>
      <trkpt lat="53.789475" lon="27.452723">
        <ele>221.4</ele>
        <time>2014-03-15T05:54:17Z</time>
      </trkpt>
      <trkpt lat="53.789689" lon="27.452244">
        <ele>225.2</ele>
        <time>2014-03-15T05:54:23Z</time>
      </trkpt>
      <trkpt lat="53.789789" lon="27.451981">
        <ele>225.1</ele>
        <time>2014-03-15T05:54:26Z</time>
      </trkpt>
      <trkpt lat="53.789895" lon="27.451762">
        <ele>226.3</ele>
        <time>2014-03-15T05:54:29Z</time>
      </trkpt>
      <trkpt lat="53.789902" lon="27.451253">
        <ele>227.1</ele>
        <time>2014-03-15T05:54:35Z</time>
      </trkpt>
      <trkpt lat="53.789909" lon="27.450739">
        <ele>227.0</ele>
        <time>2014-03-15T05:54:40Z</time>
      </trkpt>
      <trkpt lat="53.789911" lon="27.45023">
        <ele>227.3</ele>
        <time>2014-03-15T05:54:45Z</time>
      </trkpt>
      <trkpt lat="53.790099" lon="27.449686">
        <ele>225.1</ele>
        <time>2014-03-15T05:54:51Z</time>
      </trkpt>
      <trkpt lat="53.790225" lon="27.449228">
        <ele>224.1</ele>
        <time>2014-03-15T05:54:57Z</time>
      </trkpt>
      <trkpt lat="53.790554" lon="27.448772">
        <ele>221.8</ele>
        <time>2014-03-15T05:55:05Z</time>
      </trkpt>
      <trkpt lat="53.79066" lon="27.448544">
        <ele>217.5</ele>
        <time>2014-03-15T05:55:10Z</time>
      </trkpt>
      <trkpt lat="53.79074" lon="27.448091">
        <ele>216.8</ele>
        <time>2014-03-15T05:55:16Z</time>
      </trkpt>
      <trkpt lat="53.79069" lon="27.447504">
        <ele>220.0</ele>
        <time>2014-03-15T05:55:22Z</time>
      </trkpt>
      <trkpt lat="53.790797" lon="27.447056">
        <ele>223.0</ele>
        <time>2014-03-15T05:55:27Z</time>
      </trkpt>
      <trkpt lat="53.790968" lon="27.446638">
        <ele>223.3</ele>
        <time>2014-03-15T05:55:32Z</time>
      </trkpt>
      <trkpt lat="53.791192" lon="27.446163">
        <ele>220.3</ele>
        <time>2014-03-15T05:55:38Z</time>
      </trkpt>
      <trkpt lat="53.791352" lon="27.445771">
        <ele>219.5</ele>
        <time>2014-03-15T05:55:43Z</time>
      </trkpt>
      <trkpt lat="53.791431" lon="27.445497">
        <ele>219.6</ele>
        <time>2014-03-15T05:55:46Z</time>
      </trkpt>
      <trkpt lat="53.791481" lon="27.445197">
        <ele>220.0</ele>
        <time>2014-03-15T05:55:49Z</time>
      </trkpt>
      <trkpt lat="53.791553" lon="27.444588">
        <ele>220.8</ele>
        <time>2014-03-15T05:55:55Z</time>
      </trkpt>
      <trkpt lat="53.791645" lon="27.444042">
        <ele>220.6</ele>
        <time>2014-03-15T05:56:01Z</time>
      </trkpt>
      <trkpt lat="53.79171" lon="27.443597">
        <ele>220.1</ele>
        <time>2014-03-15T05:56:06Z</time>
      </trkpt>
      <trkpt lat="53.791747" lon="27.44334">
        <ele>219.9</ele>
        <time>2014-03-15T05:56:09Z</time>
      </trkpt>
      <trkpt lat="53.791753" lon="27.443085">
        <ele>219.9</ele>
        <time>2014-03-15T05:56:12Z</time>
      </trkpt>
      <trkpt lat="53.791761" lon="27.442824">
        <ele>221.8</ele>
        <time>2014-03-15T05:56:15Z</time>
      </trkpt>
      <trkpt lat="53.791769" lon="27.442324">
        <ele>223.1</ele>
        <time>2014-03-15T05:56:21Z</time>
      </trkpt>
      <trkpt lat="53.791769" lon="27.442092">
        <ele>223.3</ele>
        <time>2014-03-15T05:56:24Z</time>
      </trkpt>
      <trkpt lat="53.791825" lon="27.441805">
        <ele>222.4</ele>
        <time>2014-03-15T05:56:29Z</time>
      </trkpt>
      <trkpt lat="53.791803" lon="27.441474">
        <ele>223.5</ele>
        <time>2014-03-15T05:56:35Z</time>
      </trkpt>
      <trkpt lat="53.791776" lon="27.441048">
        <ele>223.7</ele>
        <time>2014-03-15T05:56:43Z</time>
      </trkpt>
      <trkpt lat="53.791737" lon="27.440534">
        <ele>221.7</ele>
        <time>2014-03-15T05:56:51Z</time>
      </trkpt>
      <trkpt lat="53.791712" lon="27.440057">
        <ele>220.2</ele>
        <time>2014-03-15T05:56:58Z</time>
      </trkpt>
      <trkpt lat="53.791756" lon="27.439722">
        <ele>221.0</ele>
        <time>2014-03-15T05:57:04Z</time>
      </trkpt>
      <trkpt lat="53.79172" lon="27.43951">
        <ele>218.2</ele>
        <time>2014-03-15T05:57:09Z</time>
      </trkpt>
      <trkpt lat="53.791599" lon="27.439228">
        <ele>217.1</ele>
        <time>2014-03-15T05:57:17Z</time>
      </trkpt>
      <trkpt lat="53.791593" lon="27.438786">
        <ele>217.4</ele>
        <time>2014-03-15T05:57:29Z</time>
      </trkpt>
      <trkpt lat="53.791631" lon="27.438541">
        <ele>216.8</ele>
        <time>2014-03-15T05:57:34Z</time>
      </trkpt>
      <trkpt lat="53.791696" lon="27.438211">
        <ele>216.5</ele>
        <time>2014-03-15T05:57:40Z</time>
      </trkpt>
      <trkpt lat="53.79177" lon="27.437826">
        <ele>215.4</ele>
        <time>2014-03-15T05:57:47Z</time>
      </trkpt>
      <trkpt lat="53.791797" lon="27.437434">
        <ele>214.3</ele>
        <time>2014-03-15T05:57:54Z</time>
      </trkpt>
      <trkpt lat="53.791814" lon="27.437084">
        <ele>214.9</ele>
        <time>2014-03-15T05:58:01Z</time>
      </trkpt>
      <trkpt lat="53.791895" lon="27.436654">
        <ele>214.9</ele>
        <time>2014-03-15T05:58:09Z</time>
      </trkpt>
      <trkpt lat="53.792" lon="27.436304">
        <ele>215.8</ele>
        <time>2014-03-15T05:58:16Z</time>
      </trkpt>
      <trkpt lat="53.792076" lon="27.436096">
        <ele>216.7</ele>
        <time>2014-03-15T05:58:21Z</time>
      </trkpt>
      <trkpt lat="53.792197" lon="27.435985">
        <ele>217.3</ele>
        <time>2014-03-15T05:58:29Z</time>
      </trkpt>
      <trkpt lat="53.792326" lon="27.436282">
        <ele>219.9</ele>
        <time>2014-03-15T05:58:46Z</time>
      </trkpt>
      <trkpt lat="53.792407" lon="27.436633">
        <ele>224.3</ele>
        <time>2014-03-15T05:58:59Z</time>
      </trkpt>
      <trkpt lat="53.792535" lon="27.436874">
        <ele>227.4</ele>
        <time>2014-03-15T05:59:12Z</time>
      </trkpt>
      <trkpt lat="53.792732" lon="27.437283">
        <ele>228.6</ele>
        <time>2014-03-15T05:59:26Z</time>
      </trkpt>
      <trkpt lat="53.792822" lon="27.437485">
        <ele>233.0</ele>
        <time>2014-03-15T05:59:32Z</time>
      </trkpt>
      <trkpt lat="53.79291" lon="27.437618">
        <ele>239.3</ele>
        <time>2014-03-15T05:59:38Z</time>
      </trkpt>
      <trkpt lat="53.792953" lon="27.43778">
        <ele>239.6</ele>
        <time>2014-03-15T05:59:45Z</time>
      </trkpt>
      <trkpt lat="53.793003" lon="27.438057">
        <ele>243.9</ele>
        <time>2014-03-15T05:59:52Z</time>
      </trkpt>
      <trkpt lat="53.793228" lon="27.43845">
        <ele>242.9</ele>
        <time>2014-03-15T05:59:58Z</time>
      </trkpt>
      <trkpt lat="53.793265" lon="27.438746">
        <ele>242.5</ele>
        <time>2014-03-15T06:00:03Z</time>
      </trkpt>
      <trkpt lat="53.793292" lon="27.439112">
        <ele>242.7</ele>
        <time>2014-03-15T06:00:09Z</time>
      </trkpt>
      <trkpt lat="53.793268" lon="27.439437">
        <ele>236.3</ele>
        <time>2014-03-15T06:00:16Z</time>
      </trkpt>
      <trkpt lat="53.793286" lon="27.439745">
        <ele>233.4</ele>
        <time>2014-03-15T06:00:21Z</time>
      </trkpt>
      <trkpt lat="53.793311" lon="27.440239">
        <ele>232.8</ele>
        <time>2014-03-15T06:00:29Z</time>
      </trkpt>
      <trkpt lat="53.793256" lon="27.440547">
        <ele>228.3</ele>
        <time>2014-03-15T06:00:34Z</time>
      </trkpt>
      <trkpt lat="53.793399" lon="27.4409">
        <ele>227.0</ele>
        <time>2014-03-15T06:00:41Z</time>
      </trkpt>
      <trkpt lat="53.793582" lon="27.441168">
        <ele>233.9</ele>
        <time>2014-03-15T06:00:48Z</time>
      </trkpt>
      <trkpt lat="53.79381" lon="27.441322">
        <ele>237.3</ele>
        <time>2014-03-15T06:00:54Z</time>
      </trkpt>
      <trkpt lat="53.793949" lon="27.441621">
        <ele>236.5</ele>
        <time>2014-03-15T06:01:01Z</time>
      </trkpt>
      <trkpt lat="53.793876" lon="27.44207">
        <ele>236.1</ele>
        <time>2014-03-15T06:01:08Z</time>
      </trkpt>
      <trkpt lat="53.793829" lon="27.442354">
        <ele>236.9</ele>
        <time>2014-03-15T06:01:12Z</time>
      </trkpt>
      <trkpt lat="53.793785" lon="27.442708">
        <ele>237.7</ele>
        <time>2014-03-15T06:01:17Z</time>
      </trkpt>
      <trkpt lat="53.793725" lon="27.442968">
        <ele>237.4</ele>
        <time>2014-03-15T06:01:21Z</time>
      </trkpt>
      <trkpt lat="53.793741" lon="27.443106">
        <ele>238.0</ele>
        <time>2014-03-15T06:01:25Z</time>
      </trkpt>
      <trkpt lat="53.793741" lon="27.443106">
        <time>2014-03-15T06:01:31Z</time>
      </trkpt>
    </trkseg>
    <trkseg>
      <trkpt lat="53.793741" lon="27.443106">
        <time>2014-03-15T06:01:34Z</time>
      </trkpt>
      <trkpt lat="53.793823" lon="27.443114">
        <ele>240.2</ele>
        <time>2014-03-15T06:01:34Z</time>
      </trkpt>
      <trkpt lat="53.79396" lon="27.443238">
        <ele>239.5</ele>
        <time>2014-03-15T06:01:39Z</time>
      </trkpt>
      <trkpt lat="53.794143" lon="27.443396">
        <ele>237.9</ele>
        <time>2014-03-15T06:01:47Z</time>
      </trkpt>
      <trkpt lat="53.79441" lon="27.442777">
        <ele>234.3</ele>
        <time>2014-03-15T06:01:56Z</time>
      </trkpt>
      <trkpt lat="53.794685" lon="27.442181">
        <ele>231.0</ele>
        <time>2014-03-15T06:02:02Z</time>
      </trkpt>
      <trkpt lat="53.794968" lon="27.441653">
        <ele>227.0</ele>
        <time>2014-03-15T06:02:07Z</time>
      </trkpt>
      <trkpt lat="53.795343" lon="27.441001">
        <ele>223.6</ele>
        <time>2014-03-15T06:02:13Z</time>
      </trkpt>
      <trkpt lat="53.795635" lon="27.440514">
        <ele>222.4</ele>
        <time>2014-03-15T06:02:18Z</time>
      </trkpt>
      <trkpt lat="53.795923" lon="27.440022">
        <ele>224.2</ele>
        <time>2014-03-15T06:02:24Z</time>
      </trkpt>
      <trkpt lat="53.796165" lon="27.439582">
        <ele>225.4</ele>
        <time>2014-03-15T06:02:30Z</time>
      </trkpt>
      <trkpt lat="53.79638" lon="27.439223">
        <ele>224.7</ele>
        <time>2014-03-15T06:02:35Z</time>
      </trkpt>
      <trkpt lat="53.796665" lon="27.438751">
        <ele>226.0</ele>
        <time>2014-03-15T06:02:41Z</time>
      </trkpt>
      <trkpt lat="53.796814" lon="27.438494">
        <ele>225.6</ele>
        <time>2014-03-15T06:02:44Z</time>
      </trkpt>
      <trkpt lat="53.797082" lon="27.437859">
        <ele>224.7</ele>
        <time>2014-03-15T06:02:50Z</time>
      </trkpt>
      <trkpt lat="53.79721" lon="27.437504">
        <ele>223.5</ele>
        <time>2014-03-15T06:02:53Z</time>
      </trkpt>
      <trkpt lat="53.797459" lon="27.436776">
        <ele>223.8</ele>
        <time>2014-03-15T06:02:59Z</time>
      </trkpt>
      <trkpt lat="53.797562" lon="27.436414">
        <ele>224.6</ele>
        <time>2014-03-15T06:03:02Z</time>
      </trkpt>
      <trkpt lat="53.797766" lon="27.435777">
        <ele>225.2</ele>
        <time>2014-03-15T06:03:08Z</time>
      </trkpt>
      <trkpt lat="53.79785" lon="27.435492">
        <ele>226.1</ele>
        <time>2014-03-15T06:03:11Z</time>
      </trkpt>
      <trkpt lat="53.797991" lon="27.435019">
        <ele>228.7</ele>
        <time>2014-03-15T06:03:17Z</time>
      </trkpt>
      <trkpt lat="53.798112" lon="27.434673">
        <ele>230.3</ele>
        <time>2014-03-15T06:03:22Z</time>
      </trkpt>
      <trkpt lat="53.798251" lon="27.434347">
        <ele>231.2</ele>
        <time>2014-03-15T06:03:28Z</time>
      </trkpt>
      <trkpt lat="53.79837" lon="27.434103">
        <ele>231.3</ele>
        <time>2014-03-15T06:03:33Z</time>
      </trkpt>
      <trkpt lat="53.798523" lon="27.433835">
        <ele>232.5</ele>
        <time>2014-03-15T06:03:39Z</time>
      </trkpt>
      <trkpt lat="53.798723" lon="27.43356">
        <ele>235.3</ele>
        <time>2014-03-15T06:03:46Z</time>
      </trkpt>
      <trkpt lat="53.798967" lon="27.433261">
        <ele>235.9</ele>
        <time>2014-03-15T06:03:54Z</time>
      </trkpt>
      <trkpt lat="53.79918" lon="27.432915">
        <ele>238.0</ele>
        <time>2014-03-15T06:04:01Z</time>
      </trkpt>
      <trkpt lat="53.799299" lon="27.432488">
        <ele>238.0</ele>
        <time>2014-03-15T06:04:07Z</time>
      </trkpt>
      <trkpt lat="53.79939" lon="27.43199">
        <ele>238.5</ele>
        <time>2014-03-15T06:04:13Z</time>
      </trkpt>
      <trkpt lat="53.799496" lon="27.431517">
        <ele>239.0</ele>
        <time>2014-03-15T06:04:19Z</time>
      </trkpt>
      <trkpt lat="53.799604" lon="27.431017">
        <ele>240.0</ele>
        <time>2014-03-15T06:04:25Z</time>
      </trkpt>
      <trkpt lat="53.799707" lon="27.430654">
        <ele>242.4</ele>
        <time>2014-03-15T06:04:30Z</time>
      </trkpt>
      <trkpt lat="53.799831" lon="27.430486">
        <ele>241.9</ele>
        <time>2014-03-15T06:04:33Z</time>
      </trkpt>
      <trkpt lat="53.799984" lon="27.430405">
        <ele>240.8</ele>
        <time>2014-03-15T06:04:36Z</time>
      </trkpt>
      <trkpt lat="53.800152" lon="27.430344">
        <ele>239.4</ele>
        <time>2014-03-15T06:04:39Z</time>
      </trkpt>
      <trkpt lat="53.800452" lon="27.430253">
        <ele>239.0</ele>
        <time>2014-03-15T06:04:45Z</time>
      </trkpt>
      <trkpt lat="53.800584" lon="27.429866">
        <ele>238.5</ele>
        <time>2014-03-15T06:04:51Z</time>
      </trkpt>
      <trkpt lat="53.800496" lon="27.429343">
        <ele>240.1</ele>
        <time>2014-03-15T06:04:58Z</time>
      </trkpt>
      <trkpt lat="53.800426" lon="27.428873">
        <ele>241.0</ele>
        <time>2014-03-15T06:05:04Z</time>
      </trkpt>
      <trkpt lat="53.800382" lon="27.428621">
        <ele>242.2</ele>
        <time>2014-03-15T06:05:07Z</time>
      </trkpt>
      <trkpt lat="53.800331" lon="27.42831">
        <ele>242.0</ele>
        <time>2014-03-15T06:05:11Z</time>
      </trkpt>
      <trkpt lat="53.800242" lon="27.427839">
        <ele>241.3</ele>
        <time>2014-03-15T06:05:17Z</time>
      </trkpt>
      <trkpt lat="53.800154" lon="27.427368">
        <ele>240.5</ele>
        <time>2014-03-15T06:05:22Z</time>
      </trkpt>
      <trkpt lat="53.800045" lon="27.426789">
        <ele>240.2</ele>
        <time>2014-03-15T06:05:28Z</time>
      </trkpt>
      <trkpt lat="53.799978" lon="27.426507">
        <ele>242.1</ele>
        <time>2014-03-15T06:05:31Z</time>
      </trkpt>
      <trkpt lat="53.799931" lon="27.426228">
        <ele>243.0</ele>
        <time>2014-03-15T06:05:34Z</time>
      </trkpt>
      <trkpt lat="53.799887" lon="27.425799">
        <ele>242.3</ele>
        <time>2014-03-15T06:05:39Z</time>
      </trkpt>
      <trkpt lat="53.799774" lon="27.425355">
        <ele>241.3</ele>
        <time>2014-03-15T06:05:45Z</time>
      </trkpt>
      <trkpt lat="53.799705" lon="27.425126">
        <ele>240.8</ele>
        <time>2014-03-15T06:05:48Z</time>
      </trkpt>
      <trkpt lat="53.799572" lon="27.424722">
        <ele>240.5</ele>
        <time>2014-03-15T06:05:53Z</time>
      </trkpt>
      <trkpt lat="53.799378" lon="27.424223">
        <ele>239.2</ele>
        <time>2014-03-15T06:05:59Z</time>
      </trkpt>
      <trkpt lat="53.799194" lon="27.423826">
        <ele>239.0</ele>
        <time>2014-03-15T06:06:04Z</time>
      </trkpt>
      <trkpt lat="53.798957" lon="27.423305">
        <ele>238.7</ele>
        <time>2014-03-15T06:06:10Z</time>
      </trkpt>
      <trkpt lat="53.798717" lon="27.42279">
        <ele>240.7</ele>
        <time>2014-03-15T06:06:16Z</time>
      </trkpt>
      <trkpt lat="53.798532" lon="27.422343">
        <ele>240.8</ele>
        <time>2014-03-15T06:06:21Z</time>
      </trkpt>
      <trkpt lat="53.798301" lon="27.421792">
        <ele>240.0</ele>
        <time>2014-03-15T06:06:27Z</time>
      </trkpt>
      <trkpt lat="53.798206" lon="27.421523">
        <ele>240.5</ele>
        <time>2014-03-15T06:06:30Z</time>
      </trkpt>
      <trkpt lat="53.797997" lon="27.421016">
        <ele>239.7</ele>
        <time>2014-03-15T06:06:36Z</time>
      </trkpt>
      <trkpt lat="53.797806" lon="27.420493">
        <ele>240.0</ele>
        <time>2014-03-15T06:06:42Z</time>
      </trkpt>
      <trkpt lat="53.797716" lon="27.420243">
        <ele>240.3</ele>
        <time>2014-03-15T06:06:45Z</time>
      </trkpt>
      <trkpt lat="53.797543" lon="27.419792">
        <ele>238.7</ele>
        <time>2014-03-15T06:06:51Z</time>
      </trkpt>
      <trkpt lat="53.797407" lon="27.419376">
        <ele>235.9</ele>
        <time>2014-03-15T06:06:56Z</time>
      </trkpt>
      <trkpt lat="53.797559" lon="27.419091">
        <ele>236.2</ele>
        <time>2014-03-15T06:07:02Z</time>
      </trkpt>
      <trkpt lat="53.797683" lon="27.418993">
        <ele>235.7</ele>
        <time>2014-03-15T06:07:05Z</time>
      </trkpt>
      <trkpt lat="53.797807" lon="27.418919">
        <ele>236.9</ele>
        <time>2014-03-15T06:07:08Z</time>
      </trkpt>
      <trkpt lat="53.798015" lon="27.418834">
        <ele>235.9</ele>
        <time>2014-03-15T06:07:13Z</time>
      </trkpt>
      <trkpt lat="53.798217" lon="27.418697">
        <ele>235.4</ele>
        <time>2014-03-15T06:07:19Z</time>
      </trkpt>
      <trkpt lat="53.798486" lon="27.418548">
        <ele>234.9</ele>
        <time>2014-03-15T06:07:26Z</time>
      </trkpt>
      <trkpt lat="53.798671" lon="27.418434">
        <ele>233.9</ele>
        <time>2014-03-15T06:07:32Z</time>
      </trkpt>
      <trkpt lat="53.798839" lon="27.41834">
        <ele>233.9</ele>
        <time>2014-03-15T06:07:37Z</time>
      </trkpt>
      <trkpt lat="53.798949" lon="27.418272">
        <ele>232.4</ele>
        <time>2014-03-15T06:07:40Z</time>
      </trkpt>
      <trkpt lat="53.799147" lon="27.418142">
        <ele>232.8</ele>
        <time>2014-03-15T06:07:46Z</time>
      </trkpt>
      <trkpt lat="53.799331" lon="27.418022">
        <ele>235.2</ele>
        <time>2014-03-15T06:07:53Z</time>
      </trkpt>
      <trkpt lat="53.799567" lon="27.417634">
        <ele>229.6</ele>
        <time>2014-03-15T06:08:04Z</time>
      </trkpt>
      <trkpt lat="53.799503" lon="27.417012">
        <ele>228.5</ele>
        <time>2014-03-15T06:08:12Z</time>
      </trkpt>
      <trkpt lat="53.799457" lon="27.41643">
        <ele>228.3</ele>
        <time>2014-03-15T06:08:18Z</time>
      </trkpt>
      <trkpt lat="53.799403" lon="27.415817">
        <ele>225.1</ele>
        <time>2014-03-15T06:08:24Z</time>
      </trkpt>
      <trkpt lat="53.799299" lon="27.41527">
        <ele>223.4</ele>
        <time>2014-03-15T06:08:30Z</time>
      </trkpt>
      <trkpt lat="53.799269" lon="27.414973">
        <ele>224.7</ele>
        <time>2014-03-15T06:08:34Z</time>
      </trkpt>
      <trkpt lat="53.799362" lon="27.41465">
        <ele>224.5</ele>
        <time>2014-03-15T06:08:39Z</time>
      </trkpt>
      <trkpt lat="53.799609" lon="27.41439">
        <ele>225.2</ele>
        <time>2014-03-15T06:08:45Z</time>
      </trkpt>
      <trkpt lat="53.799824" lon="27.414198">
        <ele>226.6</ele>
        <time>2014-03-15T06:08:50Z</time>
      </trkpt>
      <trkpt lat="53.800091" lon="27.413986">
        <ele>227.4</ele>
        <time>2014-03-15T06:08:56Z</time>
      </trkpt>
      <trkpt lat="53.800273" lon="27.413687">
        <ele>227.1</ele>
        <time>2014-03-15T06:09:01Z</time>
      </trkpt>
      <trkpt lat="53.800506" lon="27.413323">
        <ele>226.9</ele>
        <time>2014-03-15T06:09:07Z</time>
      </trkpt>
      <trkpt lat="53.800724" lon="27.412933">
        <ele>227.2</ele>
        <time>2014-03-15T06:09:13Z</time>
      </trkpt>
      <trkpt lat="53.800854" lon="27.412543">
        <ele>227.3</ele>
        <time>2014-03-15T06:09:18Z</time>
      </trkpt>
      <trkpt lat="53.800911" lon="27.412239">
        <ele>228.9</ele>
        <time>2014-03-15T06:09:23Z</time>
      </trkpt>
      <trkpt lat="53.800832" lon="27.411682">
        <ele>226.9</ele>
        <time>2014-03-15T06:09:30Z</time>
      </trkpt>
      <trkpt lat="53.800752" lon="27.411335">
        <ele>225.2</ele>
        <time>2014-03-15T06:09:35Z</time>
      </trkpt>
      <trkpt lat="53.800692" lon="27.411104">
        <ele>226.2</ele>
        <time>2014-03-15T06:09:38Z</time>
      </trkpt>
      <trkpt lat="53.800622" lon="27.410856">
        <ele>225.5</ele>
        <time>2014-03-15T06:09:41Z</time>
      </trkpt>
      <trkpt lat="53.800544" lon="27.410609">
        <ele>224.4</ele>
        <time>2014-03-15T06:09:44Z</time>
      </trkpt>
      <trkpt lat="53.800481" lon="27.410371">
        <ele>224.2</ele>
        <time>2014-03-15T06:09:47Z</time>
      </trkpt>
      <trkpt lat="53.800436" lon="27.410106">
        <ele>224.8</ele>
        <time>2014-03-15T06:09:51Z</time>
      </trkpt>
      <trkpt lat="53.800355" lon="27.409657">
        <ele>224.0</ele>
        <time>2014-03-15T06:09:57Z</time>
      </trkpt>
      <trkpt lat="53.800293" lon="27.409264">
        <ele>225.9</ele>
        <time>2014-03-15T06:10:02Z</time>
      </trkpt>
      <trkpt lat="53.800274" lon="27.409027">
        <ele>225.3</ele>
        <time>2014-03-15T06:10:05Z</time>
      </trkpt>
      <trkpt lat="53.80023" lon="27.408798">
        <ele>225.5</ele>
        <time>2014-03-15T06:10:08Z</time>
      </trkpt>
      <trkpt lat="53.800192" lon="27.408561">
        <ele>226.2</ele>
        <time>2014-03-15T06:10:11Z</time>
      </trkpt>
      <trkpt lat="53.800158" lon="27.408304">
        <ele>225.6</ele>
        <time>2014-03-15T06:10:14Z</time>
      </trkpt>
      <trkpt lat="53.80013" lon="27.408042">
        <ele>225.7</ele>
        <time>2014-03-15T06:10:17Z</time>
      </trkpt>
      <trkpt lat="53.800062" lon="27.40747">
        <ele>224.7</ele>
        <time>2014-03-15T06:10:23Z</time>
      </trkpt>
      <trkpt lat="53.799971" lon="27.406958">
        <ele>224.6</ele>
        <time>2014-03-15T06:10:29Z</time>
      </trkpt>
      <trkpt lat="53.799921" lon="27.406705">
        <ele>224.6</ele>
        <time>2014-03-15T06:10:32Z</time>
      </trkpt>
      <trkpt lat="53.799791" lon="27.406279">
        <ele>225.1</ele>
        <time>2014-03-15T06:10:37Z</time>
      </trkpt>
      <trkpt lat="53.79964" lon="27.405748">
        <ele>223.3</ele>
        <time>2014-03-15T06:10:43Z</time>
      </trkpt>
      <trkpt lat="53.799502" lon="27.40532">
        <ele>223.0</ele>
        <time>2014-03-15T06:10:48Z</time>
      </trkpt>
      <trkpt lat="53.799398" lon="27.405113">
        <ele>222.4</ele>
        <time>2014-03-15T06:10:51Z</time>
      </trkpt>
      <trkpt lat="53.799253" lon="27.405021">
        <ele>221.9</ele>
        <time>2014-03-15T06:10:54Z</time>
      </trkpt>
      <trkpt lat="53.798918" lon="27.405128">
        <ele>220.5</ele>
        <time>2014-03-15T06:11:00Z</time>
      </trkpt>
      <trkpt lat="53.798678" lon="27.405274">
        <ele>222.5</ele>
        <time>2014-03-15T06:11:05Z</time>
      </trkpt>
      <trkpt lat="53.7985" lon="27.405153">
        <ele>225.6</ele>
        <time>2014-03-15T06:11:10Z</time>
      </trkpt>
      <trkpt lat="53.798465" lon="27.404631">
        <ele>226.7</ele>
        <time>2014-03-15T06:11:17Z</time>
      </trkpt>
      <trkpt lat="53.798474" lon="27.40436">
        <ele>226.2</ele>
        <time>2014-03-15T06:11:20Z</time>
      </trkpt>
      <trkpt lat="53.798393" lon="27.403801">
        <ele>231.2</ele>
        <time>2014-03-15T06:11:26Z</time>
      </trkpt>
      <trkpt lat="53.798337" lon="27.403553">
        <ele>232.5</ele>
        <time>2014-03-15T06:11:29Z</time>
      </trkpt>
      <trkpt lat="53.798283" lon="27.403336">
        <ele>235.3</ele>
        <time>2014-03-15T06:11:32Z</time>
      </trkpt>
      <trkpt lat="53.798156" lon="27.403037">
        <ele>236.7</ele>
        <time>2014-03-15T06:11:37Z</time>
      </trkpt>
      <trkpt lat="53.798018" lon="27.40271">
        <ele>238.6</ele>
        <time>2014-03-15T06:11:42Z</time>
      </trkpt>
      <trkpt lat="53.797892" lon="27.402436">
        <ele>240.3</ele>
        <time>2014-03-15T06:11:48Z</time>
      </trkpt>
      <trkpt lat="53.797799" lon="27.402157">
        <ele>240.8</ele>
        <time>2014-03-15T06:11:54Z</time>
      </trkpt>
      <trkpt lat="53.797754" lon="27.401653">
        <ele>241.9</ele>
        <time>2014-03-15T06:12:03Z</time>
      </trkpt>
      <trkpt lat="53.797821" lon="27.401305">
        <ele>240.9</ele>
        <time>2014-03-15T06:12:10Z</time>
      </trkpt>
      <trkpt lat="53.797898" lon="27.400909">
        <ele>240.8</ele>
        <time>2014-03-15T06:12:16Z</time>
      </trkpt>
      <trkpt lat="53.798004" lon="27.400567">
        <ele>240.5</ele>
        <time>2014-03-15T06:12:22Z</time>
      </trkpt>
      <trkpt lat="53.798178" lon="27.400213">
        <ele>239.9</ele>
        <time>2014-03-15T06:12:28Z</time>
      </trkpt>
      <trkpt lat="53.798278" lon="27.400008">
        <ele>240.6</ele>
        <time>2014-03-15T06:12:31Z</time>
      </trkpt>
      <trkpt lat="53.798381" lon="27.399639">
        <ele>241.6</ele>
        <time>2014-03-15T06:12:36Z</time>
      </trkpt>
      <trkpt lat="53.798454" lon="27.399209">
        <ele>241.2</ele>
        <time>2014-03-15T06:12:41Z</time>
      </trkpt>
      <trkpt lat="53.798517" lon="27.398678">
        <ele>241.2</ele>
        <time>2014-03-15T06:12:47Z</time>
      </trkpt>
      <trkpt lat="53.798555" lon="27.398407">
        <ele>241.3</ele>
        <time>2014-03-15T06:12:50Z</time>
      </trkpt>
      <trkpt lat="53.798666" lon="27.397901">
        <ele>241.8</ele>
        <time>2014-03-15T06:12:56Z</time>
      </trkpt>
      <trkpt lat="53.798713" lon="27.397631">
        <ele>241.9</ele>
        <time>2014-03-15T06:12:59Z</time>
      </trkpt>
      <trkpt lat="53.798831" lon="27.397147">
        <ele>242.6</ele>
        <time>2014-03-15T06:13:05Z</time>
      </trkpt>
      <trkpt lat="53.798899" lon="27.39686">
        <ele>243.8</ele>
        <time>2014-03-15T06:13:09Z</time>
      </trkpt>
      <trkpt lat="53.798981" lon="27.396524">
        <ele>243.9</ele>
        <time>2014-03-15T06:13:14Z</time>
      </trkpt>
      <trkpt lat="53.799095" lon="27.396011">
        <ele>247.2</ele>
        <time>2014-03-15T06:13:22Z</time>
      </trkpt>
      <trkpt lat="53.799164" lon="27.395691">
        <ele>248.1</ele>
        <time>2014-03-15T06:13:27Z</time>
      </trkpt>
      <trkpt lat="53.799263" lon="27.395283">
        <ele>247.8</ele>
        <time>2014-03-15T06:13:33Z</time>
      </trkpt>
      <trkpt lat="53.799345" lon="27.394924">
        <ele>249.6</ele>
        <time>2014-03-15T06:13:38Z</time>
      </trkpt>
      <trkpt lat="53.799434" lon="27.394517">
        <ele>251.8</ele>
        <time>2014-03-15T06:13:44Z</time>
      </trkpt>
      <trkpt lat="53.799557" lon="27.394039">
        <ele>249.0</ele>
        <time>2014-03-15T06:13:50Z</time>
      </trkpt>
      <trkpt lat="53.799655" lon="27.393593">
        <ele>250.4</ele>
        <time>2014-03-15T06:13:56Z</time>
      </trkpt>
      <trkpt lat="53.799711" lon="27.393339">
        <ele>250.3</ele>
        <time>2014-03-15T06:13:59Z</time>
      </trkpt>
      <trkpt lat="53.799767" lon="27.393081">
        <ele>250.7</ele>
        <time>2014-03-15T06:14:02Z</time>
      </trkpt>
      <trkpt lat="53.799851" lon="27.392846">
        <ele>249.8</ele>
        <time>2014-03-15T06:14:05Z</time>
      </trkpt>
      <trkpt lat="53.800067" lon="27.392418">
        <ele>251.0</ele>
        <time>2014-03-15T06:14:11Z</time>
      </trkpt>
      <trkpt lat="53.800205" lon="27.392261">
        <ele>250.7</ele>
        <time>2014-03-15T06:14:14Z</time>
      </trkpt>
      <trkpt lat="53.800339" lon="27.392106">
        <ele>251.5</ele>
        <time>2014-03-15T06:14:17Z</time>
      </trkpt>
      <trkpt lat="53.800469" lon="27.391954">
        <ele>252.4</ele>
        <time>2014-03-15T06:14:20Z</time>
      </trkpt>
      <trkpt lat="53.800715" lon="27.391645">
        <ele>255.6</ele>
        <time>2014-03-15T06:14:26Z</time>
      </trkpt>
      <trkpt lat="53.800853" lon="27.391488">
        <ele>255.7</ele>
        <time>2014-03-15T06:14:29Z</time>
      </trkpt>
      <trkpt lat="53.800983" lon="27.391343">
        <ele>256.5</ele>
        <time>2014-03-15T06:14:32Z</time>
      </trkpt>
      <trkpt lat="53.801279" lon="27.391064">
        <ele>256.9</ele>
        <time>2014-03-15T06:14:38Z</time>
      </trkpt>
      <trkpt lat="53.801636" lon="27.390846">
        <ele>255.6</ele>
        <time>2014-03-15T06:14:44Z</time>
      </trkpt>
      <trkpt lat="53.801931" lon="27.390702">
        <ele>253.7</ele>
        <time>2014-03-15T06:14:49Z</time>
      </trkpt>
      <trkpt lat="53.802304" lon="27.390571">
        <ele>250.9</ele>
        <time>2014-03-15T06:14:55Z</time>
      </trkpt>
      <trkpt lat="53.802603" lon="27.390325">
        <ele>252.0</ele>
        <time>2014-03-15T06:15:02Z</time>
      </trkpt>
      <trkpt lat="53.80281" lon="27.39005">
        <ele>252.6</ele>
        <time>2014-03-15T06:15:08Z</time>
      </trkpt>
      <trkpt lat="53.803068" lon="27.389706">
        <ele>250.3</ele>
        <time>2014-03-15T06:15:13Z</time>
      </trkpt>
      <trkpt lat="53.803219" lon="27.389533">
        <ele>249.8</ele>
        <time>2014-03-15T06:15:16Z</time>
      </trkpt>
      <trkpt lat="53.803456" lon="27.389238">
        <ele>248.3</ele>
        <time>2014-03-15T06:15:21Z</time>
      </trkpt>
      <trkpt lat="53.803772" lon="27.388982">
        <ele>249.6</ele>
        <time>2014-03-15T06:15:27Z</time>
      </trkpt>
      <trkpt lat="53.804022" lon="27.388814">
        <ele>250.1</ele>
        <time>2014-03-15T06:15:32Z</time>
      </trkpt>
      <trkpt lat="53.80429" lon="27.388662">
        <ele>250.0</ele>
        <time>2014-03-15T06:15:37Z</time>
      </trkpt>
      <trkpt lat="53.804575" lon="27.388483">
        <ele>250.3</ele>
        <time>2014-03-15T06:15:43Z</time>
      </trkpt>
      <trkpt lat="53.804719" lon="27.388374">
        <ele>247.6</ele>
        <time>2014-03-15T06:15:49Z</time>
      </trkpt>
      <trkpt lat="53.804859" lon="27.3883">
        <ele>248.0</ele>
        <time>2014-03-15T06:15:54Z</time>
      </trkpt>
      <trkpt lat="53.805064" lon="27.388237">
        <ele>248.8</ele>
        <time>2014-03-15T06:16:01Z</time>
      </trkpt>
      <trkpt lat="53.805375" lon="27.388028">
        <ele>246.7</ele>
        <time>2014-03-15T06:16:07Z</time>
      </trkpt>
      <trkpt lat="53.805668" lon="27.387805">
        <ele>245.7</ele>
        <time>2014-03-15T06:16:14Z</time>
      </trkpt>
      <trkpt lat="53.805754" lon="27.387707">
        <ele>245.9</ele>
        <time>2014-03-15T06:16:18Z</time>
      </trkpt>
      <trkpt lat="53.805754" lon="27.387707">
        <time>2014-03-15T06:16:23Z</time>
      </trkpt>
    </trkseg>
    <trkseg>
      <trkpt lat="53.805754" lon="27.387707">
        <time>2014-03-15T06:16:48Z</time>
      </trkpt>
      <trkpt lat="53.805955" lon="27.387452">
        <ele>249.7</ele>
        <time>2014-03-15T06:16:48Z</time>
      </trkpt>
      <trkpt lat="53.806069" lon="27.387034">
        <ele>249.8</ele>
        <time>2014-03-15T06:16:56Z</time>
      </trkpt>
      <trkpt lat="53.806253" lon="27.386682">
        <ele>251.8</ele>
        <time>2014-03-15T06:17:03Z</time>
      </trkpt>
      <trkpt lat="53.806449" lon="27.38635">
        <ele>254.0</ele>
        <time>2014-03-15T06:17:09Z</time>
      </trkpt>
      <trkpt lat="53.806635" lon="27.386004">
        <ele>254.4</ele>
        <time>2014-03-15T06:17:15Z</time>
      </trkpt>
      <trkpt lat="53.806793" lon="27.385712">
        <ele>255.9</ele>
        <time>2014-03-15T06:17:20Z</time>
      </trkpt>
      <trkpt lat="53.80698" lon="27.385322">
        <ele>257.4</ele>
        <time>2014-03-15T06:17:26Z</time>
      </trkpt>
      <trkpt lat="53.807165" lon="27.384994">
        <ele>256.8</ele>
        <time>2014-03-15T06:17:31Z</time>
      </trkpt>
      <trkpt lat="53.807272" lon="27.384797">
        <ele>256.8</ele>
        <time>2014-03-15T06:17:34Z</time>
      </trkpt>
      <trkpt lat="53.807381" lon="27.384609">
        <ele>258.4</ele>
        <time>2014-03-15T06:17:37Z</time>
      </trkpt>
      <trkpt lat="53.807486" lon="27.384403">
        <ele>257.8</ele>
        <time>2014-03-15T06:17:40Z</time>
      </trkpt>
      <trkpt lat="53.807582" lon="27.384208">
        <ele>259.6</ele>
        <time>2014-03-15T06:17:43Z</time>
      </trkpt>
      <trkpt lat="53.807692" lon="27.384016">
        <ele>259.5</ele>
        <time>2014-03-15T06:17:46Z</time>
      </trkpt>
      <trkpt lat="53.807809" lon="27.383826">
        <ele>259.1</ele>
        <time>2014-03-15T06:17:49Z</time>
      </trkpt>
      <trkpt lat="53.808013" lon="27.383479">
        <ele>259.6</ele>
        <time>2014-03-15T06:17:54Z</time>
      </trkpt>
      <trkpt lat="53.808258" lon="27.383051">
        <ele>260.5</ele>
        <time>2014-03-15T06:18:00Z</time>
      </trkpt>
      <trkpt lat="53.808518" lon="27.382551">
        <ele>259.4</ele>
        <time>2014-03-15T06:18:06Z</time>
      </trkpt>
      <trkpt lat="53.808747" lon="27.382122">
        <ele>258.4</ele>
        <time>2014-03-15T06:18:11Z</time>
      </trkpt>
      <trkpt lat="53.80888" lon="27.381869">
        <ele>257.8</ele>
        <time>2014-03-15T06:18:14Z</time>
      </trkpt>
      <trkpt lat="53.809123" lon="27.381483">
        <ele>256.1</ele>
        <time>2014-03-15T06:18:19Z</time>
      </trkpt>
      <trkpt lat="53.809659" lon="27.380486">
        <ele>254.5</ele>
        <time>2014-03-15T06:18:29Z</time>
      </trkpt>
      <trkpt lat="53.809839" lon="27.379553">
        <ele>248.8</ele>
        <time>2014-03-15T06:18:35Z</time>
      </trkpt>
      <trkpt lat="53.810029" lon="27.378661">
        <ele>252.8</ele>
        <time>2014-03-15T06:18:40Z</time>
      </trkpt>
      <trkpt lat="53.810112" lon="27.377351">
        <ele>253.4</ele>
        <time>2014-03-15T06:18:47Z</time>
      </trkpt>
      <trkpt lat="53.810217" lon="27.376386">
        <ele>252.6</ele>
        <time>2014-03-15T06:18:53Z</time>
      </trkpt>
      <trkpt lat="53.810336" lon="27.375707">
        <ele>251.3</ele>
        <time>2014-03-15T06:18:58Z</time>
      </trkpt>
      <trkpt lat="53.810546" lon="27.375071">
        <ele>253.6</ele>
        <time>2014-03-15T06:19:04Z</time>
      </trkpt>
      <trkpt lat="53.810871" lon="27.374365">
        <ele>257.3</ele>
        <time>2014-03-15T06:19:12Z</time>
      </trkpt>
      <trkpt lat="53.811106" lon="27.374004">
        <ele>258.1</ele>
        <time>2014-03-15T06:19:17Z</time>
      </trkpt>
      <trkpt lat="53.81136" lon="27.373667">
        <ele>260.2</ele>
        <time>2014-03-15T06:19:22Z</time>
      </trkpt>
      <trkpt lat="53.811742" lon="27.373244">
        <ele>259.7</ele>
        <time>2014-03-15T06:19:29Z</time>
      </trkpt>
      <trkpt lat="53.812084" lon="27.372878">
        <ele>254.8</ele>
        <time>2014-03-15T06:19:35Z</time>
      </trkpt>
      <trkpt lat="53.812411" lon="27.372555">
        <ele>251.3</ele>
        <time>2014-03-15T06:19:41Z</time>
      </trkpt>
      <trkpt lat="53.812696" lon="27.372263">
        <ele>251.0</ele>
        <time>2014-03-15T06:19:46Z</time>
      </trkpt>
      <trkpt lat="53.812868" lon="27.372122">
        <ele>249.4</ele>
        <time>2014-03-15T06:19:49Z</time>
      </trkpt>
      <trkpt lat="53.813047" lon="27.372018">
        <ele>249.8</ele>
        <time>2014-03-15T06:19:52Z</time>
      </trkpt>
      <trkpt lat="53.813412" lon="27.371818">
        <ele>249.6</ele>
        <time>2014-03-15T06:19:58Z</time>
      </trkpt>
      <trkpt lat="53.813774" lon="27.371568">
        <ele>249.6</ele>
        <time>2014-03-15T06:20:04Z</time>
      </trkpt>
      <trkpt lat="53.814082" lon="27.371244">
        <ele>251.3</ele>
        <time>2014-03-15T06:20:10Z</time>
      </trkpt>
      <trkpt lat="53.814341" lon="27.370909">
        <ele>245.7</ele>
        <time>2014-03-15T06:20:15Z</time>
      </trkpt>
      <trkpt lat="53.814608" lon="27.370558">
        <ele>244.2</ele>
        <time>2014-03-15T06:20:20Z</time>
      </trkpt>
      <trkpt lat="53.814893" lon="27.369981">
        <ele>243.5</ele>
        <time>2014-03-15T06:20:26Z</time>
      </trkpt>
      <trkpt lat="53.815067" lon="27.369532">
        <ele>242.6</ele>
        <time>2014-03-15T06:20:30Z</time>
      </trkpt>
      <trkpt lat="53.815201" lon="27.368896">
        <ele>239.0</ele>
        <time>2014-03-15T06:20:35Z</time>
      </trkpt>
      <trkpt lat="53.815379" lon="27.368204">
        <ele>239.6</ele>
        <time>2014-03-15T06:20:41Z</time>
      </trkpt>
      <trkpt lat="53.815455" lon="27.367888">
        <ele>238.9</ele>
        <time>2014-03-15T06:20:44Z</time>
      </trkpt>
      <trkpt lat="53.815559" lon="27.367401">
        <ele>238.5</ele>
        <time>2014-03-15T06:20:49Z</time>
      </trkpt>
      <trkpt lat="53.815704" lon="27.366796">
        <ele>237.2</ele>
        <time>2014-03-15T06:20:55Z</time>
      </trkpt>
      <trkpt lat="53.816005" lon="27.366425">
        <ele>237.9</ele>
        <time>2014-03-15T06:21:01Z</time>
      </trkpt>
      <trkpt lat="53.816321" lon="27.366108">
        <ele>238.6</ele>
        <time>2014-03-15T06:21:07Z</time>
      </trkpt>
      <trkpt lat="53.816581" lon="27.365872">
        <ele>240.4</ele>
        <time>2014-03-15T06:21:12Z</time>
      </trkpt>
      <trkpt lat="53.816881" lon="27.365548">
        <ele>241.1</ele>
        <time>2014-03-15T06:21:18Z</time>
      </trkpt>
      <trkpt lat="53.817018" lon="27.365382">
        <ele>243.1</ele>
        <time>2014-03-15T06:21:21Z</time>
      </trkpt>
      <trkpt lat="53.817132" lon="27.365137">
        <ele>242.6</ele>
        <time>2014-03-15T06:21:25Z</time>
      </trkpt>
      <trkpt lat="53.817182" lon="27.364905">
        <ele>244.8</ele>
        <time>2014-03-15T06:21:29Z</time>
      </trkpt>
      <trkpt lat="53.817232" lon="27.364649">
        <ele>244.9</ele>
        <time>2014-03-15T06:21:35Z</time>
      </trkpt>
      <trkpt lat="53.817277" lon="27.364324">
        <ele>243.6</ele>
        <time>2014-03-15T06:21:42Z</time>
      </trkpt>
      <trkpt lat="53.817337" lon="27.364079">
        <ele>247.1</ele>
        <time>2014-03-15T06:21:48Z</time>
      </trkpt>
      <trkpt lat="53.817373" lon="27.363793">
        <ele>248.9</ele>
        <time>2014-03-15T06:21:55Z</time>
      </trkpt>
      <trkpt lat="53.817465" lon="27.363374">
        <ele>258.4</ele>
        <time>2014-03-15T06:22:04Z</time>
      </trkpt>
      <trkpt lat="53.8175" lon="27.363164">
        <ele>261.4</ele>
        <time>2014-03-15T06:22:08Z</time>
      </trkpt>
      <trkpt lat="53.817531" lon="27.363002">
        <ele>262.9</ele>
        <time>2014-03-15T06:22:11Z</time>
      </trkpt>
      <trkpt lat="53.817607" lon="27.362637">
        <ele>266.0</ele>
        <time>2014-03-15T06:22:18Z</time>
      </trkpt>
      <trkpt lat="53.817697" lon="27.362231">
        <ele>266.1</ele>
        <time>2014-03-15T06:22:25Z</time>
      </trkpt>
      <trkpt lat="53.81777" lon="27.361946">
        <ele>265.8</ele>
        <time>2014-03-15T06:22:30Z</time>
      </trkpt>
      <trkpt lat="53.81788" lon="27.361711">
        <ele>263.9</ele>
        <time>2014-03-15T06:22:35Z</time>
      </trkpt>
      <trkpt lat="53.818097" lon="27.361805">
        <ele>261.9</ele>
        <time>2014-03-15T06:22:41Z</time>
      </trkpt>
      <trkpt lat="53.818359" lon="27.361973">
        <ele>261.0</ele>
        <time>2014-03-15T06:22:48Z</time>
      </trkpt>
      <trkpt lat="53.818588" lon="27.362115">
        <ele>259.2</ele>
        <time>2014-03-15T06:22:53Z</time>
      </trkpt>
      <trkpt lat="53.818891" lon="27.362195">
        <ele>254.3</ele>
        <time>2014-03-15T06:22:59Z</time>
      </trkpt>
      <trkpt lat="53.819044" lon="27.362331">
        <ele>252.4</ele>
        <time>2014-03-15T06:23:02Z</time>
      </trkpt>
      <trkpt lat="53.819327" lon="27.362596">
        <ele>251.0</ele>
        <time>2014-03-15T06:23:08Z</time>
      </trkpt>
      <trkpt lat="53.81951" lon="27.362862">
        <ele>248.7</ele>
        <time>2014-03-15T06:23:13Z</time>
      </trkpt>
      <trkpt lat="53.8197" lon="27.363199">
        <ele>247.9</ele>
        <time>2014-03-15T06:23:20Z</time>
      </trkpt>
      <trkpt lat="53.819839" lon="27.363445">
        <ele>247.1</ele>
        <time>2014-03-15T06:23:25Z</time>
      </trkpt>
      <trkpt lat="53.820021" lon="27.36367">
        <ele>247.5</ele>
        <time>2014-03-15T06:23:32Z</time>
      </trkpt>
      <trkpt lat="53.8203" lon="27.364">
        <ele>244.5</ele>
        <time>2014-03-15T06:23:39Z</time>
      </trkpt>
      <trkpt lat="53.82044" lon="27.364155">
        <ele>243.0</ele>
        <time>2014-03-15T06:23:42Z</time>
      </trkpt>
      <trkpt lat="53.820612" lon="27.363961">
        <ele>238.5</ele>
        <time>2014-03-15T06:23:48Z</time>
      </trkpt>
      <trkpt lat="53.820894" lon="27.363642">
        <ele>235.9</ele>
        <time>2014-03-15T06:23:54Z</time>
      </trkpt>
      <trkpt lat="53.821223" lon="27.363517">
        <ele>234.2</ele>
        <time>2014-03-15T06:24:00Z</time>
      </trkpt>
      <trkpt lat="53.821494" lon="27.363676">
        <ele>233.5</ele>
        <time>2014-03-15T06:24:05Z</time>
      </trkpt>
      <trkpt lat="53.821729" lon="27.364037">
        <ele>233.7</ele>
        <time>2014-03-15T06:24:10Z</time>
      </trkpt>
      <trkpt lat="53.822051" lon="27.364381">
        <ele>236.0</ele>
        <time>2014-03-15T06:24:16Z</time>
      </trkpt>
      <trkpt lat="53.822327" lon="27.36452">
        <ele>237.6</ele>
        <time>2014-03-15T06:24:21Z</time>
      </trkpt>
      <trkpt lat="53.822548" lon="27.364629">
        <ele>239.7</ele>
        <time>2014-03-15T06:24:27Z</time>
      </trkpt>
      <trkpt lat="53.822843" lon="27.364668">
        <ele>245.9</ele>
        <time>2014-03-15T06:24:36Z</time>
      </trkpt>
      <trkpt lat="53.823176" lon="27.364674">
        <ele>250.3</ele>
        <time>2014-03-15T06:24:46Z</time>
      </trkpt>
      <trkpt lat="53.823469" lon="27.364719">
        <ele>247.4</ele>
        <time>2014-03-15T06:24:52Z</time>
      </trkpt>
      <trkpt lat="53.823785" lon="27.364785">
        <ele>246.9</ele>
        <time>2014-03-15T06:24:58Z</time>
      </trkpt>
      <trkpt lat="53.824062" lon="27.364863">
        <ele>249.2</ele>
        <time>2014-03-15T06:25:04Z</time>
      </trkpt>
      <trkpt lat="53.824243" lon="27.364894">
        <ele>250.5</ele>
        <time>2014-03-15T06:25:08Z</time>
      </trkpt>
      <trkpt lat="53.824512" lon="27.36491">
        <ele>249.9</ele>
        <time>2014-03-15T06:25:13Z</time>
      </trkpt>
      <trkpt lat="53.824866" lon="27.365002">
        <ele>248.7</ele>
        <time>2014-03-15T06:25:19Z</time>
      </trkpt>
      <trkpt lat="53.825211" lon="27.365076">
        <ele>247.4</ele>
        <time>2014-03-15T06:25:24Z</time>
      </trkpt>
      <trkpt lat="53.82557" lon="27.365144">
        <ele>244.7</ele>
        <time>2014-03-15T06:25:29Z</time>
      </trkpt>
      <trkpt lat="53.825894" lon="27.365167">
        <ele>243.5</ele>
        <time>2014-03-15T06:25:34Z</time>
      </trkpt>
      <trkpt lat="53.826094" lon="27.365201">
        <ele>244.0</ele>
        <time>2014-03-15T06:25:37Z</time>
      </trkpt>
      <trkpt lat="53.826464" lon="27.365242">
        <ele>245.6</ele>
        <time>2014-03-15T06:25:43Z</time>
      </trkpt>
      <trkpt lat="53.826828" lon="27.365351">
        <ele>242.1</ele>
        <time>2014-03-15T06:25:49Z</time>
      </trkpt>
      <trkpt lat="53.827178" lon="27.365441">
        <ele>241.8</ele>
        <time>2014-03-15T06:25:55Z</time>
      </trkpt>
      <trkpt lat="53.827585" lon="27.365591">
        <ele>239.5</ele>
        <time>2014-03-15T06:26:01Z</time>
      </trkpt>
      <trkpt lat="53.827944" lon="27.365726">
        <ele>234.4</ele>
        <time>2014-03-15T06:26:07Z</time>
      </trkpt>
      <trkpt lat="53.828166" lon="27.36592">
        <ele>232.7</ele>
        <time>2014-03-15T06:26:11Z</time>
      </trkpt>
      <trkpt lat="53.828241" lon="27.366254">
        <ele>232.5</ele>
        <time>2014-03-15T06:26:17Z</time>
      </trkpt>
      <trkpt lat="53.82823" lon="27.366761">
        <ele>233.4</ele>
        <time>2014-03-15T06:26:24Z</time>
      </trkpt>
      <trkpt lat="53.828175" lon="27.367047">
        <ele>235.5</ele>
        <time>2014-03-15T06:26:29Z</time>
      </trkpt>
      <trkpt lat="53.828078" lon="27.367541">
        <ele>227.8</ele>
        <time>2014-03-15T06:26:38Z</time>
      </trkpt>
      <trkpt lat="53.828107" lon="27.367792">
        <ele>228.0</ele>
        <time>2014-03-15T06:26:46Z</time>
      </trkpt>
      <trkpt lat="53.828246" lon="27.367838">
        <ele>226.7</ele>
        <time>2014-03-15T06:26:53Z</time>
      </trkpt>
      <trkpt lat="53.828486" lon="27.368072">
        <ele>227.9</ele>
        <time>2014-03-15T06:27:04Z</time>
      </trkpt>
      <trkpt lat="53.828604" lon="27.368234">
        <ele>226.8</ele>
        <time>2014-03-15T06:27:13Z</time>
      </trkpt>
      <trkpt lat="53.828726" lon="27.368471">
        <ele>225.8</ele>
        <time>2014-03-15T06:27:21Z</time>
      </trkpt>
      <trkpt lat="53.828859" lon="27.368731">
        <ele>228.1</ele>
        <time>2014-03-15T06:27:28Z</time>
      </trkpt>
      <trkpt lat="53.828983" lon="27.368883">
        <ele>229.7</ele>
        <time>2014-03-15T06:27:34Z</time>
      </trkpt>
      <trkpt lat="53.829091" lon="27.368987">
        <ele>228.3</ele>
        <time>2014-03-15T06:27:40Z</time>
      </trkpt>
      <trkpt lat="53.829205" lon="27.369199">
        <ele>230.7</ele>
        <time>2014-03-15T06:27:47Z</time>
      </trkpt>
      <trkpt lat="53.829326" lon="27.369409">
        <ele>231.8</ele>
        <time>2014-03-15T06:27:54Z</time>
      </trkpt>
      <trkpt lat="53.829476" lon="27.369664">
        <ele>237.7</ele>
        <time>2014-03-15T06:28:05Z</time>
      </trkpt>
      <trkpt lat="53.829601" lon="27.369941">
        <ele>245.6</ele>
        <time>2014-03-15T06:28:16Z</time>
      </trkpt>
      <trkpt lat="53.82975" lon="27.370146">
        <ele>259.9</ele>
        <time>2014-03-15T06:28:29Z</time>
      </trkpt>
      <trkpt lat="53.829856" lon="27.370454">
        <ele>259.6</ele>
        <time>2014-03-15T06:28:40Z</time>
      </trkpt>
      <trkpt lat="53.82999" lon="27.370623">
        <ele>260.7</ele>
        <time>2014-03-15T06:28:49Z</time>
      </trkpt>
      <trkpt lat="53.830203" lon="27.370895">
        <ele>259.3</ele>
        <time>2014-03-15T06:29:02Z</time>
      </trkpt>
      <trkpt lat="53.830416" lon="27.371223">
        <ele>257.9</ele>
        <time>2014-03-15T06:29:13Z</time>
      </trkpt>
      <trkpt lat="53.830576" lon="27.371354">
        <ele>259.4</ele>
        <time>2014-03-15T06:29:20Z</time>
      </trkpt>
      <trkpt lat="53.830717" lon="27.371509">
        <ele>256.4</ele>
        <time>2014-03-15T06:29:26Z</time>
      </trkpt>
      <trkpt lat="53.830855" lon="27.37178">
        <ele>258.6</ele>
        <time>2014-03-15T06:29:33Z</time>
      </trkpt>
      <trkpt lat="53.83101" lon="27.371983">
        <ele>258.9</ele>
        <time>2014-03-15T06:29:40Z</time>
      </trkpt>
      <trkpt lat="53.831266" lon="27.372245">
        <ele>256.1</ele>
        <time>2014-03-15T06:29:50Z</time>
      </trkpt>
      <trkpt lat="53.831422" lon="27.372396">
        <ele>256.4</ele>
        <time>2014-03-15T06:29:56Z</time>
      </trkpt>
      <trkpt lat="53.831558" lon="27.372555">
        <ele>256.0</ele>
        <time>2014-03-15T06:30:01Z</time>
      </trkpt>
      <trkpt lat="53.831709" lon="27.372854">
        <ele>256.5</ele>
        <time>2014-03-15T06:30:09Z</time>
      </trkpt>
      <trkpt lat="53.83186" lon="27.373213">
        <ele>254.0</ele>
        <time>2014-03-15T06:30:17Z</time>
      </trkpt>
      <trkpt lat="53.832004" lon="27.373396">
        <ele>254.2</ele>
        <time>2014-03-15T06:30:24Z</time>
      </trkpt>
      <trkpt lat="53.832254" lon="27.373735">
        <ele>252.4</ele>
        <time>2014-03-15T06:30:33Z</time>
      </trkpt>
      <trkpt lat="53.832448" lon="27.373864">
        <ele>254.4</ele>
        <time>2014-03-15T06:30:39Z</time>
      </trkpt>
      <trkpt lat="53.832654" lon="27.373955">
        <ele>256.1</ele>
        <time>2014-03-15T06:30:45Z</time>
      </trkpt>
      <trkpt lat="53.832909" lon="27.374058">
        <ele>256.9</ele>
        <time>2014-03-15T06:30:53Z</time>
      </trkpt>
      <trkpt lat="53.833192" lon="27.374117">
        <ele>255.4</ele>
        <time>2014-03-15T06:31:01Z</time>
      </trkpt>
      <trkpt lat="53.833469" lon="27.374192">
        <ele>255.7</ele>
        <time>2014-03-15T06:31:08Z</time>
      </trkpt>
      <trkpt lat="53.833677" lon="27.374237">
        <ele>256.3</ele>
        <time>2014-03-15T06:31:13Z</time>
      </trkpt>
      <trkpt lat="53.833845" lon="27.374241">
        <ele>254.6</ele>
        <time>2014-03-15T06:31:17Z</time>
      </trkpt>
      <trkpt lat="53.834158" lon="27.374256">
        <ele>254.2</ele>
        <time>2014-03-15T06:31:23Z</time>
      </trkpt>
      <trkpt lat="53.834384" lon="27.374355">
        <ele>254.5</ele>
        <time>2014-03-15T06:31:28Z</time>
      </trkpt>
      <trkpt lat="53.834648" lon="27.374344">
        <ele>251.8</ele>
        <time>2014-03-15T06:31:34Z</time>
      </trkpt>
      <trkpt lat="53.834865" lon="27.374343">
        <ele>251.0</ele>
        <time>2014-03-15T06:31:39Z</time>
      </trkpt>
      <trkpt lat="53.835027" lon="27.374294">
        <ele>252.0</ele>
        <time>2014-03-15T06:31:43Z</time>
      </trkpt>
      <trkpt lat="53.835327" lon="27.374242">
        <ele>251.7</ele>
        <time>2014-03-15T06:31:49Z</time>
      </trkpt>
      <trkpt lat="53.835476" lon="27.374202">
        <ele>251.1</ele>
        <time>2014-03-15T06:31:52Z</time>
      </trkpt>
      <trkpt lat="53.835781" lon="27.374114">
        <ele>250.6</ele>
        <time>2014-03-15T06:31:58Z</time>
      </trkpt>
      <trkpt lat="53.836146" lon="27.374028">
        <ele>250.7</ele>
        <time>2014-03-15T06:32:04Z</time>
      </trkpt>
      <trkpt lat="53.836516" lon="27.373926">
        <ele>250.9</ele>
        <time>2014-03-15T06:32:10Z</time>
      </trkpt>
      <trkpt lat="53.836904" lon="27.373836">
        <ele>251.9</ele>
        <time>2014-03-15T06:32:16Z</time>
      </trkpt>
      <trkpt lat="53.837262" lon="27.373767">
        <ele>252.5</ele>
        <time>2014-03-15T06:32:22Z</time>
      </trkpt>
      <trkpt lat="53.837601" lon="27.373667">
        <ele>255.9</ele>
        <time>2014-03-15T06:32:28Z</time>
      </trkpt>
      <trkpt lat="53.837939" lon="27.373583">
        <ele>257.7</ele>
        <time>2014-03-15T06:32:34Z</time>
      </trkpt>
      <trkpt lat="53.83824" lon="27.373488">
        <ele>256.8</ele>
        <time>2014-03-15T06:32:40Z</time>
      </trkpt>
      <trkpt lat="53.838516" lon="27.373518">
        <ele>255.7</ele>
        <time>2014-03-15T06:32:46Z</time>
      </trkpt>
      <trkpt lat="53.838688" lon="27.373522">
        <ele>255.5</ele>
        <time>2014-03-15T06:32:49Z</time>
      </trkpt>
      <trkpt lat="53.839021" lon="27.373573">
        <ele>255.7</ele>
        <time>2014-03-15T06:32:55Z</time>
      </trkpt>
      <trkpt lat="53.839392" lon="27.373648">
        <ele>254.8</ele>
        <time>2014-03-15T06:33:01Z</time>
      </trkpt>
      <trkpt lat="53.839725" lon="27.373659">
        <ele>252.7</ele>
        <time>2014-03-15T06:33:07Z</time>
      </trkpt>
      <trkpt lat="53.840057" lon="27.373733">
        <ele>252.4</ele>
        <time>2014-03-15T06:33:13Z</time>
      </trkpt>
      <trkpt lat="53.840421" lon="27.373814">
        <ele>250.1</ele>
        <time>2014-03-15T06:33:19Z</time>
      </trkpt>
      <trkpt lat="53.840801" lon="27.37385">
        <ele>249.1</ele>
        <time>2014-03-15T06:33:25Z</time>
      </trkpt>
      <trkpt lat="53.841132" lon="27.373872">
        <ele>249.8</ele>
        <time>2014-03-15T06:33:30Z</time>
      </trkpt>
      <trkpt lat="53.841311" lon="27.373879">
        <ele>249.9</ele>
        <time>2014-03-15T06:33:33Z</time>
      </trkpt>
      <trkpt lat="53.841488" lon="27.373925">
        <ele>248.9</ele>
        <time>2014-03-15T06:33:36Z</time>
      </trkpt>
      <trkpt lat="53.841668" lon="27.373938">
        <ele>248.8</ele>
        <time>2014-03-15T06:33:39Z</time>
      </trkpt>
      <trkpt lat="53.842051" lon="27.373982">
        <ele>247.2</ele>
        <time>2014-03-15T06:33:45Z</time>
      </trkpt>
      <trkpt lat="53.842491" lon="27.374004">
        <ele>244.8</ele>
        <time>2014-03-15T06:33:51Z</time>
      </trkpt>
      <trkpt lat="53.842871" lon="27.374051">
        <ele>242.7</ele>
        <time>2014-03-15T06:33:56Z</time>
      </trkpt>
      <trkpt lat="53.843327" lon="27.374065">
        <ele>242.3</ele>
        <time>2014-03-15T06:34:02Z</time>
      </trkpt>
      <trkpt lat="53.843723" lon="27.373772">
        <ele>244.4</ele>
        <time>2014-03-15T06:34:08Z</time>
      </trkpt>
      <trkpt lat="53.844034" lon="27.373519">
        <ele>244.8</ele>
        <time>2014-03-15T06:34:13Z</time>
      </trkpt>
      <trkpt lat="53.844415" lon="27.37349">
        <ele>247.5</ele>
        <time>2014-03-15T06:34:19Z</time>
      </trkpt>
      <trkpt lat="53.844769" lon="27.373537">
        <ele>248.8</ele>
        <time>2014-03-15T06:34:25Z</time>
      </trkpt>
      <trkpt lat="53.845116" lon="27.373616">
        <ele>249.7</ele>
        <time>2014-03-15T06:34:31Z</time>
      </trkpt>
      <trkpt lat="53.845413" lon="27.373701">
        <ele>250.7</ele>
        <time>2014-03-15T06:34:36Z</time>
      </trkpt>
      <trkpt lat="53.845745" lon="27.373813">
        <ele>252.4</ele>
        <time>2014-03-15T06:34:42Z</time>
      </trkpt>
      <trkpt lat="53.845901" lon="27.373855">
        <ele>252.1</ele>
        <time>2014-03-15T06:34:45Z</time>
      </trkpt>
      <trkpt lat="53.846149" lon="27.373935">
        <ele>252.3</ele>
        <time>2014-03-15T06:34:50Z</time>
      </trkpt>
      <trkpt lat="53.846424" lon="27.373876">
        <ele>254.9</ele>
        <time>2014-03-15T06:34:56Z</time>
      </trkpt>
      <trkpt lat="53.846802" lon="27.374031">
        <ele>253.7</ele>
        <time>2014-03-15T06:35:04Z</time>
      </trkpt>
      <trkpt lat="53.847094" lon="27.374227">
        <ele>254.8</ele>
        <time>2014-03-15T06:35:10Z</time>
      </trkpt>
      <trkpt lat="53.84733" lon="27.374451">
        <ele>256.0</ele>
        <time>2014-03-15T06:35:15Z</time>
      </trkpt>
      <trkpt lat="53.847663" lon="27.374685">
        <ele>257.1</ele>
        <time>2014-03-15T06:35:21Z</time>
      </trkpt>
      <trkpt lat="53.847851" lon="27.375095">
        <ele>256.7</ele>
        <time>2014-03-15T06:35:27Z</time>
      </trkpt>
      <trkpt lat="53.847876" lon="27.37561">
        <ele>259.9</ele>
        <time>2014-03-15T06:35:33Z</time>
      </trkpt>
      <trkpt lat="53.847863" lon="27.376171">
        <ele>261.8</ele>
        <time>2014-03-15T06:35:39Z</time>
      </trkpt>
      <trkpt lat="53.847865" lon="27.376452">
        <ele>264.5</ele>
        <time>2014-03-15T06:35:42Z</time>
      </trkpt>
      <trkpt lat="53.847815" lon="27.37698">
        <ele>263.7</ele>
        <time>2014-03-15T06:35:48Z</time>
      </trkpt>
      <trkpt lat="53.847802" lon="27.377454">
        <ele>264.5</ele>
        <time>2014-03-15T06:35:53Z</time>
      </trkpt>
      <trkpt lat="53.847805" lon="27.377924">
        <ele>264.6</ele>
        <time>2014-03-15T06:35:58Z</time>
      </trkpt>
      <trkpt lat="53.847781" lon="27.378379">
        <ele>266.7</ele>
        <time>2014-03-15T06:36:03Z</time>
      </trkpt>
      <trkpt lat="53.847759" lon="27.378944">
        <ele>265.8</ele>
        <time>2014-03-15T06:36:09Z</time>
      </trkpt>
      <trkpt lat="53.847745" lon="27.379227">
        <ele>265.8</ele>
        <time>2014-03-15T06:36:12Z</time>
      </trkpt>
      <trkpt lat="53.84773" lon="27.37955">
        <ele>265.3</ele>
        <time>2014-03-15T06:36:15Z</time>
      </trkpt>
      <trkpt lat="53.84771" lon="27.379892">
        <ele>263.4</ele>
        <time>2014-03-15T06:36:18Z</time>
      </trkpt>
      <trkpt lat="53.847672" lon="27.380469">
        <ele>262.9</ele>
        <time>2014-03-15T06:36:23Z</time>
      </trkpt>
      <trkpt lat="53.847635" lon="27.381078">
        <ele>262.0</ele>
        <time>2014-03-15T06:36:29Z</time>
      </trkpt>
      <trkpt lat="53.847616" lon="27.381676">
        <ele>262.2</ele>
        <time>2014-03-15T06:36:35Z</time>
      </trkpt>
      <trkpt lat="53.84759" lon="27.382243">
        <ele>263.9</ele>
        <time>2014-03-15T06:36:41Z</time>
      </trkpt>
      <trkpt lat="53.847587" lon="27.382545">
        <ele>263.9</ele>
        <time>2014-03-15T06:36:44Z</time>
      </trkpt>
      <trkpt lat="53.847568" lon="27.383133">
        <ele>263.4</ele>
        <time>2014-03-15T06:36:50Z</time>
      </trkpt>
      <trkpt lat="53.847539" lon="27.383695">
        <ele>265.8</ele>
        <time>2014-03-15T06:36:56Z</time>
      </trkpt>
      <trkpt lat="53.847506" lon="27.384288">
        <ele>267.8</ele>
        <time>2014-03-15T06:37:02Z</time>
      </trkpt>
      <trkpt lat="53.847483" lon="27.38478">
        <ele>267.7</ele>
        <time>2014-03-15T06:37:07Z</time>
      </trkpt>
      <trkpt lat="53.84744" lon="27.385374">
        <ele>269.3</ele>
        <time>2014-03-15T06:37:13Z</time>
      </trkpt>
      <trkpt lat="53.847418" lon="27.385661">
        <ele>268.5</ele>
        <time>2014-03-15T06:37:16Z</time>
      </trkpt>
      <trkpt lat="53.847379" lon="27.386219">
        <ele>271.0</ele>
        <time>2014-03-15T06:37:22Z</time>
      </trkpt>
      <trkpt lat="53.847329" lon="27.386727">
        <ele>271.1</ele>
        <time>2014-03-15T06:37:28Z</time>
      </trkpt>
      <trkpt lat="53.847301" lon="27.387204">
        <ele>270.3</ele>
        <time>2014-03-15T06:37:34Z</time>
      </trkpt>
      <trkpt lat="53.847231" lon="27.38767">
        <ele>270.8</ele>
        <time>2014-03-15T06:37:40Z</time>
      </trkpt>
      <trkpt lat="53.847216" lon="27.387925">
        <ele>270.3</ele>
        <time>2014-03-15T06:37:43Z</time>
      </trkpt>
      <trkpt lat="53.84718" lon="27.388162">
        <ele>270.1</ele>
        <time>2014-03-15T06:37:46Z</time>
      </trkpt>
      <trkpt lat="53.84713" lon="27.388548">
        <ele>269.2</ele>
        <time>2014-03-15T06:37:51Z</time>
      </trkpt>
      <trkpt lat="53.847069" lon="27.388895">
        <ele>271.6</ele>
        <time>2014-03-15T06:37:56Z</time>
      </trkpt>
      <trkpt lat="53.847014" lon="27.389379">
        <ele>273.5</ele>
        <time>2014-03-15T06:38:02Z</time>
      </trkpt>
      <trkpt lat="53.846943" lon="27.389782">
        <ele>274.3</ele>
        <time>2014-03-15T06:38:07Z</time>
      </trkpt>
      <trkpt lat="53.846925" lon="27.390025">
        <ele>275.5</ele>
        <time>2014-03-15T06:38:10Z</time>
      </trkpt>
      <trkpt lat="53.846874" lon="27.390518">
        <ele>274.3</ele>
        <time>2014-03-15T06:38:16Z</time>
      </trkpt>
      <trkpt lat="53.846843" lon="27.390764">
        <ele>274.8</ele>
        <time>2014-03-15T06:38:19Z</time>
      </trkpt>
      <trkpt lat="53.846798" lon="27.391245">
        <ele>275.9</ele>
        <time>2014-03-15T06:38:25Z</time>
      </trkpt>
      <trkpt lat="53.84673" lon="27.391787">
        <ele>275.6</ele>
        <time>2014-03-15T06:38:31Z</time>
      </trkpt>
      <trkpt lat="53.846633" lon="27.392311">
        <ele>274.8</ele>
        <time>2014-03-15T06:38:37Z</time>
      </trkpt>
      <trkpt lat="53.846539" lon="27.392869">
        <ele>275.4</ele>
        <time>2014-03-15T06:38:43Z</time>
      </trkpt>
      <trkpt lat="53.846461" lon="27.393357">
        <ele>275.6</ele>
        <time>2014-03-15T06:38:48Z</time>
      </trkpt>
      <trkpt lat="53.846366" lon="27.393944">
        <ele>274.3</ele>
        <time>2014-03-15T06:38:54Z</time>
      </trkpt>
      <trkpt lat="53.846281" lon="27.394511">
        <ele>274.9</ele>
        <time>2014-03-15T06:39:00Z</time>
      </trkpt>
      <trkpt lat="53.846232" lon="27.394935">
        <ele>275.4</ele>
        <time>2014-03-15T06:39:05Z</time>
      </trkpt>
      <trkpt lat="53.84639" lon="27.39523">
        <ele>273.4</ele>
        <time>2014-03-15T06:39:11Z</time>
      </trkpt>
      <trkpt lat="53.846545" lon="27.395297">
        <ele>273.3</ele>
        <time>2014-03-15T06:39:14Z</time>
      </trkpt>
      <trkpt lat="53.846922" lon="27.395456">
        <ele>272.4</ele>
        <time>2014-03-15T06:39:20Z</time>
      </trkpt>
      <trkpt lat="53.84722" lon="27.395567">
        <ele>272.5</ele>
        <time>2014-03-15T06:39:25Z</time>
      </trkpt>
      <trkpt lat="53.847585" lon="27.39573">
        <ele>273.1</ele>
        <time>2014-03-15T06:39:31Z</time>
      </trkpt>
      <trkpt lat="53.8479" lon="27.395939">
        <ele>273.6</ele>
        <time>2014-03-15T06:39:36Z</time>
      </trkpt>
      <trkpt lat="53.848049" lon="27.396162">
        <ele>273.6</ele>
        <time>2014-03-15T06:39:39Z</time>
      </trkpt>
      <trkpt lat="53.848196" lon="27.396688">
        <ele>274.1</ele>
        <time>2014-03-15T06:39:44Z</time>
      </trkpt>
      <trkpt lat="53.848598" lon="27.397063">
        <ele>271.7</ele>
        <time>2014-03-15T06:39:51Z</time>
      </trkpt>
      <trkpt lat="53.848972" lon="27.397253">
        <ele>269.8</ele>
        <time>2014-03-15T06:39:56Z</time>
      </trkpt>
      <trkpt lat="53.849458" lon="27.397486">
        <ele>272.5</ele>
        <time>2014-03-15T06:40:02Z</time>
      </trkpt>
      <trkpt lat="53.849867" lon="27.397921">
        <ele>272.0</ele>
        <time>2014-03-15T06:40:08Z</time>
      </trkpt>
      <trkpt lat="53.850206" lon="27.39841">
        <ele>271.4</ele>
        <time>2014-03-15T06:40:14Z</time>
      </trkpt>
      <trkpt lat="53.850373" lon="27.398632">
        <ele>272.1</ele>
        <time>2014-03-15T06:40:17Z</time>
      </trkpt>
      <trkpt lat="53.850693" lon="27.399147">
        <ele>272.0</ele>
        <time>2014-03-15T06:40:23Z</time>
      </trkpt>
      <trkpt lat="53.850866" lon="27.399384">
        <ele>271.4</ele>
        <time>2014-03-15T06:40:26Z</time>
      </trkpt>
      <trkpt lat="53.851201" lon="27.399875">
        <ele>271.5</ele>
        <time>2014-03-15T06:40:32Z</time>
      </trkpt>
      <trkpt lat="53.851532" lon="27.400348">
        <ele>270.0</ele>
        <time>2014-03-15T06:40:38Z</time>
      </trkpt>
      <trkpt lat="53.851863" lon="27.400801">
        <ele>268.9</ele>
        <time>2014-03-15T06:40:44Z</time>
      </trkpt>
      <trkpt lat="53.852126" lon="27.401195">
        <ele>266.5</ele>
        <time>2014-03-15T06:40:49Z</time>
      </trkpt>
      <trkpt lat="53.852443" lon="27.401579">
        <ele>265.7</ele>
        <time>2014-03-15T06:40:55Z</time>
      </trkpt>
      <trkpt lat="53.852589" lon="27.401795">
        <ele>265.5</ele>
        <time>2014-03-15T06:40:58Z</time>
      </trkpt>
      <trkpt lat="53.852868" lon="27.402249">
        <ele>265.2</ele>
        <time>2014-03-15T06:41:04Z</time>
      </trkpt>
      <trkpt lat="53.85315" lon="27.402625">
        <ele>264.6</ele>
        <time>2014-03-15T06:41:10Z</time>
      </trkpt>
      <trkpt lat="53.853362" lon="27.402937">
        <ele>266.3</ele>
        <time>2014-03-15T06:41:16Z</time>
      </trkpt>
      <trkpt lat="53.853605" lon="27.403008">
        <ele>268.4</ele>
        <time>2014-03-15T06:41:21Z</time>
      </trkpt>
      <trkpt lat="53.853939" lon="27.402922">
        <ele>270.2</ele>
        <time>2014-03-15T06:41:27Z</time>
      </trkpt>
      <trkpt lat="53.854091" lon="27.403007">
        <ele>270.4</ele>
        <time>2014-03-15T06:41:30Z</time>
      </trkpt>
      <trkpt lat="53.854253" lon="27.403109">
        <ele>271.6</ele>
        <time>2014-03-15T06:41:33Z</time>
      </trkpt>
      <trkpt lat="53.854574" lon="27.403383">
        <ele>272.2</ele>
        <time>2014-03-15T06:41:39Z</time>
      </trkpt>
      <trkpt lat="53.854837" lon="27.403554">
        <ele>271.7</ele>
        <time>2014-03-15T06:41:44Z</time>
      </trkpt>
      <trkpt lat="53.855175" lon="27.403817">
        <ele>269.3</ele>
        <time>2014-03-15T06:41:50Z</time>
      </trkpt>
      <trkpt lat="53.855339" lon="27.403948">
        <ele>269.9</ele>
        <time>2014-03-15T06:41:53Z</time>
      </trkpt>
      <trkpt lat="53.855494" lon="27.404078">
        <ele>270.3</ele>
        <time>2014-03-15T06:41:56Z</time>
      </trkpt>
      <trkpt lat="53.85578" lon="27.404163">
        <ele>270.9</ele>
        <time>2014-03-15T06:42:01Z</time>
      </trkpt>
      <trkpt lat="53.856163" lon="27.404181">
        <ele>266.9</ele>
        <time>2014-03-15T06:42:07Z</time>
      </trkpt>
      <trkpt lat="53.856386" lon="27.404238">
        <ele>265.5</ele>
        <time>2014-03-15T06:42:10Z</time>
      </trkpt>
      <trkpt lat="53.856597" lon="27.404238">
        <ele>264.9</ele>
        <time>2014-03-15T06:42:13Z</time>
      </trkpt>
      <trkpt lat="53.8568" lon="27.404232">
        <ele>264.6</ele>
        <time>2014-03-15T06:42:16Z</time>
      </trkpt>
      <trkpt lat="53.857019" lon="27.404252">
        <ele>264.6</ele>
        <time>2014-03-15T06:42:19Z</time>
      </trkpt>
      <trkpt lat="53.857224" lon="27.404241">
        <ele>266.2</ele>
        <time>2014-03-15T06:42:22Z</time>
      </trkpt>
      <trkpt lat="53.85744" lon="27.404271">
        <ele>266.2</ele>
        <time>2014-03-15T06:42:25Z</time>
      </trkpt>
      <trkpt lat="53.857911" lon="27.404296">
        <ele>264.6</ele>
        <time>2014-03-15T06:42:31Z</time>
      </trkpt>
      <trkpt lat="53.858351" lon="27.404323">
        <ele>262.5</ele>
        <time>2014-03-15T06:42:37Z</time>
      </trkpt>
      <trkpt lat="53.858696" lon="27.404361">
        <ele>263.4</ele>
        <time>2014-03-15T06:42:42Z</time>
      </trkpt>
      <trkpt lat="53.858908" lon="27.404437">
        <ele>264.3</ele>
        <time>2014-03-15T06:42:45Z</time>
      </trkpt>
      <trkpt lat="53.859262" lon="27.404451">
        <ele>264.2</ele>
        <time>2014-03-15T06:42:50Z</time>
      </trkpt>
      <trkpt lat="53.859653" lon="27.404508">
        <ele>264.9</ele>
        <time>2014-03-15T06:42:56Z</time>
      </trkpt>
      <trkpt lat="53.85975" lon="27.404913">
        <ele>267.0</ele>
        <time>2014-03-15T06:43:02Z</time>
      </trkpt>
      <trkpt lat="53.859731" lon="27.405472">
        <ele>267.1</ele>
        <time>2014-03-15T06:43:08Z</time>
      </trkpt>
      <trkpt lat="53.859736" lon="27.405801">
        <ele>268.0</ele>
        <time>2014-03-15T06:43:13Z</time>
      </trkpt>
      <trkpt lat="53.859735" lon="27.40625">
        <ele>267.3</ele>
        <time>2014-03-15T06:43:21Z</time>
      </trkpt>
      <trkpt lat="53.859725" lon="27.406655">
        <ele>266.7</ele>
        <time>2014-03-15T06:43:27Z</time>
      </trkpt>
      <trkpt lat="53.859738" lon="27.406958">
        <ele>269.6</ele>
        <time>2014-03-15T06:43:33Z</time>
      </trkpt>
      <trkpt lat="53.859847" lon="27.407131">
        <ele>270.1</ele>
        <time>2014-03-15T06:43:38Z</time>
      </trkpt>
      <trkpt lat="53.860023" lon="27.407332">
        <ele>269.6</ele>
        <time>2014-03-15T06:43:43Z</time>
      </trkpt>
      <trkpt lat="53.860241" lon="27.407619">
        <ele>264.5</ele>
        <time>2014-03-15T06:43:49Z</time>
      </trkpt>
      <trkpt lat="53.860423" lon="27.408127">
        <ele>265.9</ele>
        <time>2014-03-15T06:43:56Z</time>
      </trkpt>
      <trkpt lat="53.860357" lon="27.40846">
        <ele>266.9</ele>
        <time>2014-03-15T06:44:01Z</time>
      </trkpt>
      <trkpt lat="53.860283" lon="27.408828">
        <ele>266.9</ele>
        <time>2014-03-15T06:44:07Z</time>
      </trkpt>
      <trkpt lat="53.860178" lon="27.409155">
        <ele>268.0</ele>
        <time>2014-03-15T06:44:13Z</time>
      </trkpt>
      <trkpt lat="53.860148" lon="27.409557">
        <ele>270.7</ele>
        <time>2014-03-15T06:44:19Z</time>
      </trkpt>
      <trkpt lat="53.860138" lon="27.409938">
        <ele>271.3</ele>
        <time>2014-03-15T06:44:24Z</time>
      </trkpt>
      <trkpt lat="53.860143" lon="27.410444">
        <ele>271.6</ele>
        <time>2014-03-15T06:44:30Z</time>
      </trkpt>
      <trkpt lat="53.860152" lon="27.410847">
        <ele>272.1</ele>
        <time>2014-03-15T06:44:36Z</time>
      </trkpt>
      <trkpt lat="53.860222" lon="27.411308">
        <ele>269.8</ele>
        <time>2014-03-15T06:44:43Z</time>
      </trkpt>
      <trkpt lat="53.860341" lon="27.411608">
        <ele>270.3</ele>
        <time>2014-03-15T06:44:50Z</time>
      </trkpt>
      <trkpt lat="53.860364" lon="27.412157">
        <ele>268.4</ele>
        <time>2014-03-15T06:44:58Z</time>
      </trkpt>
      <trkpt lat="53.860375" lon="27.412483">
        <ele>277.2</ele>
        <time>2014-03-15T06:45:04Z</time>
      </trkpt>
      <trkpt lat="53.860345" lon="27.41287">
        <ele>288.6</ele>
        <time>2014-03-15T06:45:13Z</time>
      </trkpt>
      <trkpt lat="53.860351" lon="27.413071">
        <ele>289.6</ele>
        <time>2014-03-15T06:45:21Z</time>
      </trkpt>
      <trkpt lat="53.860351" lon="27.413071">
        <ele>289.6</ele>
        <time>2014-03-15T06:45:28Z</time>
      </trkpt>
      <trkpt lat="53.860351" lon="27.413071">
        <time>2014-03-15T06:45:28Z</time>
      </trkpt>
    </trkseg>
    <trkseg>
      <trkpt lat="53.860351" lon="27.413071">
        <time>2014-03-15T06:45:38Z</time>
      </trkpt>
      <trkpt lat="53.860427" lon="27.413286">
        <ele>288.5</ele>
        <time>2014-03-15T06:45:38Z</time>
      </trkpt>
      <trkpt lat="53.860403" lon="27.413461">
        <ele>293.3</ele>
        <time>2014-03-15T06:45:43Z</time>
      </trkpt>
      <trkpt lat="53.86042" lon="27.413966">
        <ele>295.8</ele>
        <time>2014-03-15T06:45:54Z</time>
      </trkpt>
      <trkpt lat="53.860491" lon="27.414182">
        <ele>289.4</ele>
        <time>2014-03-15T06:46:01Z</time>
      </trkpt>
      <trkpt lat="53.860458" lon="27.414465">
        <ele>293.1</ele>
        <time>2014-03-15T06:46:07Z</time>
      </trkpt>
      <trkpt lat="53.860541" lon="27.414801">
        <ele>288.5</ele>
        <time>2014-03-15T06:46:13Z</time>
      </trkpt>
      <trkpt lat="53.860609" lon="27.415059">
        <ele>291.4</ele>
        <time>2014-03-15T06:46:18Z</time>
      </trkpt>
      <trkpt lat="53.860747" lon="27.415627">
        <ele>295.1</ele>
        <time>2014-03-15T06:46:27Z</time>
      </trkpt>
      <trkpt lat="53.860817" lon="27.415864">
        <ele>294.4</ele>
        <time>2014-03-15T06:46:32Z</time>
      </trkpt>
      <trkpt lat="53.860891" lon="27.416155">
        <ele>287.7</ele>
        <time>2014-03-15T06:46:37Z</time>
      </trkpt>
      <trkpt lat="53.861028" lon="27.416773">
        <ele>277.0</ele>
        <time>2014-03-15T06:46:46Z</time>
      </trkpt>
      <trkpt lat="53.861154" lon="27.417007">
        <ele>275.9</ele>
        <time>2014-03-15T06:46:52Z</time>
      </trkpt>
      <trkpt lat="53.861361" lon="27.417223">
        <ele>270.6</ele>
        <time>2014-03-15T06:46:57Z</time>
      </trkpt>
      <trkpt lat="53.861443" lon="27.41749">
        <ele>269.5</ele>
        <time>2014-03-15T06:47:02Z</time>
      </trkpt>
      <trkpt lat="53.86147" lon="27.417812">
        <ele>270.6</ele>
        <time>2014-03-15T06:47:07Z</time>
      </trkpt>
      <trkpt lat="53.861532" lon="27.418267">
        <ele>270.4</ele>
        <time>2014-03-15T06:47:13Z</time>
      </trkpt>
      <trkpt lat="53.861623" lon="27.418622">
        <ele>277.9</ele>
        <time>2014-03-15T06:47:19Z</time>
      </trkpt>
      <trkpt lat="53.861764" lon="27.419094">
        <ele>279.0</ele>
        <time>2014-03-15T06:47:25Z</time>
      </trkpt>
      <trkpt lat="53.861952" lon="27.419408">
        <ele>275.8</ele>
        <time>2014-03-15T06:47:30Z</time>
      </trkpt>
      <trkpt lat="53.862129" lon="27.419537">
        <ele>278.7</ele>
        <time>2014-03-15T06:47:37Z</time>
      </trkpt>
      <trkpt lat="53.862329" lon="27.419655">
        <ele>278.1</ele>
        <time>2014-03-15T06:47:42Z</time>
      </trkpt>
      <trkpt lat="53.862594" lon="27.42008">
        <ele>273.0</ele>
        <time>2014-03-15T06:47:49Z</time>
      </trkpt>
      <trkpt lat="53.862726" lon="27.420513">
        <ele>271.9</ele>
        <time>2014-03-15T06:47:55Z</time>
      </trkpt>
      <trkpt lat="53.862825" lon="27.420869">
        <ele>266.3</ele>
        <time>2014-03-15T06:48:00Z</time>
      </trkpt>
      <trkpt lat="53.862889" lon="27.421262">
        <ele>266.8</ele>
        <time>2014-03-15T06:48:05Z</time>
      </trkpt>
      <trkpt lat="53.86292" lon="27.421591">
        <ele>266.0</ele>
        <time>2014-03-15T06:48:09Z</time>
      </trkpt>
      <trkpt lat="53.86298" lon="27.422156">
        <ele>263.4</ele>
        <time>2014-03-15T06:48:15Z</time>
      </trkpt>
      <trkpt lat="53.863028" lon="27.422793">
        <ele>265.2</ele>
        <time>2014-03-15T06:48:22Z</time>
      </trkpt>
      <trkpt lat="53.863254" lon="27.42305">
        <ele>266.3</ele>
        <time>2014-03-15T06:48:28Z</time>
      </trkpt>
      <trkpt lat="53.863468" lon="27.423407">
        <ele>268.3</ele>
        <time>2014-03-15T06:48:35Z</time>
      </trkpt>
      <trkpt lat="53.863625" lon="27.423694">
        <ele>266.5</ele>
        <time>2014-03-15T06:48:40Z</time>
      </trkpt>
      <trkpt lat="53.863793" lon="27.424">
        <ele>268.9</ele>
        <time>2014-03-15T06:48:48Z</time>
      </trkpt>
      <trkpt lat="53.863853" lon="27.424137">
        <ele>271.3</ele>
        <time>2014-03-15T06:48:51Z</time>
      </trkpt>
      <trkpt lat="53.863931" lon="27.424302">
        <ele>271.2</ele>
        <time>2014-03-15T06:48:56Z</time>
      </trkpt>
      <trkpt lat="53.86398" lon="27.424699">
        <ele>272.1</ele>
        <time>2014-03-15T06:49:04Z</time>
      </trkpt>
      <trkpt lat="53.864042" lon="27.424989">
        <ele>272.9</ele>
        <time>2014-03-15T06:49:10Z</time>
      </trkpt>
      <trkpt lat="53.864099" lon="27.425441">
        <ele>272.9</ele>
        <time>2014-03-15T06:49:17Z</time>
      </trkpt>
      <trkpt lat="53.864182" lon="27.425897">
        <ele>275.9</ele>
        <time>2014-03-15T06:49:25Z</time>
      </trkpt>
      <trkpt lat="53.864261" lon="27.426394">
        <ele>274.2</ele>
        <time>2014-03-15T06:49:31Z</time>
      </trkpt>
      <trkpt lat="53.864373" lon="27.427063">
        <ele>272.9</ele>
        <time>2014-03-15T06:49:38Z</time>
      </trkpt>
      <trkpt lat="53.864407" lon="27.427135">
        <ele>272.7</ele>
        <time>2014-03-15T06:49:40Z</time>
      </trkpt>
      <trkpt lat="53.864407" lon="27.427135">
        <time>2014-03-15T06:49:46Z</time>
      </trkpt>
    </trkseg>
    <trkseg>
      <trkpt lat="53.864407" lon="27.427135">
        <time>2014-03-15T06:52:17Z</time>
      </trkpt>
      <trkpt lat="53.864511" lon="27.427472">
        <ele>272.0</ele>
        <time>2014-03-15T06:52:17Z</time>
      </trkpt>
      <trkpt lat="53.864606" lon="27.427846">
        <ele>271.2</ele>
        <time>2014-03-15T06:52:23Z</time>
      </trkpt>
      <trkpt lat="53.864693" lon="27.428341">
        <ele>272.8</ele>
        <time>2014-03-15T06:52:30Z</time>
      </trkpt>
      <trkpt lat="53.864764" lon="27.42887">
        <ele>274.1</ele>
        <time>2014-03-15T06:52:36Z</time>
      </trkpt>
      <trkpt lat="53.864908" lon="27.429252">
        <ele>273.6</ele>
        <time>2014-03-15T06:52:42Z</time>
      </trkpt>
      <trkpt lat="53.864958" lon="27.429735">
        <ele>274.2</ele>
        <time>2014-03-15T06:52:47Z</time>
      </trkpt>
      <trkpt lat="53.864992" lon="27.429996">
        <ele>274.9</ele>
        <time>2014-03-15T06:52:50Z</time>
      </trkpt>
      <trkpt lat="53.865051" lon="27.430255">
        <ele>275.0</ele>
        <time>2014-03-15T06:52:53Z</time>
      </trkpt>
      <trkpt lat="53.865081" lon="27.430543">
        <ele>275.1</ele>
        <time>2014-03-15T06:52:56Z</time>
      </trkpt>
      <trkpt lat="53.865171" lon="27.430846">
        <ele>274.3</ele>
        <time>2014-03-15T06:52:59Z</time>
      </trkpt>
      <trkpt lat="53.865213" lon="27.431105">
        <ele>274.3</ele>
        <time>2014-03-15T06:53:02Z</time>
      </trkpt>
      <trkpt lat="53.865298" lon="27.431685">
        <ele>273.2</ele>
        <time>2014-03-15T06:53:08Z</time>
      </trkpt>
      <trkpt lat="53.865374" lon="27.432276">
        <ele>271.8</ele>
        <time>2014-03-15T06:53:14Z</time>
      </trkpt>
      <trkpt lat="53.865455" lon="27.432793">
        <ele>271.8</ele>
        <time>2014-03-15T06:53:20Z</time>
      </trkpt>
      <trkpt lat="53.865582" lon="27.433383">
        <ele>273.2</ele>
        <time>2014-03-15T06:53:26Z</time>
      </trkpt>
      <trkpt lat="53.865631" lon="27.433868">
        <ele>273.8</ele>
        <time>2014-03-15T06:53:31Z</time>
      </trkpt>
      <trkpt lat="53.865701" lon="27.43422">
        <ele>275.2</ele>
        <time>2014-03-15T06:53:35Z</time>
      </trkpt>
      <trkpt lat="53.86575" lon="27.434789">
        <ele>274.3</ele>
        <time>2014-03-15T06:53:41Z</time>
      </trkpt>
      <trkpt lat="53.865775" lon="27.435245">
        <ele>274.3</ele>
        <time>2014-03-15T06:53:47Z</time>
      </trkpt>
      <trkpt lat="53.865752" lon="27.435607">
        <ele>273.4</ele>
        <time>2014-03-15T06:53:52Z</time>
      </trkpt>
      <trkpt lat="53.865662" lon="27.436153">
        <ele>273.2</ele>
        <time>2014-03-15T06:53:58Z</time>
      </trkpt>
      <trkpt lat="53.865525" lon="27.436653">
        <ele>271.8</ele>
        <time>2014-03-15T06:54:04Z</time>
      </trkpt>
      <trkpt lat="53.865373" lon="27.437131">
        <ele>271.1</ele>
        <time>2014-03-15T06:54:10Z</time>
      </trkpt>
      <trkpt lat="53.865246" lon="27.437652">
        <ele>272.6</ele>
        <time>2014-03-15T06:54:16Z</time>
      </trkpt>
      <trkpt lat="53.865039" lon="27.438135">
        <ele>270.6</ele>
        <time>2014-03-15T06:54:21Z</time>
      </trkpt>
      <trkpt lat="53.864911" lon="27.438416">
        <ele>269.6</ele>
        <time>2014-03-15T06:54:24Z</time>
      </trkpt>
      <trkpt lat="53.864787" lon="27.43869">
        <ele>270.0</ele>
        <time>2014-03-15T06:54:27Z</time>
      </trkpt>
      <trkpt lat="53.864563" lon="27.43924">
        <ele>270.8</ele>
        <time>2014-03-15T06:54:33Z</time>
      </trkpt>
      <trkpt lat="53.864334" lon="27.439764">
        <ele>272.0</ele>
        <time>2014-03-15T06:54:39Z</time>
      </trkpt>
      <trkpt lat="53.864127" lon="27.440188">
        <ele>272.6</ele>
        <time>2014-03-15T06:54:44Z</time>
      </trkpt>
      <trkpt lat="53.863942" lon="27.44061">
        <ele>275.1</ele>
        <time>2014-03-15T06:54:49Z</time>
      </trkpt>
      <trkpt lat="53.863712" lon="27.441133">
        <ele>273.0</ele>
        <time>2014-03-15T06:54:55Z</time>
      </trkpt>
      <trkpt lat="53.863527" lon="27.441489">
        <ele>271.9</ele>
        <time>2014-03-15T06:55:00Z</time>
      </trkpt>
      <trkpt lat="53.863323" lon="27.441868">
        <ele>272.2</ele>
        <time>2014-03-15T06:55:05Z</time>
      </trkpt>
      <trkpt lat="53.863186" lon="27.442047">
        <ele>273.3</ele>
        <time>2014-03-15T06:55:08Z</time>
      </trkpt>
      <trkpt lat="53.863042" lon="27.442226">
        <ele>272.0</ele>
        <time>2014-03-15T06:55:11Z</time>
      </trkpt>
      <trkpt lat="53.862765" lon="27.442524">
        <ele>271.9</ele>
        <time>2014-03-15T06:55:17Z</time>
      </trkpt>
      <trkpt lat="53.862635" lon="27.442758">
        <ele>271.5</ele>
        <time>2014-03-15T06:55:22Z</time>
      </trkpt>
      <trkpt lat="53.862649" lon="27.443186">
        <ele>270.4</ele>
        <time>2014-03-15T06:55:29Z</time>
      </trkpt>
      <trkpt lat="53.862693" lon="27.443705">
        <ele>268.2</ele>
        <time>2014-03-15T06:55:35Z</time>
      </trkpt>
      <trkpt lat="53.862762" lon="27.443937">
        <ele>267.8</ele>
        <time>2014-03-15T06:55:38Z</time>
      </trkpt>
      <trkpt lat="53.862861" lon="27.444496">
        <ele>269.0</ele>
        <time>2014-03-15T06:55:44Z</time>
      </trkpt>
      <trkpt lat="53.862957" lon="27.445142">
        <ele>268.9</ele>
        <time>2014-03-15T06:55:50Z</time>
      </trkpt>
      <trkpt lat="53.863018" lon="27.44548">
        <ele>268.0</ele>
        <time>2014-03-15T06:55:53Z</time>
      </trkpt>
      <trkpt lat="53.863073" lon="27.445796">
        <ele>266.7</ele>
        <time>2014-03-15T06:55:56Z</time>
      </trkpt>
      <trkpt lat="53.863152" lon="27.446353">
        <ele>266.1</ele>
        <time>2014-03-15T06:56:01Z</time>
      </trkpt>
      <trkpt lat="53.863203" lon="27.44668">
        <ele>265.7</ele>
        <time>2014-03-15T06:56:04Z</time>
      </trkpt>
      <trkpt lat="53.863248" lon="27.446982">
        <ele>264.4</ele>
        <time>2014-03-15T06:56:07Z</time>
      </trkpt>
      <trkpt lat="53.863294" lon="27.447298">
        <ele>264.7</ele>
        <time>2014-03-15T06:56:10Z</time>
      </trkpt>
      <trkpt lat="53.863333" lon="27.447561">
        <ele>264.2</ele>
        <time>2014-03-15T06:56:14Z</time>
      </trkpt>
      <trkpt lat="53.863424" lon="27.448045">
        <ele>262.7</ele>
        <time>2014-03-15T06:56:20Z</time>
      </trkpt>
      <trkpt lat="53.86347" lon="27.448375">
        <ele>263.3</ele>
        <time>2014-03-15T06:56:23Z</time>
      </trkpt>
      <trkpt lat="53.863528" lon="27.448692">
        <ele>263.6</ele>
        <time>2014-03-15T06:56:26Z</time>
      </trkpt>
      <trkpt lat="53.863568" lon="27.449216">
        <ele>264.0</ele>
        <time>2014-03-15T06:56:32Z</time>
      </trkpt>
      <trkpt lat="53.863638" lon="27.449665">
        <ele>263.1</ele>
        <time>2014-03-15T06:56:37Z</time>
      </trkpt>
      <trkpt lat="53.863717" lon="27.450167">
        <ele>264.0</ele>
        <time>2014-03-15T06:56:42Z</time>
      </trkpt>
      <trkpt lat="53.863835" lon="27.450659">
        <ele>264.1</ele>
        <time>2014-03-15T06:56:47Z</time>
      </trkpt>
      <trkpt lat="53.864008" lon="27.451234">
        <ele>260.4</ele>
        <time>2014-03-15T06:56:53Z</time>
      </trkpt>
      <trkpt lat="53.864096" lon="27.451616">
        <ele>259.4</ele>
        <time>2014-03-15T06:56:59Z</time>
      </trkpt>
      <trkpt lat="53.864366" lon="27.452173">
        <ele>258.9</ele>
        <time>2014-03-15T06:57:06Z</time>
      </trkpt>
      <trkpt lat="53.864578" lon="27.452673">
        <ele>259.1</ele>
        <time>2014-03-15T06:57:12Z</time>
      </trkpt>
      <trkpt lat="53.864736" lon="27.45291">
        <ele>259.7</ele>
        <time>2014-03-15T06:57:15Z</time>
      </trkpt>
      <trkpt lat="53.864988" lon="27.45336">
        <ele>262.1</ele>
        <time>2014-03-15T06:57:20Z</time>
      </trkpt>
      <trkpt lat="53.865243" lon="27.453694">
        <ele>260.6</ele>
        <time>2014-03-15T06:57:25Z</time>
      </trkpt>
      <trkpt lat="53.865508" lon="27.454087">
        <ele>260.3</ele>
        <time>2014-03-15T06:57:30Z</time>
      </trkpt>
      <trkpt lat="53.86571" lon="27.454377">
        <ele>259.5</ele>
        <time>2014-03-15T06:57:35Z</time>
      </trkpt>
      <trkpt lat="53.865846" lon="27.454565">
        <ele>258.9</ele>
        <time>2014-03-15T06:57:38Z</time>
      </trkpt>
      <trkpt lat="53.865994" lon="27.454787">
        <ele>259.0</ele>
        <time>2014-03-15T06:57:41Z</time>
      </trkpt>
      <trkpt lat="53.866305" lon="27.455216">
        <ele>258.4</ele>
        <time>2014-03-15T06:57:47Z</time>
      </trkpt>
      <trkpt lat="53.866452" lon="27.455415">
        <ele>256.9</ele>
        <time>2014-03-15T06:57:50Z</time>
      </trkpt>
      <trkpt lat="53.866777" lon="27.455771">
        <ele>254.3</ele>
        <time>2014-03-15T06:57:56Z</time>
      </trkpt>
      <trkpt lat="53.867033" lon="27.456114">
        <ele>254.9</ele>
        <time>2014-03-15T06:58:01Z</time>
      </trkpt>
      <trkpt lat="53.867326" lon="27.456504">
        <ele>254.5</ele>
        <time>2014-03-15T06:58:07Z</time>
      </trkpt>
      <trkpt lat="53.867637" lon="27.456911">
        <ele>253.4</ele>
        <time>2014-03-15T06:58:13Z</time>
      </trkpt>
      <trkpt lat="53.867805" lon="27.457095">
        <ele>252.7</ele>
        <time>2014-03-15T06:58:16Z</time>
      </trkpt>
      <trkpt lat="53.868154" lon="27.457527">
        <ele>251.1</ele>
        <time>2014-03-15T06:58:22Z</time>
      </trkpt>
      <trkpt lat="53.868327" lon="27.457734">
        <ele>253.1</ele>
        <time>2014-03-15T06:58:25Z</time>
      </trkpt>
      <trkpt lat="53.868483" lon="27.457934">
        <ele>253.1</ele>
        <time>2014-03-15T06:58:28Z</time>
      </trkpt>
      <trkpt lat="53.868815" lon="27.458332">
        <ele>253.3</ele>
        <time>2014-03-15T06:58:34Z</time>
      </trkpt>
      <trkpt lat="53.869079" lon="27.458677">
        <ele>253.5</ele>
        <time>2014-03-15T06:58:39Z</time>
      </trkpt>
      <trkpt lat="53.869333" lon="27.458994">
        <ele>251.4</ele>
        <time>2014-03-15T06:58:44Z</time>
      </trkpt>
      <trkpt lat="53.869641" lon="27.459334">
        <ele>253.9</ele>
        <time>2014-03-15T06:58:50Z</time>
      </trkpt>
      <trkpt lat="53.869975" lon="27.459731">
        <ele>256.1</ele>
        <time>2014-03-15T06:58:56Z</time>
      </trkpt>
      <trkpt lat="53.87013" lon="27.459904">
        <ele>256.3</ele>
        <time>2014-03-15T06:58:59Z</time>
      </trkpt>
      <trkpt lat="53.870474" lon="27.460328">
        <ele>254.6</ele>
        <time>2014-03-15T06:59:05Z</time>
      </trkpt>
      <trkpt lat="53.870751" lon="27.460644">
        <ele>253.3</ele>
        <time>2014-03-15T06:59:10Z</time>
      </trkpt>
      <trkpt lat="53.870913" lon="27.46088">
        <ele>253.4</ele>
        <time>2014-03-15T06:59:13Z</time>
      </trkpt>
      <trkpt lat="53.871208" lon="27.461367">
        <ele>251.8</ele>
        <time>2014-03-15T06:59:19Z</time>
      </trkpt>
      <trkpt lat="53.87135" lon="27.461605">
        <ele>250.2</ele>
        <time>2014-03-15T06:59:22Z</time>
      </trkpt>
      <trkpt lat="53.871576" lon="27.461994">
        <ele>249.3</ele>
        <time>2014-03-15T06:59:27Z</time>
      </trkpt>
      <trkpt lat="53.871722" lon="27.462232">
        <ele>249.4</ele>
        <time>2014-03-15T06:59:30Z</time>
      </trkpt>
      <trkpt lat="53.872021" lon="27.462738">
        <ele>250.1</ele>
        <time>2014-03-15T06:59:36Z</time>
      </trkpt>
      <trkpt lat="53.87228" lon="27.46317">
        <ele>249.7</ele>
        <time>2014-03-15T06:59:41Z</time>
      </trkpt>
      <trkpt lat="53.872427" lon="27.463426">
        <ele>250.1</ele>
        <time>2014-03-15T06:59:44Z</time>
      </trkpt>
      <trkpt lat="53.872713" lon="27.463921">
        <ele>251.8</ele>
        <time>2014-03-15T06:59:50Z</time>
      </trkpt>
      <trkpt lat="53.872849" lon="27.464172">
        <ele>251.4</ele>
        <time>2014-03-15T06:59:53Z</time>
      </trkpt>
      <trkpt lat="53.872992" lon="27.464414">
        <ele>250.3</ele>
        <time>2014-03-15T06:59:56Z</time>
      </trkpt>
      <trkpt lat="53.873235" lon="27.464832">
        <ele>249.8</ele>
        <time>2014-03-15T07:00:01Z</time>
      </trkpt>
      <trkpt lat="53.873515" lon="27.465292">
        <ele>248.1</ele>
        <time>2014-03-15T07:00:07Z</time>
      </trkpt>
      <trkpt lat="53.873736" lon="27.465697">
        <ele>247.5</ele>
        <time>2014-03-15T07:00:12Z</time>
      </trkpt>
      <trkpt lat="53.873979" lon="27.466007">
        <ele>247.5</ele>
        <time>2014-03-15T07:00:17Z</time>
      </trkpt>
      <trkpt lat="53.874115" lon="27.46617">
        <ele>245.3</ele>
        <time>2014-03-15T07:00:22Z</time>
      </trkpt>
      <trkpt lat="53.874341" lon="27.466049">
        <ele>244.2</ele>
        <time>2014-03-15T07:00:31Z</time>
      </trkpt>
      <trkpt lat="53.87462" lon="27.465579">
        <ele>243.7</ele>
        <time>2014-03-15T07:00:37Z</time>
      </trkpt>
      <trkpt lat="53.874762" lon="27.465343">
        <ele>242.3</ele>
        <time>2014-03-15T07:00:40Z</time>
      </trkpt>
      <trkpt lat="53.875009" lon="27.464902">
        <ele>241.2</ele>
        <time>2014-03-15T07:00:46Z</time>
      </trkpt>
      <trkpt lat="53.875212" lon="27.464534">
        <ele>239.4</ele>
        <time>2014-03-15T07:00:51Z</time>
      </trkpt>
      <trkpt lat="53.875301" lon="27.464286">
        <ele>240.3</ele>
        <time>2014-03-15T07:00:56Z</time>
      </trkpt>
      <trkpt lat="53.875526" lon="27.463901">
        <ele>240.9</ele>
        <time>2014-03-15T07:01:02Z</time>
      </trkpt>
      <trkpt lat="53.875793" lon="27.463441">
        <ele>240.2</ele>
        <time>2014-03-15T07:01:08Z</time>
      </trkpt>
      <trkpt lat="53.875987" lon="27.463013">
        <ele>240.1</ele>
        <time>2014-03-15T07:01:14Z</time>
      </trkpt>
      <trkpt lat="53.876191" lon="27.462561">
        <ele>238.9</ele>
        <time>2014-03-15T07:01:19Z</time>
      </trkpt>
      <trkpt lat="53.876516" lon="27.462042">
        <ele>240.2</ele>
        <time>2014-03-15T07:01:25Z</time>
      </trkpt>
      <trkpt lat="53.876689" lon="27.462179">
        <ele>241.2</ele>
        <time>2014-03-15T07:01:30Z</time>
      </trkpt>
      <trkpt lat="53.87691" lon="27.462394">
        <ele>243.2</ele>
        <time>2014-03-15T07:01:36Z</time>
      </trkpt>
      <trkpt lat="53.877057" lon="27.462438">
        <ele>244.2</ele>
        <time>2014-03-15T07:01:42Z</time>
      </trkpt>
      <trkpt lat="53.877247" lon="27.462489">
        <ele>243.4</ele>
        <time>2014-03-15T07:01:50Z</time>
      </trkpt>
      <trkpt lat="53.877465" lon="27.462547">
        <ele>241.7</ele>
        <time>2014-03-15T07:01:59Z</time>
      </trkpt>
      <trkpt lat="53.87757" lon="27.462572">
        <ele>241.9</ele>
        <time>2014-03-15T07:02:05Z</time>
      </trkpt>
      <trkpt lat="53.87757" lon="27.462572">
        <ele>241.9</ele>
        <time>2014-03-15T07:02:13Z</time>
      </trkpt>
      <trkpt lat="53.87757" lon="27.462572">
        <time>2014-03-15T07:02:13Z</time>
      </trkpt>
    </trkseg>
    <trkseg>
      <trkpt lat="53.87757" lon="27.462572">
        <time>2014-03-15T07:02:36Z</time>
      </trkpt>
      <trkpt lat="53.877383" lon="27.462523">
        <ele>245.4</ele>
        <time>2014-03-15T07:02:36Z</time>
      </trkpt>
      <trkpt lat="53.87719" lon="27.462471">
        <ele>246.9</ele>
        <time>2014-03-15T07:02:41Z</time>
      </trkpt>
      <trkpt lat="53.876917" lon="27.462339">
        <ele>247.4</ele>
        <time>2014-03-15T07:02:49Z</time>
      </trkpt>
      <trkpt lat="53.877022" lon="27.462064">
        <ele>245.5</ele>
        <time>2014-03-15T07:02:56Z</time>
      </trkpt>
      <trkpt lat="53.877175" lon="27.46188">
        <ele>246.1</ele>
        <time>2014-03-15T07:03:01Z</time>
      </trkpt>
      <trkpt lat="53.877398" lon="27.461658">
        <ele>245.4</ele>
        <time>2014-03-15T07:03:08Z</time>
      </trkpt>
      <trkpt lat="53.877513" lon="27.461499">
        <ele>244.7</ele>
        <time>2014-03-15T07:03:12Z</time>
      </trkpt>
      <trkpt lat="53.877674" lon="27.461428">
        <ele>244.3</ele>
        <time>2014-03-15T07:03:18Z</time>
      </trkpt>
      <trkpt lat="53.877843" lon="27.461455">
        <ele>243.9</ele>
        <time>2014-03-15T07:03:23Z</time>
      </trkpt>
      <trkpt lat="53.878019" lon="27.461501">
        <ele>244.4</ele>
        <time>2014-03-15T07:03:28Z</time>
      </trkpt>
      <trkpt lat="53.878289" lon="27.46151">
        <ele>242.5</ele>
        <time>2014-03-15T07:03:35Z</time>
      </trkpt>
      <trkpt lat="53.878484" lon="27.461675">
        <ele>243.1</ele>
        <time>2014-03-15T07:03:42Z</time>
      </trkpt>
      <trkpt lat="53.878604" lon="27.461849">
        <ele>242.7</ele>
        <time>2014-03-15T07:03:52Z</time>
      </trkpt>
      <trkpt lat="53.8787" lon="27.462216">
        <ele>243.7</ele>
        <time>2014-03-15T07:04:00Z</time>
      </trkpt>
      <trkpt lat="53.878691" lon="27.462712">
        <ele>243.3</ele>
        <time>2014-03-15T07:04:08Z</time>
      </trkpt>
      <trkpt lat="53.87874" lon="27.4631">
        <ele>243.9</ele>
        <time>2014-03-15T07:04:15Z</time>
      </trkpt>
      <trkpt lat="53.878879" lon="27.46329">
        <ele>244.5</ele>
        <time>2014-03-15T07:04:20Z</time>
      </trkpt>
      <trkpt lat="53.879138" lon="27.463356">
        <ele>245.4</ele>
        <time>2014-03-15T07:04:26Z</time>
      </trkpt>
      <trkpt lat="53.879384" lon="27.463412">
        <ele>244.4</ele>
        <time>2014-03-15T07:04:31Z</time>
      </trkpt>
      <trkpt lat="53.879645" lon="27.463438">
        <ele>246.5</ele>
        <time>2014-03-15T07:04:37Z</time>
      </trkpt>
      <trkpt lat="53.879822" lon="27.46348">
        <ele>245.3</ele>
        <time>2014-03-15T07:04:41Z</time>
      </trkpt>
      <trkpt lat="53.880031" lon="27.463534">
        <ele>246.8</ele>
        <time>2014-03-15T07:04:46Z</time>
      </trkpt>
      <trkpt lat="53.880231" lon="27.463642">
        <ele>247.1</ele>
        <time>2014-03-15T07:04:51Z</time>
      </trkpt>
      <trkpt lat="53.880502" lon="27.463701">
        <ele>247.4</ele>
        <time>2014-03-15T07:04:58Z</time>
      </trkpt>
      <trkpt lat="53.880716" lon="27.463654">
        <ele>248.0</ele>
        <time>2014-03-15T07:05:03Z</time>
      </trkpt>
      <trkpt lat="53.880822" lon="27.463652">
        <ele>248.4</ele>
        <time>2014-03-15T07:05:06Z</time>
      </trkpt>
      <trkpt lat="53.880916" lon="27.463657">
        <ele>249.6</ele>
        <time>2014-03-15T07:05:09Z</time>
      </trkpt>
      <trkpt lat="53.881108" lon="27.463696">
        <ele>251.6</ele>
        <time>2014-03-15T07:05:16Z</time>
      </trkpt>
      <trkpt lat="53.881344" lon="27.463749">
        <ele>252.2</ele>
        <time>2014-03-15T07:05:25Z</time>
      </trkpt>
      <trkpt lat="53.881488" lon="27.463773">
        <ele>252.8</ele>
        <time>2014-03-15T07:05:30Z</time>
      </trkpt>
      <trkpt lat="53.881576" lon="27.463789">
        <ele>252.8</ele>
        <time>2014-03-15T07:05:33Z</time>
      </trkpt>
      <trkpt lat="53.881797" lon="27.463833">
        <ele>255.0</ele>
        <time>2014-03-15T07:05:41Z</time>
      </trkpt>
      <trkpt lat="53.882108" lon="27.463884">
        <ele>257.5</ele>
        <time>2014-03-15T07:05:50Z</time>
      </trkpt>
      <trkpt lat="53.882368" lon="27.463998">
        <ele>256.4</ele>
        <time>2014-03-15T07:05:57Z</time>
      </trkpt>
      <trkpt lat="53.882573" lon="27.464096">
        <ele>257.3</ele>
        <time>2014-03-15T07:06:02Z</time>
      </trkpt>
      <trkpt lat="53.882772" lon="27.464159">
        <ele>257.5</ele>
        <time>2014-03-15T07:06:07Z</time>
      </trkpt>
      <trkpt lat="53.882894" lon="27.464183">
        <ele>258.7</ele>
        <time>2014-03-15T07:06:10Z</time>
      </trkpt>
      <trkpt lat="53.883115" lon="27.4642">
        <ele>260.2</ele>
        <time>2014-03-15T07:06:16Z</time>
      </trkpt>
      <trkpt lat="53.883233" lon="27.464214">
        <ele>261.7</ele>
        <time>2014-03-15T07:06:19Z</time>
      </trkpt>
      <trkpt lat="53.883473" lon="27.464272">
        <ele>263.9</ele>
        <time>2014-03-15T07:06:25Z</time>
      </trkpt>
      <trkpt lat="53.8837" lon="27.46431">
        <ele>265.3</ele>
        <time>2014-03-15T07:06:31Z</time>
      </trkpt>
      <trkpt lat="53.883887" lon="27.464295">
        <ele>266.5</ele>
        <time>2014-03-15T07:06:37Z</time>
      </trkpt>
      <trkpt lat="53.883978" lon="27.464241">
        <ele>268.3</ele>
        <time>2014-03-15T07:06:42Z</time>
      </trkpt>
      <trkpt lat="53.884326" lon="27.464284">
        <ele>269.2</ele>
        <time>2014-03-15T07:06:51Z</time>
      </trkpt>
      <trkpt lat="53.884544" lon="27.464301">
        <ele>269.4</ele>
        <time>2014-03-15T07:06:57Z</time>
      </trkpt>
      <trkpt lat="53.884821" lon="27.464329">
        <ele>267.5</ele>
        <time>2014-03-15T07:07:04Z</time>
      </trkpt>
      <trkpt lat="53.885039" lon="27.464314">
        <ele>267.5</ele>
        <time>2014-03-15T07:07:09Z</time>
      </trkpt>
      <trkpt lat="53.885194" lon="27.464317">
        <ele>265.9</ele>
        <time>2014-03-15T07:07:12Z</time>
      </trkpt>
      <trkpt lat="53.885544" lon="27.464384">
        <ele>263.0</ele>
        <time>2014-03-15T07:07:18Z</time>
      </trkpt>
      <trkpt lat="53.885736" lon="27.464374">
        <ele>262.0</ele>
        <time>2014-03-15T07:07:21Z</time>
      </trkpt>
      <trkpt lat="53.886001" lon="27.464393">
        <ele>260.6</ele>
        <time>2014-03-15T07:07:26Z</time>
      </trkpt>
      <trkpt lat="53.886356" lon="27.464465">
        <ele>259.8</ele>
        <time>2014-03-15T07:07:32Z</time>
      </trkpt>
      <trkpt lat="53.886699" lon="27.464611">
        <ele>259.8</ele>
        <time>2014-03-15T07:07:37Z</time>
      </trkpt>
      <trkpt lat="53.887117" lon="27.464552">
        <ele>256.7</ele>
        <time>2014-03-15T07:07:43Z</time>
      </trkpt>
      <trkpt lat="53.88732" lon="27.464532">
        <ele>256.2</ele>
        <time>2014-03-15T07:07:46Z</time>
      </trkpt>
      <trkpt lat="53.887607" lon="27.464503">
        <ele>255.4</ele>
        <time>2014-03-15T07:07:51Z</time>
      </trkpt>
      <trkpt lat="53.887746" lon="27.464549">
        <ele>257.1</ele>
        <time>2014-03-15T07:07:54Z</time>
      </trkpt>
      <trkpt lat="53.887908" lon="27.464576">
        <ele>256.3</ele>
        <time>2014-03-15T07:07:58Z</time>
      </trkpt>
      <trkpt lat="53.888065" lon="27.46461">
        <ele>257.2</ele>
        <time>2014-03-15T07:08:02Z</time>
      </trkpt>
      <trkpt lat="53.888203" lon="27.464632">
        <ele>258.0</ele>
        <time>2014-03-15T07:08:05Z</time>
      </trkpt>
      <trkpt lat="53.888415" lon="27.464645">
        <ele>258.9</ele>
        <time>2014-03-15T07:08:10Z</time>
      </trkpt>
      <trkpt lat="53.888639" lon="27.464682">
        <ele>260.8</ele>
        <time>2014-03-15T07:08:15Z</time>
      </trkpt>
      <trkpt lat="53.888843" lon="27.464693">
        <ele>263.9</ele>
        <time>2014-03-15T07:08:20Z</time>
      </trkpt>
      <trkpt lat="53.889087" lon="27.464687">
        <ele>263.1</ele>
        <time>2014-03-15T07:08:26Z</time>
      </trkpt>
      <trkpt lat="53.889332" lon="27.464797">
        <ele>261.1</ele>
        <time>2014-03-15T07:08:32Z</time>
      </trkpt>
      <trkpt lat="53.889581" lon="27.464873">
        <ele>261.3</ele>
        <time>2014-03-15T07:08:38Z</time>
      </trkpt>
      <trkpt lat="53.889702" lon="27.464868">
        <ele>261.9</ele>
        <time>2014-03-15T07:08:41Z</time>
      </trkpt>
      <trkpt lat="53.889858" lon="27.464889">
        <ele>261.9</ele>
        <time>2014-03-15T07:08:45Z</time>
      </trkpt>
      <trkpt lat="53.890121" lon="27.464893">
        <ele>262.8</ele>
        <time>2014-03-15T07:08:52Z</time>
      </trkpt>
      <trkpt lat="53.890315" lon="27.464894">
        <ele>264.2</ele>
        <time>2014-03-15T07:08:57Z</time>
      </trkpt>
      <trkpt lat="53.890543" lon="27.464905">
        <ele>266.1</ele>
        <time>2014-03-15T07:09:03Z</time>
      </trkpt>
      <trkpt lat="53.89073" lon="27.46493">
        <ele>267.5</ele>
        <time>2014-03-15T07:09:08Z</time>
      </trkpt>
      <trkpt lat="53.890888" lon="27.464984">
        <ele>266.4</ele>
        <time>2014-03-15T07:09:13Z</time>
      </trkpt>
      <trkpt lat="53.890888" lon="27.464984">
        <time>2014-03-15T07:09:18Z</time>
      </trkpt>
    </trkseg>
    <trkseg>
      <trkpt lat="53.890888" lon="27.464984">
        <time>2014-03-15T07:09:24Z</time>
      </trkpt>
      <trkpt lat="53.890922" lon="27.465132">
        <ele>264.7</ele>
        <time>2014-03-15T07:09:24Z</time>
      </trkpt>
      <trkpt lat="53.89092" lon="27.465805">
        <ele>265.5</ele>
        <time>2014-03-15T07:09:35Z</time>
      </trkpt>
      <trkpt lat="53.891016" lon="27.466138">
        <ele>266.8</ele>
        <time>2014-03-15T07:09:41Z</time>
      </trkpt>
      <trkpt lat="53.891259" lon="27.466285">
        <ele>265.0</ele>
        <time>2014-03-15T07:09:46Z</time>
      </trkpt>
      <trkpt lat="53.891646" lon="27.466521">
        <ele>262.8</ele>
        <time>2014-03-15T07:09:52Z</time>
      </trkpt>
      <trkpt lat="53.891992" lon="27.466574">
        <ele>262.6</ele>
        <time>2014-03-15T07:09:57Z</time>
      </trkpt>
      <trkpt lat="53.892255" lon="27.466889">
        <ele>263.7</ele>
        <time>2014-03-15T07:10:02Z</time>
      </trkpt>
      <trkpt lat="53.892365" lon="27.467364">
        <ele>264.8</ele>
        <time>2014-03-15T07:10:07Z</time>
      </trkpt>
      <trkpt lat="53.892458" lon="27.467919">
        <ele>264.8</ele>
        <time>2014-03-15T07:10:14Z</time>
      </trkpt>
      <trkpt lat="53.892509" lon="27.468187">
        <ele>265.1</ele>
        <time>2014-03-15T07:10:22Z</time>
      </trkpt>
      <trkpt lat="53.892541" lon="27.468404">
        <ele>264.5</ele>
        <time>2014-03-15T07:10:34Z</time>
      </trkpt>
      <trkpt lat="53.892583" lon="27.468645">
        <ele>264.4</ele>
        <time>2014-03-15T07:10:49Z</time>
      </trkpt>
      <trkpt lat="53.892585" lon="27.468774">
        <ele>262.4</ele>
        <time>2014-03-15T07:11:00Z</time>
      </trkpt>
      <trkpt lat="53.892652" lon="27.469045">
        <ele>260.6</ele>
        <time>2014-03-15T07:11:12Z</time>
      </trkpt>
      <trkpt lat="53.892705" lon="27.469331">
        <ele>261.6</ele>
        <time>2014-03-15T07:11:20Z</time>
      </trkpt>
      <trkpt lat="53.892761" lon="27.469628">
        <ele>260.9</ele>
        <time>2014-03-15T07:11:26Z</time>
      </trkpt>
      <trkpt lat="53.892835" lon="27.469979">
        <ele>260.4</ele>
        <time>2014-03-15T07:11:33Z</time>
      </trkpt>
      <trkpt lat="53.89295" lon="27.470251">
        <ele>261.1</ele>
        <time>2014-03-15T07:11:39Z</time>
      </trkpt>
      <trkpt lat="53.893131" lon="27.470333">
        <ele>261.6</ele>
        <time>2014-03-15T07:11:48Z</time>
      </trkpt>
      <trkpt lat="53.893357" lon="27.470551">
        <ele>260.3</ele>
        <time>2014-03-15T07:11:57Z</time>
      </trkpt>
      <trkpt lat="53.893436" lon="27.470981">
        <ele>260.9</ele>
        <time>2014-03-15T07:12:04Z</time>
      </trkpt>
      <trkpt lat="53.89348" lon="27.471261">
        <ele>261.0</ele>
        <time>2014-03-15T07:12:09Z</time>
      </trkpt>
      <trkpt lat="53.89351" lon="27.471563">
        <ele>262.1</ele>
        <time>2014-03-15T07:12:16Z</time>
      </trkpt>
      <trkpt lat="53.893412" lon="27.471764">
        <ele>260.5</ele>
        <time>2014-03-15T07:12:22Z</time>
      </trkpt>
      <trkpt lat="53.893371" lon="27.47201">
        <ele>260.7</ele>
        <time>2014-03-15T07:12:27Z</time>
      </trkpt>
      <trkpt lat="53.893339" lon="27.472207">
        <ele>260.0</ele>
        <time>2014-03-15T07:12:31Z</time>
      </trkpt>
      <trkpt lat="53.893292" lon="27.472438">
        <ele>259.3</ele>
        <time>2014-03-15T07:12:36Z</time>
      </trkpt>
      <trkpt lat="53.893104" lon="27.472638">
        <ele>260.2</ele>
        <time>2014-03-15T07:12:44Z</time>
      </trkpt>
      <trkpt lat="53.892896" lon="27.47265">
        <ele>259.6</ele>
        <time>2014-03-15T07:12:52Z</time>
      </trkpt>
      <trkpt lat="53.892683" lon="27.472586">
        <ele>260.8</ele>
        <time>2014-03-15T07:13:00Z</time>
      </trkpt>
      <trkpt lat="53.892524" lon="27.47257">
        <ele>260.3</ele>
        <time>2014-03-15T07:13:07Z</time>
      </trkpt>
      <trkpt lat="53.892434" lon="27.472547">
        <ele>262.5</ele>
        <time>2014-03-15T07:13:13Z</time>
      </trkpt>
      <trkpt lat="53.892434" lon="27.472547">
        <time>2014-03-15T07:13:19Z</time>
      </trkpt>
    </trkseg>
    <trkseg>
      <trkpt lat="53.892434" lon="27.472547">
        <time>2014-03-15T07:13:41Z</time>
      </trkpt>
      <trkpt lat="53.892434" lon="27.472312">
        <ele>261.4</ele>
        <time>2014-03-15T07:13:41Z</time>
      </trkpt>
      <trkpt lat="53.89243" lon="27.472134">
        <ele>262.6</ele>
        <time>2014-03-15T07:13:45Z</time>
      </trkpt>
      <trkpt lat="53.892417" lon="27.47196">
        <ele>269.4</ele>
        <time>2014-03-15T07:13:50Z</time>
      </trkpt>
      <trkpt lat="53.892317" lon="27.471763">
        <ele>264.7</ele>
        <time>2014-03-15T07:13:57Z</time>
      </trkpt>
      <trkpt lat="53.892155" lon="27.471417">
        <ele>260.6</ele>
        <time>2014-03-15T07:14:06Z</time>
      </trkpt>
      <trkpt lat="53.892068" lon="27.47132">
        <ele>262.6</ele>
        <time>2014-03-15T07:14:11Z</time>
      </trkpt>
      <trkpt lat="53.891913" lon="27.471095">
        <ele>263.3</ele>
        <time>2014-03-15T07:14:19Z</time>
      </trkpt>
      <trkpt lat="53.8918" lon="27.470882">
        <ele>264.6</ele>
        <time>2014-03-15T07:14:25Z</time>
      </trkpt>
      <trkpt lat="53.89168" lon="27.470832">
        <ele>267.8</ele>
        <time>2014-03-15T07:14:30Z</time>
      </trkpt>
      <trkpt lat="53.891619" lon="27.470768">
        <ele>270.7</ele>
        <time>2014-03-15T07:14:34Z</time>
      </trkpt>
      <trkpt lat="53.891619" lon="27.470768">
        <time>2014-03-15T07:14:39Z</time>
      </trkpt>
    </trkseg>
    <trkseg>
      <trkpt lat="53.891619" lon="27.470768">
        <time>2014-03-15T07:14:43Z</time>
      </trkpt>
      <trkpt lat="53.891586" lon="27.470755">
        <ele>268.5</ele>
        <time>2014-03-15T07:14:43Z</time>
      </trkpt>
      <trkpt lat="53.891413" lon="27.470807">
        <ele>276.4</ele>
        <time>2014-03-15T07:14:55Z</time>
      </trkpt>
      <trkpt lat="53.891426" lon="27.471092">
        <ele>273.6</ele>
        <time>2014-03-15T07:15:05Z</time>
      </trkpt>
      <trkpt lat="53.891424" lon="27.471431">
        <ele>270.7</ele>
        <time>2014-03-15T07:15:11Z</time>
      </trkpt>
      <trkpt lat="53.891221" lon="27.471799">
        <ele>271.4</ele>
        <time>2014-03-15T07:15:17Z</time>
      </trkpt>
      <trkpt lat="53.891101" lon="27.47183">
        <ele>276.2</ele>
        <time>2014-03-15T07:15:22Z</time>
      </trkpt>
      <trkpt lat="53.890781" lon="27.471904">
        <ele>276.5</ele>
        <time>2014-03-15T07:15:29Z</time>
      </trkpt>
      <trkpt lat="53.890666" lon="27.471945">
        <ele>277.3</ele>
        <time>2014-03-15T07:15:34Z</time>
      </trkpt>
      <trkpt lat="53.890356" lon="27.472259">
        <ele>280.5</ele>
        <time>2014-03-15T07:15:48Z</time>
      </trkpt>
      <trkpt lat="53.890356" lon="27.472259">
        <ele>280.5</ele>
        <time>2014-03-15T07:15:54Z</time>
      </trkpt>
      <trkpt lat="53.890356" lon="27.472259">
        <time>2014-03-15T07:15:54Z</time>
      </trkpt>
    </trkseg>
    <trkseg>
      <trkpt lat="53.890356" lon="27.472259">
        <time>2014-03-15T07:16:05Z</time>
      </trkpt>
      <trkpt lat="53.89055" lon="27.472026">
        <ele>276.0</ele>
        <time>2014-03-15T07:16:05Z</time>
      </trkpt>
      <trkpt lat="53.89068" lon="27.471933">
        <ele>282.4</ele>
        <time>2014-03-15T07:16:11Z</time>
      </trkpt>
      <trkpt lat="53.891042" lon="27.471973">
        <ele>281.2</ele>
        <time>2014-03-15T07:16:23Z</time>
      </trkpt>
      <trkpt lat="53.891286" lon="27.472084">
        <ele>278.9</ele>
        <time>2014-03-15T07:16:29Z</time>
      </trkpt>
      <trkpt lat="53.891469" lon="27.472468">
        <ele>275.9</ele>
        <time>2014-03-15T07:16:36Z</time>
      </trkpt>
      <trkpt lat="53.891606" lon="27.472677">
        <ele>275.8</ele>
        <time>2014-03-15T07:16:42Z</time>
      </trkpt>
      <trkpt lat="53.89181" lon="27.472795">
        <ele>276.6</ele>
        <time>2014-03-15T07:16:50Z</time>
      </trkpt>
      <trkpt lat="53.892042" lon="27.472589">
        <ele>269.9</ele>
        <time>2014-03-15T07:16:58Z</time>
      </trkpt>
      <trkpt lat="53.892208" lon="27.472493">
        <ele>266.8</ele>
        <time>2014-03-15T07:17:04Z</time>
      </trkpt>
      <trkpt lat="53.89239" lon="27.472479">
        <ele>267.7</ele>
        <time>2014-03-15T07:17:09Z</time>
      </trkpt>
      <trkpt lat="53.892725" lon="27.472545">
        <ele>261.4</ele>
        <time>2014-03-15T07:17:18Z</time>
      </trkpt>
      <trkpt lat="53.892882" lon="27.472606">
        <ele>259.0</ele>
        <time>2014-03-15T07:17:23Z</time>
      </trkpt>
      <trkpt lat="53.893182" lon="27.47253">
        <ele>258.5</ele>
        <time>2014-03-15T07:17:32Z</time>
      </trkpt>
      <trkpt lat="53.893366" lon="27.47257">
        <ele>257.2</ele>
        <time>2014-03-15T07:17:38Z</time>
      </trkpt>
      <trkpt lat="53.893593" lon="27.472814">
        <ele>258.2</ele>
        <time>2014-03-15T07:17:46Z</time>
      </trkpt>
      <trkpt lat="53.893585" lon="27.473152">
        <ele>258.0</ele>
        <time>2014-03-15T07:17:52Z</time>
      </trkpt>
      <trkpt lat="53.893596" lon="27.473641">
        <ele>258.1</ele>
        <time>2014-03-15T07:18:00Z</time>
      </trkpt>
      <trkpt lat="53.893561" lon="27.473911">
        <ele>257.5</ele>
        <time>2014-03-15T07:18:06Z</time>
      </trkpt>
      <trkpt lat="53.893553" lon="27.474281">
        <ele>258.5</ele>
        <time>2014-03-15T07:18:11Z</time>
      </trkpt>
      <trkpt lat="53.893557" lon="27.474697">
        <ele>261.4</ele>
        <time>2014-03-15T07:18:17Z</time>
      </trkpt>
      <trkpt lat="53.893572" lon="27.475155">
        <ele>260.5</ele>
        <time>2014-03-15T07:18:23Z</time>
      </trkpt>
      <trkpt lat="53.893563" lon="27.475533">
        <ele>262.7</ele>
        <time>2014-03-15T07:18:28Z</time>
      </trkpt>
      <trkpt lat="53.893581" lon="27.475968">
        <ele>264.9</ele>
        <time>2014-03-15T07:18:33Z</time>
      </trkpt>
      <trkpt lat="53.893569" lon="27.476426">
        <ele>261.3</ele>
        <time>2014-03-15T07:18:39Z</time>
      </trkpt>
      <trkpt lat="53.893565" lon="27.476943">
        <ele>260.6</ele>
        <time>2014-03-15T07:18:45Z</time>
      </trkpt>
      <trkpt lat="53.893566" lon="27.477332">
        <ele>261.0</ele>
        <time>2014-03-15T07:18:50Z</time>
      </trkpt>
      <trkpt lat="53.893567" lon="27.47783">
        <ele>262.4</ele>
        <time>2014-03-15T07:18:56Z</time>
      </trkpt>
      <trkpt lat="53.893586" lon="27.478347">
        <ele>264.5</ele>
        <time>2014-03-15T07:19:02Z</time>
      </trkpt>
      <trkpt lat="53.893579" lon="27.478824">
        <ele>262.8</ele>
        <time>2014-03-15T07:19:08Z</time>
      </trkpt>
      <trkpt lat="53.893591" lon="27.479354">
        <ele>263.8</ele>
        <time>2014-03-15T07:19:15Z</time>
      </trkpt>
      <trkpt lat="53.893595" lon="27.479869">
        <ele>264.9</ele>
        <time>2014-03-15T07:19:22Z</time>
      </trkpt>
      <trkpt lat="53.893597" lon="27.480183">
        <ele>263.7</ele>
        <time>2014-03-15T07:19:26Z</time>
      </trkpt>
      <trkpt lat="53.89358" lon="27.480496">
        <ele>265.1</ele>
        <time>2014-03-15T07:19:30Z</time>
      </trkpt>
      <trkpt lat="53.893591" lon="27.480746">
        <ele>265.7</ele>
        <time>2014-03-15T07:19:33Z</time>
      </trkpt>
      <trkpt lat="53.893573" lon="27.481229">
        <ele>265.7</ele>
        <time>2014-03-15T07:19:39Z</time>
      </trkpt>
      <trkpt lat="53.893572" lon="27.481492">
        <ele>266.2</ele>
        <time>2014-03-15T07:19:43Z</time>
      </trkpt>
      <trkpt lat="53.893572" lon="27.481492">
        <ele>266.2</ele>
        <time>2014-03-15T07:19:49Z</time>
      </trkpt>
      <trkpt lat="53.893572" lon="27.481492">
        <time>2014-03-15T07:19:49Z</time>
      </trkpt>
    </trkseg>
    <trkseg>
      <trkpt lat="53.893572" lon="27.481492">
        <time>2014-03-15T07:19:55Z</time>
      </trkpt>
      <trkpt lat="53.893887" lon="27.481425">
        <ele>269.2</ele>
        <time>2014-03-15T07:19:55Z</time>
      </trkpt>
      <trkpt lat="53.894005" lon="27.481691">
        <ele>271.8</ele>
        <time>2014-03-15T07:20:01Z</time>
      </trkpt>
      <trkpt lat="53.893993" lon="27.482101">
        <ele>274.8</ele>
        <time>2014-03-15T07:20:07Z</time>
      </trkpt>
      <trkpt lat="53.893988" lon="27.482388">
        <ele>275.4</ele>
        <time>2014-03-15T07:20:12Z</time>
      </trkpt>
      <trkpt lat="53.893977" lon="27.482773">
        <ele>278.0</ele>
        <time>2014-03-15T07:20:17Z</time>
      </trkpt>
      <trkpt lat="53.893995" lon="27.483266">
        <ele>277.7</ele>
        <time>2014-03-15T07:20:24Z</time>
      </trkpt>
      <trkpt lat="53.894029" lon="27.483823">
        <ele>279.1</ele>
        <time>2014-03-15T07:20:31Z</time>
      </trkpt>
      <trkpt lat="53.894054" lon="27.484321">
        <ele>277.2</ele>
        <time>2014-03-15T07:20:37Z</time>
      </trkpt>
      <trkpt lat="53.894034" lon="27.484742">
        <ele>276.9</ele>
        <time>2014-03-15T07:20:42Z</time>
      </trkpt>
      <trkpt lat="53.894038" lon="27.485135">
        <ele>275.8</ele>
        <time>2014-03-15T07:20:47Z</time>
      </trkpt>
      <trkpt lat="53.894026" lon="27.485617">
        <ele>275.3</ele>
        <time>2014-03-15T07:20:53Z</time>
      </trkpt>
      <trkpt lat="53.894028" lon="27.486102">
        <ele>275.3</ele>
        <time>2014-03-15T07:20:59Z</time>
      </trkpt>
      <trkpt lat="53.894023" lon="27.486618">
        <ele>274.0</ele>
        <time>2014-03-15T07:21:05Z</time>
      </trkpt>
      <trkpt lat="53.89401" lon="27.487151">
        <ele>274.9</ele>
        <time>2014-03-15T07:21:11Z</time>
      </trkpt>
      <trkpt lat="53.894015" lon="27.487607">
        <ele>273.9</ele>
        <time>2014-03-15T07:21:16Z</time>
      </trkpt>
      <trkpt lat="53.893998" lon="27.487857">
        <ele>272.6</ele>
        <time>2014-03-15T07:21:19Z</time>
      </trkpt>
      <trkpt lat="53.894109" lon="27.488045">
        <ele>271.9</ele>
        <time>2014-03-15T07:21:25Z</time>
      </trkpt>
      <trkpt lat="53.894285" lon="27.488146">
        <ele>270.8</ele>
        <time>2014-03-15T07:21:32Z</time>
      </trkpt>
      <trkpt lat="53.894606" lon="27.488128">
        <ele>269.7</ele>
        <time>2014-03-15T07:21:41Z</time>
      </trkpt>
      <trkpt lat="53.894897" lon="27.488244">
        <ele>270.8</ele>
        <time>2014-03-15T07:21:48Z</time>
      </trkpt>
      <trkpt lat="53.895044" lon="27.488566">
        <ele>272.3</ele>
        <time>2014-03-15T07:21:53Z</time>
      </trkpt>
      <trkpt lat="53.895154" lon="27.488814">
        <ele>272.8</ele>
        <time>2014-03-15T07:21:57Z</time>
      </trkpt>
      <trkpt lat="53.895213" lon="27.489112">
        <ele>272.9</ele>
        <time>2014-03-15T07:22:02Z</time>
      </trkpt>
      <trkpt lat="53.895442" lon="27.489265">
        <ele>273.5</ele>
        <time>2014-03-15T07:22:09Z</time>
      </trkpt>
      <trkpt lat="53.895582" lon="27.489571">
        <ele>271.8</ele>
        <time>2014-03-15T07:22:15Z</time>
      </trkpt>
      <trkpt lat="53.895712" lon="27.489884">
        <ele>274.4</ele>
        <time>2014-03-15T07:22:21Z</time>
      </trkpt>
      <trkpt lat="53.895887" lon="27.490194">
        <ele>273.4</ele>
        <time>2014-03-15T07:22:27Z</time>
      </trkpt>
      <trkpt lat="53.896045" lon="27.490554">
        <ele>271.7</ele>
        <time>2014-03-15T07:22:33Z</time>
      </trkpt>
      <trkpt lat="53.896185" lon="27.490721">
        <ele>268.1</ele>
        <time>2014-03-15T07:22:39Z</time>
      </trkpt>
      <trkpt lat="53.896217" lon="27.490936">
        <ele>265.5</ele>
        <time>2014-03-15T07:22:47Z</time>
      </trkpt>
      <trkpt lat="53.896219" lon="27.491309">
        <ele>266.4</ele>
        <time>2014-03-15T07:22:52Z</time>
      </trkpt>
      <trkpt lat="53.896193" lon="27.491806">
        <ele>268.1</ele>
        <time>2014-03-15T07:22:59Z</time>
      </trkpt>
      <trkpt lat="53.89622" lon="27.492315">
        <ele>272.9</ele>
        <time>2014-03-15T07:23:06Z</time>
      </trkpt>
      <trkpt lat="53.896303" lon="27.492678">
        <ele>271.5</ele>
        <time>2014-03-15T07:23:11Z</time>
      </trkpt>
      <trkpt lat="53.896393" lon="27.493022">
        <ele>271.8</ele>
        <time>2014-03-15T07:23:16Z</time>
      </trkpt>
      <trkpt lat="53.896433" lon="27.493526">
        <ele>272.8</ele>
        <time>2014-03-15T07:23:22Z</time>
      </trkpt>
      <trkpt lat="53.89645" lon="27.494071">
        <ele>273.9</ele>
        <time>2014-03-15T07:23:28Z</time>
      </trkpt>
      <trkpt lat="53.896481" lon="27.494749">
        <ele>273.3</ele>
        <time>2014-03-15T07:23:36Z</time>
      </trkpt>
      <trkpt lat="53.896497" lon="27.49516">
        <ele>273.9</ele>
        <time>2014-03-15T07:23:42Z</time>
      </trkpt>
      <trkpt lat="53.896517" lon="27.495776">
        <ele>271.9</ele>
        <time>2014-03-15T07:23:49Z</time>
      </trkpt>
      <trkpt lat="53.896548" lon="27.496103">
        <ele>271.8</ele>
        <time>2014-03-15T07:23:55Z</time>
      </trkpt>
      <trkpt lat="53.896839" lon="27.496041">
        <ele>274.9</ele>
        <time>2014-03-15T07:24:03Z</time>
      </trkpt>
      <trkpt lat="53.896937" lon="27.495753">
        <ele>276.3</ele>
        <time>2014-03-15T07:24:09Z</time>
      </trkpt>
      <trkpt lat="53.897166" lon="27.495696">
        <ele>276.3</ele>
        <time>2014-03-15T07:24:15Z</time>
      </trkpt>
      <trkpt lat="53.897242" lon="27.495867">
        <ele>276.6</ele>
        <time>2014-03-15T07:24:22Z</time>
      </trkpt>
      <trkpt lat="53.897242" lon="27.495867">
        <ele>276.6</ele>
        <time>2014-03-15T07:24:27Z</time>
      </trkpt>
      <trkpt lat="53.897242" lon="27.495867">
        <time>2014-03-15T07:24:27Z</time>
      </trkpt>
    </trkseg>
    <trkseg>
      <trkpt lat="53.897242" lon="27.495867">
        <time>2014-03-15T07:25:16Z</time>
      </trkpt>
    </trkseg>
  </trk>
</gpx>